[[[{"header":{"parameterUnit":"kt","parameterCategory":2,"dx":1,"dy":1,"la1":29.587661999999998,"la2":31.0,"lo1":-88.76705300000003,"lo2":-86.6583820000003,"nx":115,"ny":88,"refTime":"2022-10-28T00:00:00:Z","depth":0,"parameterNumber":1,"parameterNumberName":"U-component_of_WINDS"},"data":[-8.6239,-8.7736,-8.8531,-8.8705,-8.8614,-8.8979,-8.8941,-8.9832,-9.4074,-9.5292,-9.5538,-9.9109,-9.8953,-9.4141,-9.3763,-9.3533,-9.3407,-9.319,-9.3112,-9.3535,-9.4543,-9.5395,-9.6166,-9.7044,-9.761,-9.8124,-9.8451,-9.8131,-9.6654,-9.5494,-9.4467,-9.3198,-9.1262,-9.0914,-8.9839,-8.876,-8.755,-8.6986,-8.594,-8.4938,-8.5472,-8.64,-8.7189,-8.7423,-8.7739,-8.6782,-8.5773,-8.478,-8.3146,-8.196,-8.1439,-8.2541,-8.3069,-8.3259,-8.3069,-8.2993,-8.2537,-8.2234,-8.2234,-8.2499,-8.222,-8.2333,-8.068,-8.0144,-7.9193,-7.8806,-7.7236,-7.6618,-7.5956,-7.4294,-7.4627,-7.5292,-7.6453,-7.8043,-7.9829,-8.0385,-8.092,-8.1134,-8.1098,-8.0991,-8.092,-8.0492,-7.9993,-7.9851,-7.9922,-7.9922,-7.9957,-7.8607,-7.6818,-7.5292,-7.4095,-7.1081,-6.787,-6.685,-6.6539,-6.3687,-6.285,-6.3095,-6.2702,-6.1405,-6.0426,-6.0,-5.9143,-5.8769,-5.7996,-5.6855,-5.4783,-5.2987,-5.0847,-4.8917,-4.6815,-4.5723,-4.554,-4.5138,-4.4131,-8.4427,-8.5257,-8.8423,-8.9344,-8.8842,-9.0171,-9.09,-9.1265,-9.3585,-9.4958,-9.5597,-9.6518,-9.4608,-9.2959,-9.2817,-9.2347,-9.1887,-9.121,-9.2799,-9.3514,-9.3674,-9.4226,-9.5505,-9.7104,-9.725,-9.7668,-9.8269,-9.7117,-9.5074,-9.3339,-9.1591,-8.9005,-8.9005,-8.9828,-8.8673,-8.7532,-8.6784,-8.6267,-8.5606,-8.4741,-8.5502,-8.6577,-8.6971,-8.6595,-8.6026,-8.5183,-8.4336,-8.3295,-8.195,-8.1398,-8.1783,-8.2921,-8.3638,-8.3904,-8.3828,-8.3638,-8.3221,-8.2917,-8.2803,-8.3259,-8.2817,-8.1968,-7.9822,-7.8151,-7.6873,-7.5357,-7.306,-7.2456,-7.2456,-7.2121,-7.2959,-7.3794,-7.5126,-7.6521,-7.8512,-8.0078,-8.092,-8.1526,-8.1312,-8.1027,-8.0849,-8.0599,-8.0207,-7.9886,-7.9851,-7.9851,-7.9323,-7.7973,-7.6156,-7.3591,-7.1145,-6.821,-6.5486,-6.4688,-6.4374,-6.3284,-6.276,-6.3032,-6.3533,-6.2287,-6.1518,-6.1698,-6.1056,-5.943,-5.6881,-5.5553,-5.3637,-5.095,-4.8996,-4.7034,-4.5741,-4.4936,-4.4735,-4.4332,-4.3324,-8.2752,-8.3531,-8.5805,-8.6377,-8.6202,-8.6904,-8.7606,-8.8492,-9.0911,-9.2198,-9.2499,-9.2204,-9.1106,-8.9379,-8.9523,-8.9089,-8.7948,-8.8582,-8.993,-9.061,-9.0512,-9.2135,-9.338,-9.4351,-9.5224,-9.6471,-9.7209,-9.6654,-9.3904,-9.1591,-8.9149,-8.7157,-8.6026,-8.5879,-8.5143,-8.5183,-8.4995,-8.5143,-8.4672,-8.4324,-8.4404,-8.5341,-8.6026,-8.6508,-8.5773,-8.4632,-8.3742,-8.2399,-8.12,-8.0867,-8.1208,-8.2376,-8.3239,-8.3889,-8.4162,-8.4246,-8.4056,-8.3866,-8.398,-8.3852,-8.3241,-8.1152,-7.9075,-7.6282,-7.4893,-7.0576,-6.841,-6.824,-6.824,-6.9088,-6.9933,-7.1166,-7.2515,-7.4961,-7.7299,-7.9158,-8.028,-8.0978,-8.1074,-8.0694,-8.0053,-7.9806,-7.9123,-7.8642,-7.7852,-7.7686,-7.5658,-7.3961,-7.2347,-7.0138,-6.7992,-6.5657,-6.343,-6.2281,-6.2738,-6.2705,-6.2782,-6.3605,-6.4341,-6.3929,-6.3927,-6.3676,-6.2359,-5.9364,-5.6705,-5.4746,-5.1905,-4.9094,-4.6909,-4.6344,-4.5339,-4.4332,-4.3929,-4.3728,-4.2315,-8.0514,-8.1228,-8.3164,-8.3944,-8.408,-8.4156,-8.493,-8.5919,-8.8266,-8.9374,-8.9455,-8.9421,-8.8697,-8.7532,-8.7678,-8.6801,-8.5692,-8.6348,-8.6432,-8.7542,-8.7777,-8.9001,-8.9685,-9.1503,-9.2235,-9.3489,-9.4327,-9.4327,-9.1733,-8.8425,-8.5544,-8.47,-8.3999,-8.3553,-8.3107,-8.2997,-8.2997,-8.2808,-8.2839,-8.3137,-8.3137,-8.3811,-8.4592,-8.4888,-8.4444,-8.3146,-8.1612,-8.0408,-7.9502,-7.8701,-7.9255,-8.0221,-8.1532,-8.2942,-8.3825,-8.4608,-8.4655,-8.3862,-8.3418,-8.2612,-8.0994,-7.8947,-7.6316,-7.4361,-7.1353,-6.6539,-6.4031,-6.4031,-6.4546,-6.5373,-6.6629,-6.8094,-6.9845,-7.3032,-7.5865,-7.7642,-7.9238,-7.9983,-8.0694,-7.9993,-7.9123,-7.8344,-7.7534,-7.6731,-7.5764,-7.4256,-7.2676,-7.1061,-6.9643,-6.7343,-6.5439,-6.3799,-6.1464,-6.1236,-6.1811,-6.2177,-6.2822,-6.3821,-6.4529,-6.5604,-6.6502,-6.4959,-6.2932,-5.9481,-5.6466,-5.3571,-5.0766,-4.813,-4.6746,-4.6344,-4.554,-4.3929,-4.3324,-4.2517,-4.1103,-7.7175,-7.7645,-8.2016,-8.385,-8.4071,-8.4708,-8.56,-8.6674,-8.6941,-8.7865,-8.9166,-8.9421,-8.8406,-8.7094,-8.6655,-8.592,-8.4955,-8.4727,-8.526,-8.7033,-8.6039,-8.6432,-8.7465,-8.863,-8.9114,-8.9412,-9.0115,-9.1162,-8.8962,-8.6238,-8.3216,-8.165,-8.165,-8.18,-8.1911,-8.195,-8.165,-8.15,-8.165,-8.195,-8.195,-8.225,-8.2659,-8.2808,-8.1911,-8.0748,-7.8744,-7.7032,-7.55,-7.4571,-7.435,-7.5293,-7.672,-7.8281,-8.113,-8.2377,-8.2959,-8.215,-8.0651,-7.9999,-7.7669,-7.4527,-7.1385,-7.0039,-6.8718,-6.5202,-6.4031,-6.3859,-6.3687,-6.4546,-6.5147,-6.6382,-6.7873,-7.0357,-7.3904,-7.6504,-7.8118,-7.9227,-7.9227,-7.801,-7.7041,-7.5626,-7.5022,-7.427,-7.3175,-7.3261,-7.1965,-7.0045,-6.7986,-6.5024,-6.3246,-6.2039,-6.1054,-6.0946,-6.1389,-6.1509,-6.2609,-6.3679,-6.444,-6.5454,-6.6511,-6.5155,-6.3315,-6.0714,-5.8074,-5.4291,-5.029,-4.8731,-4.7147,-4.6344,-4.4936,-4.3526,-4.2113,-4.1103,-4.0091,-7.456,-7.4813,-7.9739,-8.1676,-8.158,-8.3601,-8.5345,-8.6661,-8.7298,-8.819,-8.9336,-8.8842,-8.7824,-8.6508,-8.5773,-8.4888,-8.3593,-8.3553,-8.3702,-8.4324,-8.3344,-8.4016,-8.4606,-8.5219,-8.591,-8.7054,-8.7803,-8.7699,-8.5945,-8.3474,-8.18,-8.0674,-8.1049,-8.12,-8.1088,-8.1165,-8.0975,-8.0597,-8.0447,-8.0899,-8.12,-8.165,-8.2061,-8.2061,-7.9918,-7.8858,-7.7642,-7.5002,-7.4049,-7.3479,-7.2707,-7.3286,-7.4221,-7.4642,-7.6904,-7.7824,-7.8819,-7.7998,-7.6846,-7.6516,-7.4162,-7.1521,-6.9702,-6.7701,-6.5886,-6.4688,-6.4202,-6.3687,-6.3687,-6.3887,-6.4346,-6.4977,-6.6382,-6.7813,-7.1523,-7.5279,-7.6841,-7.8228,-7.7515,-7.6067,-7.4652,-7.3314,-7.2295,-7.1542,-7.1064,-7.0428,-6.9259,-6.7417,-6.5132,-6.2955,-6.2079,-6.1063,-6.0699,-6.0646,-6.0261,-6.0247,-6.1676,-6.2969,-6.4095,-6.5351,-6.6269,-6.6071,-6.5446,-6.3068,-5.9821,-5.44,-4.9131,-4.7949,-4.6946,-4.5339,-4.3929,-4.2719,-4.1507,-4.031,-3.9888,-7.1987,-7.1965,-7.7113,-7.929,-7.9651,-8.1049,-8.2984,-8.5255,-8.7112,-8.804,-8.8697,-8.797,-8.6655,-8.5331,-8.4632,-8.3742,-8.2808,-8.236,-8.225,-8.2061,-8.1983,-8.1311,-8.1612,-8.2431,-8.3067,-8.4068,-8.4807,-8.4807,-8.3067,-8.1612,-8.0221,-8.0411,-8.1439,-8.1096,-8.0981,-8.0677,-7.9728,-7.8819,-7.7984,-7.7642,-7.7794,-7.7605,-7.8062,-7.8214,-7.669,-7.5464,-7.4386,-7.2219,-7.0872,-7.0814,-7.0537,-7.0447,-7.1458,-7.1915,-7.2306,-7.3028,-7.3829,-7.3662,-7.2995,-7.2661,-7.1185,-6.8179,-6.7361,-6.5715,-6.4717,-6.3859,-6.3859,-6.3687,-6.3687,-6.3687,-6.4116,-6.4432,-6.5207,-6.6992,-6.945,-7.22,-7.3422,-7.4622,-7.4964,-7.3613,-7.2556,-7.1244,-7.0116,-6.9508,-6.8596,-6.7265,-6.5756,-6.4245,-6.2538,-6.2059,-6.1205,-6.0368,-5.998,-6.0315,-5.9993,-5.9869,-6.1186,-6.2187,-6.3756,-6.5002,-6.6039,-6.6857,-6.7212,-6.5063,-6.0823,-5.5434,-4.9551,-4.7348,-4.6545,-4.4936,-4.3123,-4.2113,-4.0917,-4.0107,-3.9499,-6.9262,-6.9903,-7.422,-7.7335,-7.8876,-7.7422,-7.8425,-8.151,-8.5214,-8.6846,-8.7094,-8.6361,-8.5305,-8.393,-8.3672,-8.3155,-8.2484,-8.2367,-8.1917,-8.1466,-8.1088,-8.0748,-8.0447,-8.0636,-8.1165,-8.0825,-8.1165,-8.2334,-8.0674,-8.0221,-8.0525,-8.0981,-8.159,-8.128,-8.0474,-7.9632,-7.78,-7.5905,-7.4955,-7.4042,-7.3734,-7.296,-7.3734,-7.3888,-7.3424,-7.2063,-7.066,-6.9224,-6.7744,-6.6988,-6.6575,-6.6429,-6.6957,-6.8454,-6.9674,-7.0966,-7.2559,-7.1217,-6.9902,-6.9195,-6.7361,-6.5515,-6.4546,-6.4202,-6.3687,-6.3687,-6.3687,-6.3687,-6.3687,-6.3687,-6.3687,-6.3858,-6.4,-6.5641,-6.7724,-6.9206,-7.0459,-7.1195,-7.1746,-7.1462,-7.0419,-6.9269,-6.8268,-6.7422,-6.6692,-6.5467,-6.4425,-6.2715,-6.2016,-6.1526,-6.1056,-6.0069,-5.9965,-6.0121,-6.0272,-6.0388,-6.1115,-6.164,-6.3198,-6.4376,-6.5748,-6.6831,-6.7073,-6.5853,-6.1899,-5.7628,-5.2502,-4.9331,-4.6746,-4.4332,-4.2517,-4.1321,-4.031,-3.9499,-3.9499,-6.6364,-6.6177,-7.1554,-7.4385,-7.484,-7.4655,-7.6058,-7.8947,-8.19,-8.448,-8.5651,-8.4928,-8.398,-8.3516,-8.3109,-8.2619,-8.2434,-8.2012,-8.1401,-8.121,-8.0752,-8.0372,-8.0183,-8.0183,-8.0335,-8.0753,-8.0829,-8.0829,-8.0676,-8.0829,-8.0791,-8.0905,-8.1208,-8.0956,-7.9484,-7.735,-7.5084,-7.341,-7.18,-7.0693,-7.047,-7.0626,-7.1094,-7.1094,-7.0503,-6.9407,-6.7991,-6.6535,-6.543,-6.5403,-6.5241,-6.5069,-6.5837,-6.6452,-6.6482,-6.6357,-6.729,-6.7068,-6.6317,-6.5886,-6.5373,-6.3687,-6.3859,-6.3687,-6.3687,-6.3687,-6.3687,-6.3687,-6.3687,-6.3687,-6.3687,-6.2826,-6.3139,-6.3396,-6.5295,-6.7031,-6.8339,-6.9024,-6.9699,-6.9705,-6.8946,-6.7642,-6.6596,-6.5788,-6.5196,-6.4016,-6.3203,-6.2416,-6.1656,-6.1473,-6.1317,-6.0666,-6.0484,-6.0354,-6.0327,-6.0608,-6.087,-6.1185,-6.2023,-6.3153,-6.4479,-6.5351,-6.6326,-6.6285,-6.1557,-5.7431,-5.4091,-5.031,-4.6124,-4.3324,-4.1726,-4.0714,-3.9702,-3.9499,-3.9499,-6.5174,-6.4653,-6.922,-7.1149,-7.108,-7.1198,-7.3455,-7.6613,-7.887,-8.1668,-8.4284,-8.389,-8.3169,-8.2658,-8.2127,-8.2204,-8.2275,-8.1664,-8.1246,-8.1133,-8.0525,-8.0145,-8.0183,-8.0373,-8.06,-8.0864,-8.1434,-8.151,-8.0737,-8.1084,-8.0823,-8.0748,-8.1267,-8.0298,-7.7587,-7.5459,-7.1837,-7.0209,-6.8955,-6.7868,-6.7169,-6.7327,-6.7643,-6.7991,-6.7075,-6.6314,-6.5519,-6.4434,-6.3963,-6.4316,-6.4783,-6.486,-6.5612,-6.6038,-6.5747,-6.4943,-6.4458,-6.4341,-6.3886,-6.3343,-6.3171,-6.2826,-6.2654,-6.2826,-6.3171,-6.3199,-6.3515,-6.3687,-6.3687,-6.3687,-6.3543,-6.2854,-6.2337,-6.2766,-6.3102,-6.4803,-6.6135,-6.695,-6.8006,-6.8034,-6.8178,-6.6986,-6.5942,-6.5168,-6.4097,-6.2943,-6.2391,-6.1839,-6.1655,-6.1471,-6.1445,-6.1056,-6.0848,-6.0588,-6.051,-6.09,-6.1134,-6.1447,-6.2098,-6.2205,-6.2544,-6.3337,-6.3721,-6.2509,-5.9596,-5.6642,-5.2878,-4.9311,-4.5321,-4.2315,-4.09,-3.9702,-3.9499,-3.9499,-3.9499,-6.5707,-6.594,-6.7455,-6.8159,-6.8222,-6.7308,-6.9882,-7.414,-7.5905,-7.8848,-8.2439,-8.1917,-8.1323,-8.136,-8.1201,-8.1885,-8.2263,-8.1892,-8.1512,-8.136,-8.0829,-8.0297,-8.0487,-8.0943,-8.1166,-8.0586,-8.1267,-8.1249,-7.9872,-8.015,-8.0197,-8.0271,-7.9569,-7.8621,-7.4537,-7.3426,-7.061,-6.6602,-6.5342,-6.3915,-6.2749,-6.2792,-6.3374,-6.3695,-6.3755,-6.3685,-6.3424,-6.2677,-6.2879,-6.3243,-6.3799,-6.4431,-6.5075,-6.5634,-6.5456,-6.5069,-6.4588,-6.4252,-6.3628,-6.2509,-6.1763,-6.1418,-6.1591,-6.1591,-6.2136,-6.2392,-6.2766,-6.3371,-6.3801,-6.3801,-6.3371,-6.2854,-6.2337,-6.1984,-6.1672,-6.2581,-6.3988,-6.5024,-6.654,-6.7508,-6.7338,-6.6867,-6.5561,-6.4464,-6.3022,-6.2286,-6.1759,-6.1575,-6.1549,-6.1549,-6.1523,-6.1315,-6.1289,-6.1056,-6.0926,-6.1237,-6.1549,-6.1861,-6.1819,-6.1288,-6.1248,-6.0968,-5.9429,-5.7756,-5.5829,-5.4069,-5.1108,-4.8111,-4.4717,-4.1321,-4.0107,-3.9499,-3.9499,-3.9499,-3.9499,-6.5474,-6.5207,-6.6572,-6.722,-6.7228,-6.7538,-6.8356,-6.9758,-7.2564,-7.5578,-7.8109,-7.6945,-7.7476,-7.963,-8.0276,-8.1438,-8.3051,-8.2841,-8.2651,-8.2234,-8.1664,-8.136,-8.1664,-8.1889,-8.1724,-8.2641,-8.2508,-8.0766,-7.8531,-7.8496,-7.7125,-7.5748,-7.5291,-7.4055,-7.0855,-6.834,-6.6246,-6.46,-6.3416,-6.1844,-6.1326,-6.1509,-6.2073,-6.1693,-6.253,-6.2352,-6.1624,-6.1614,-6.1891,-6.2296,-6.243,-6.3067,-6.3812,-6.4356,-6.4082,-6.375,-6.3364,-6.3413,-6.2306,-6.085,-5.9112,-6.0179,-6.0526,-6.0872,-6.1528,-6.2351,-6.2414,-6.2967,-6.3739,-6.417,-6.3715,-6.2816,-6.2058,-6.1829,-6.154,-6.1824,-6.3051,-6.415,-6.5536,-6.6726,-6.66,-6.6292,-6.5013,-6.4097,-6.2838,-6.1918,-6.1759,-6.1575,-6.1575,-6.1575,-6.1575,-6.1575,-6.1575,-6.1445,-6.1367,-6.152,-6.1856,-6.2006,-6.0871,-6.0256,-5.8345,-5.7501,-5.6202,-5.4444,-5.2878,-5.1307,-4.9111,-4.6325,-4.3526,-4.0512,-3.9904,-3.9499,-3.9499,-3.9499,-3.9499,-6.5507,-6.5174,-6.604,-6.6439,-6.6472,-6.6938,-6.7005,-6.7488,-7.0612,-7.308,-7.4324,-7.421,-7.5608,-7.7854,-7.9086,-8.1094,-8.3059,-8.2855,-8.3253,-8.3107,-8.2575,-8.2158,-8.1762,-8.1788,-8.1253,-8.0705,-7.9982,-7.8473,-7.6321,-7.5701,-7.3165,-7.0924,-7.0803,-6.9327,-6.8257,-6.6342,-6.4643,-6.3479,-6.2262,-6.1501,-6.1047,-6.1371,-6.147,-6.0942,-6.2087,-6.1349,-6.0441,-6.0611,-6.0804,-6.1156,-6.1053,-6.1912,-6.2912,-6.3394,-6.2474,-6.0922,-6.0638,-5.9763,-5.8361,-5.595,-5.5426,-5.7721,-5.9312,-5.9312,-5.8469,-6.1241,-6.2113,-6.2726,-6.3505,-6.4252,-6.394,-6.3123,-6.2175,-6.1945,-6.1987,-6.2327,-6.3243,-6.4054,-6.53,-6.6124,-6.6081,-6.5561,-6.4647,-6.373,-6.2654,-6.1733,-6.1733,-6.1575,-6.1575,-6.1575,-6.1575,-6.1575,-6.1575,-6.1471,-6.1835,-6.2012,-6.1973,-6.1137,-6.0133,-5.7668,-5.5101,-5.4202,-5.3077,-5.1287,-4.9711,-4.8311,-4.6526,-4.4332,-4.2315,-4.0512,-3.9702,-3.9499,-3.9499,-3.9499,-3.9094,-6.5773,-6.5773,-6.5773,-6.5693,-6.5792,-6.5659,-6.6091,-6.7071,-6.9897,-7.1178,-7.1669,-7.3272,-7.4347,-7.5932,-7.7683,-7.9462,-8.1176,-8.282,-8.339,-8.3404,-8.2717,-8.2139,-8.1494,-8.0276,-7.8836,-7.7647,-7.689,-7.4891,-7.2694,-7.2563,-6.9133,-6.5886,-6.6991,-6.6198,-6.5657,-6.5198,-6.4,-6.2947,-6.2352,-6.1787,-6.1113,-6.086,-6.0829,-6.05,-6.0305,-6.0025,-5.9157,-5.9348,-5.9783,-6.0246,-6.0164,-6.0757,-6.0635,-6.0868,-5.9345,-5.7561,-5.6724,-5.4854,-5.2523,-5.0547,-5.1208,-5.3873,-5.5651,-5.6201,-5.5322,-5.892,-6.1175,-6.1427,-6.3319,-6.413,-6.4276,-6.3836,-6.3413,-6.3143,-6.2914,-6.3325,-6.3902,-6.4482,-6.4786,-6.5522,-6.5379,-6.4647,-6.373,-6.3022,-6.2102,-6.1733,-6.1575,-6.0995,-6.0995,-5.9305,-5.9861,-6.0071,-6.0256,-6.0747,-6.1155,-6.0809,-5.9451,-5.8379,-5.7062,-5.4489,-5.2376,-5.0628,-4.9711,-4.8331,-4.7911,-4.5522,-4.3526,-4.3123,-4.2315,-4.0512,-3.9499,-3.9499,-3.9499,-3.9499,-3.9094,-6.5773,-6.5773,-6.5773,-6.5629,-6.5612,-6.5711,-6.6059,-6.6847,-6.8359,-6.8823,-6.8994,-7.018,-7.2112,-7.3763,-7.4791,-7.7167,-8.0651,-8.0699,-8.2217,-8.2894,-8.2191,-8.0888,-8.0341,-7.8813,-7.7391,-7.7098,-7.4992,-7.306,-7.0744,-6.841,-6.6228,-6.4202,-6.4546,-6.4031,-6.3859,-6.383,-6.363,-6.2689,-6.2834,-6.2041,-6.1054,-6.0973,-6.0414,-5.9881,-5.968,-5.9783,-5.8816,-5.9084,-5.9179,-5.9273,-5.8938,-5.7998,-5.6979,-5.6904,-5.5429,-5.3216,-5.2051,-4.9883,-4.6766,-4.5908,-4.6798,-4.8221,-4.9817,-5.1969,-5.1936,-5.5835,-5.8758,-5.8542,-6.154,-6.3709,-6.4327,-6.4201,-6.4156,-6.4079,-6.4026,-6.4427,-6.48,-6.4523,-6.459,-6.5003,-6.4647,-6.373,-6.2996,-6.2286,-6.1918,-6.1759,-6.118,-6.0441,-5.8353,-5.5726,-5.5726,-5.5539,-5.5914,-5.6338,-5.6548,-5.6397,-5.6282,-5.5309,-5.3504,-5.1602,-5.0648,-4.9111,-4.7749,-4.6946,-4.6325,-4.4735,-4.3526,-4.2921,-4.2113,-4.0714,-3.9702,-3.9499,-3.9499,-3.9499,-3.9109,-6.5151,-6.5184,-6.5151,-6.5086,-6.5117,-6.5084,-6.5555,-6.6196,-6.7078,-6.7371,-6.7617,-6.8601,-6.9619,-7.1009,-7.2694,-7.4794,-7.7175,-7.8303,-7.9804,-8.0272,-7.9641,-7.8792,-7.8491,-7.6749,-7.5093,-7.4028,-7.2256,-7.0608,-6.9088,-6.6057,-6.4374,-6.4374,-6.3859,-6.3343,-6.2998,-6.2481,-6.2454,-6.2309,-6.1908,-6.0881,-5.9378,-5.8768,-5.8411,-5.7502,-5.9019,-5.9152,-5.8569,-5.8712,-5.8443,-5.69,-5.6725,-5.5125,-5.3441,-5.2547,-5.131,-4.8631,-4.7376,-4.4958,-4.2085,-4.2926,-4.434,-4.5393,-4.5954,-4.7734,-5.0461,-5.347,-5.5546,-5.5121,-5.9293,-6.1766,-6.2341,-6.3774,-6.4697,-6.538,-6.5676,-6.6025,-6.6053,-6.5091,-6.4337,-6.4219,-6.4097,-6.3179,-6.2286,-6.1733,-6.1364,-6.0441,-5.912,-5.7796,-5.5539,-5.3297,-5.2548,-5.2029,-5.2046,-5.2438,-5.266,-5.3051,-5.3464,-5.2673,-5.0827,-5.027,-4.8931,-4.793,-4.6946,-4.6143,-4.5942,-4.5138,-4.3929,-4.3123,-4.2315,-4.1103,-3.9904,-3.9702,-3.9499,-3.9515,-3.8953,-6.3313,-6.3133,-6.361,-6.3887,-6.388,-6.418,-6.4886,-6.5662,-6.6298,-6.6916,-6.7735,-6.8172,-6.8535,-6.9151,-7.1425,-7.2689,-7.4027,-7.5591,-7.7045,-7.8078,-7.708,-7.6481,-7.6054,-7.3761,-7.2456,-7.1113,-6.844,-6.6599,-6.6257,-6.5574,-6.4717,-6.4374,-6.3859,-6.3859,-6.2136,-6.1591,-6.139,-6.0352,-5.9512,-5.7895,-5.5676,-5.5153,-5.5029,-5.5228,-5.6275,-5.7147,-5.6275,-5.5951,-5.5476,-5.3545,-5.3369,-5.1937,-4.964,-4.9086,-4.751,-4.5035,-4.2926,-4.1148,-4.1346,-4.16,-4.252,-4.3658,-4.3405,-4.4872,-4.734,-5.0389,-5.1282,-5.1181,-5.5543,-5.8452,-5.9448,-6.182,-6.4523,-6.5287,-6.5467,-6.6012,-6.681,-6.534,-6.4428,-6.428,-6.3179,-6.247,-6.1918,-6.1364,-6.06,-5.8539,-5.6681,-5.498,-5.311,-5.1963,-5.1024,-4.9875,-4.9487,-4.9858,-5.0229,-5.1012,-5.1012,-5.0189,-4.9311,-4.8912,-4.773,-4.6746,-4.5942,-4.5942,-4.5942,-4.5339,-4.4332,-4.3324,-4.2517,-4.1524,-4.0714,-4.0107,-3.9499,-3.9156,-3.8812,-5.5704,-5.5827,-5.8568,-5.998,-6.067,-6.3082,-6.485,-6.6061,-6.6246,-6.6853,-6.8209,-6.8229,-6.8423,-6.9054,-6.9964,-7.1462,-7.3878,-7.3522,-7.5162,-7.6199,-7.5061,-7.3794,-7.3126,-7.1481,-6.9657,-6.8949,-6.694,-6.6087,-6.5403,-6.4546,-6.3687,-6.3171,-6.2109,-6.1418,-6.0899,-6.0179,-5.8938,-5.7895,-5.7172,-5.5776,-5.3473,-5.2325,-5.1446,-5.1032,-5.1208,-5.1914,-5.2113,-5.2113,-5.1408,-5.0678,-5.0171,-4.9108,-4.6798,-4.6086,-4.4857,-4.2567,-4.1687,-4.1328,-4.1221,-4.1368,-4.1841,-4.2747,-4.2323,-4.3063,-4.4754,-4.5503,-4.614,-4.836,-5.1585,-5.406,-5.5114,-5.6487,-5.8885,-6.1473,-6.3171,-6.3892,-6.5031,-6.5196,-6.428,-6.3363,-6.247,-6.1918,-6.1733,-6.118,-5.9305,-5.7425,-5.5166,-5.3297,-4.9917,-4.8974,-4.8511,-4.7391,-4.7091,-4.7638,-4.8226,-4.8955,-4.8677,-4.8111,-4.773,-4.7529,-4.6727,-4.5942,-4.5942,-4.5942,-4.5942,-4.5741,-4.4936,-4.3929,-4.2921,-4.2113,-4.1321,-4.031,-3.9125,-3.8562,-3.8118,-5.434,-5.3329,-5.6804,-5.7474,-5.7147,-6.0102,-6.2155,-6.2683,-6.325,-6.4962,-6.6648,-6.6093,-6.6626,-6.8764,-6.9458,-7.0357,-7.1495,-7.1289,-7.2014,-7.2927,-7.217,-7.1145,-7.0808,-6.9488,-6.8301,-6.7621,-6.6428,-6.5403,-6.4575,-6.3859,-6.3343,-6.2136,-6.1245,-6.0553,-5.9859,-5.7921,-5.6176,-5.5101,-5.3673,-5.1737,-4.9086,-4.8554,-4.8,-4.8022,-4.8731,-4.944,-4.9617,-4.9617,-4.8909,-4.7844,-4.7489,-4.5908,-4.4141,-4.3266,-4.2747,-4.1687,-4.1328,-4.1148,-4.1203,-4.1294,-4.1497,-4.1533,-4.1809,-4.2139,-4.2268,-4.2378,-4.3396,-4.5311,-4.774,-5.0189,-5.1176,-5.3395,-5.5522,-5.8094,-6.0135,-6.1578,-6.2679,-6.352,-6.3179,-6.247,-6.1918,-6.1733,-6.1575,-6.0256,-5.8168,-5.5912,-5.3672,-5.0293,-4.6348,-4.5798,-4.5628,-4.5076,-4.5152,-4.5568,-4.6098,-4.6864,-4.689,-4.6526,-4.6344,-4.6344,-4.5942,-4.5942,-4.5942,-4.5942,-4.5741,-4.5741,-4.5138,-4.4332,-4.3324,-4.2315,-4.1524,-4.0326,-3.8937,-3.7649,-3.7272,-5.3606,-5.152,-5.5337,-5.5206,-5.3113,-5.7105,-5.8778,-5.8337,-5.8975,-6.1317,-6.4279,-6.2333,-6.3585,-6.6961,-6.866,-6.9379,-6.9704,-6.9622,-6.9236,-6.9155,-6.9489,-6.935,-6.9319,-6.8301,-6.7451,-6.674,-6.5202,-6.383,-6.3343,-6.3171,-6.2309,-6.1618,-6.0206,-5.9138,-5.7398,-5.5125,-5.2994,-5.1584,-4.9994,-4.7844,-4.5571,-4.4857,-4.4678,-4.4857,-4.6264,-4.7332,-4.7688,-4.7866,-4.7154,-4.5035,-4.4678,-4.3445,-4.2028,-4.1507,-4.1507,-4.1148,-4.1148,-4.1221,-4.1331,-4.1187,-4.1224,-4.1333,-4.1314,-4.1496,-4.1514,-4.1586,-4.1568,-4.2581,-4.4202,-4.6123,-4.718,-4.9064,-5.2149,-5.4538,-5.6489,-5.8476,-5.9919,-6.0734,-6.1154,-6.06,-6.1364,-6.1575,-6.118,-6.023,-5.7611,-5.498,-5.3087,-5.0105,-4.5968,-4.4278,-4.3972,-4.3781,-4.3572,-4.4087,-4.4638,-4.5391,-4.5924,-4.5905,-4.5942,-4.5942,-4.5942,-4.5942,-4.5942,-4.5942,-4.5741,-4.554,-4.5138,-4.4735,-4.3526,-4.2113,-4.1321,-4.0528,-3.8842,-3.736,-3.6786,-4.6737,-4.6629,-5.1163,-5.1545,-5.0147,-5.571,-5.727,-5.5411,-5.5406,-5.6512,-5.7072,-5.7465,-5.9505,-6.283,-6.4054,-6.6308,-6.7927,-6.8367,-6.7912,-6.7432,-6.8235,-6.8162,-6.7791,-6.711,-6.6057,-6.3114,-6.2253,-6.1763,-6.1591,-6.1245,-6.0899,-5.9512,-5.7572,-5.615,-5.4424,-5.1761,-4.9462,-4.7688,-4.6442,-4.4678,-4.2567,-4.2208,-4.2208,-4.2208,-4.3106,-4.3285,-4.3445,-4.3285,-4.2567,-4.1867,-4.1867,-4.1507,-4.1328,-4.1148,-4.1148,-4.1148,-4.1184,-4.1331,-4.137,-4.1149,-4.0919,-4.1346,-4.082,-4.0258,-4.0254,-3.9941,-3.9881,-3.9854,-4.0113,-4.1152,-4.1789,-4.4107,-4.6505,-4.9474,-5.1195,-5.3983,-5.7231,-5.8143,-5.7982,-5.7982,-5.9305,-6.0441,-6.0626,-6.0046,-5.6843,-5.4023,-5.2713,-5.046,-4.6158,-4.3744,-4.3892,-4.3738,-4.3848,-4.4234,-4.4821,-4.5501,-4.5832,-4.5887,-4.5942,-4.5942,-4.5942,-4.5942,-4.5942,-4.5942,-4.554,-4.5138,-4.4735,-4.4421,-4.3428,-4.1928,-4.078,-3.972,-3.8619,-3.7096,-3.6007,-4.5967,-4.4087,-4.9448,-4.918,-4.6509,-5.1221,-5.3025,-5.1938,-5.1798,-5.3428,-5.5333,-5.4148,-5.6124,-5.9952,-6.0166,-6.0608,-6.2186,-6.3465,-6.4597,-6.5411,-6.5837,-6.6057,-6.5515,-6.4831,-6.3802,-6.1908,-6.1045,-6.0872,-6.0899,-6.0726,-5.9486,-5.7224,-5.5976,-5.3697,-5.1584,-4.8731,-4.662,-4.5194,-4.3963,-4.2567,-4.1507,-4.1148,-4.1148,-4.1148,-4.1148,-4.1148,-4.1148,-4.1148,-4.1148,-4.1148,-4.1328,-4.1148,-4.1148,-4.1148,-4.1148,-4.1203,-4.1313,-4.1388,-4.1023,-4.0794,-4.0557,-4.0324,-3.9609,-3.9371,-3.92,-3.8842,-3.8517,-3.8449,-3.8398,-3.8613,-3.9697,-4.0634,-4.1989,-4.5069,-4.7498,-5.0038,-5.2084,-5.2526,-5.2735,-5.4793,-5.7191,-5.8699,-5.9305,-5.8749,-5.6098,-5.3462,-5.1963,-4.9163,-4.502,-4.3609,-4.3756,-4.3903,-4.405,-4.4436,-4.5023,-4.5428,-4.5777,-4.5887,-4.5924,-4.5942,-4.5942,-4.5942,-4.5741,-4.554,-4.5138,-4.4735,-4.4254,-4.399,-4.3247,-4.1789,-4.0412,-3.9121,-3.8039,-3.6974,-3.5617,-4.6467,-4.3015,-4.8359,-4.7522,-4.4004,-4.7442,-4.899,-4.835,-4.8184,-5.0172,-5.2453,-5.1041,-5.2367,-5.6125,-5.5922,-5.6017,-5.6777,-5.8679,-6.0328,-6.2251,-6.3111,-6.2942,-6.0299,-6.0499,-5.9459,-5.8765,-5.9312,-5.9312,-5.8617,-5.7895,-5.7372,-5.4224,-5.2818,-5.1561,-4.8554,-4.5928,-4.4499,-4.3963,-4.2388,-4.1328,-4.1148,-4.1148,-4.1148,-4.1148,-4.1148,-4.1148,-4.1148,-4.1148,-4.1148,-4.1148,-4.1148,-4.1148,-4.1148,-4.1148,-4.1148,-4.1221,-4.1315,-4.1023,-4.045,-4.0196,-3.9864,-3.9134,-3.8543,-3.8158,-3.8091,-3.7755,-3.7554,-3.7702,-3.7702,-3.7621,-3.8106,-3.9364,-4.0911,-4.2275,-4.4847,-4.6509,-4.5963,-4.5469,-4.6539,-4.9622,-5.305,-5.6142,-5.7029,-5.7796,-5.6681,-5.2923,-5.0293,-4.7464,-4.5457,-4.3837,-4.3774,-4.3885,-4.4197,-4.4785,-4.5262,-4.5501,-4.5777,-4.5905,-4.5924,-4.5942,-4.5942,-4.5942,-4.554,-4.5138,-4.4753,-4.407,-4.3364,-4.2908,-4.2276,-4.1268,-4.0052,-3.8587,-3.7313,-3.6651,-3.5628,-4.5506,-4.4896,-4.7421,-4.6234,-4.382,-4.7419,-4.7497,-4.5061,-4.5083,-4.5572,-4.645,-4.6346,-4.8229,-5.0724,-5.1132,-5.2432,-5.4369,-5.5202,-5.7383,-5.9001,-6.0699,-5.8886,-5.3298,-5.4375,-5.3873,-5.2794,-5.635,-5.5276,-5.3322,-5.3873,-5.2818,-5.0678,-4.7866,-4.6264,-4.5393,-4.3266,-4.1867,-4.1849,-4.1328,-4.1328,-4.1148,-4.1148,-4.1148,-4.1148,-4.1148,-4.1148,-4.1148,-4.1148,-4.1148,-4.1148,-4.1148,-4.1148,-4.1148,-4.1148,-4.1148,-4.1041,-4.0642,-4.045,-4.0381,-3.9423,-3.853,-3.8464,-3.7452,-3.6603,-3.6468,-3.633,-3.6121,-3.6121,-3.571,-3.5955,-3.6432,-3.7707,-3.9502,-4.1025,-4.2142,-4.1631,-3.9079,-3.7281,-3.8118,-4.2184,-4.8023,-5.2734,-5.6256,-5.8749,-5.8934,-5.3297,-5.1024,-4.7842,-4.5058,-4.3947,-4.3921,-4.4013,-4.4509,-4.5115,-4.5354,-4.5575,-4.5777,-4.5924,-4.5924,-4.554,-4.554,-4.5138,-4.4936,-4.4789,-4.4087,-4.3178,-4.2517,-4.1473,-4.0828,-3.9875,-3.9007,-3.7697,-3.6555,-3.6064,-3.5581,-4.6347,-4.3891,-4.5917,-4.5183,-4.3289,-4.5035,-4.5158,-4.4224,-4.4119,-4.4496,-4.4952,-4.4898,-4.5632,-4.7154,-4.6312,-4.6733,-4.7786,-4.9215,-5.0505,-5.1867,-5.4326,-5.3298,-5.0855,-5.0502,-5.0701,-4.9971,-5.2113,-5.1761,-5.0171,-5.0701,-4.9817,-4.7332,-4.5908,-4.4499,-4.3086,-4.1687,-4.1328,-4.1148,-4.1148,-4.1148,-4.1148,-4.1148,-4.1148,-4.1148,-4.1148,-4.1148,-4.1148,-4.1148,-4.1148,-4.1148,-4.1148,-4.1148,-4.1148,-4.0769,-4.0229,-4.0247,-3.9907,-3.9554,-3.9236,-3.8974,-3.8497,-3.7877,-3.705,-3.6373,-3.6152,-3.5852,-3.5631,-3.5631,-3.5814,-3.5647,-3.5814,-3.6298,-3.7924,-3.9574,-3.9371,-3.7257,-3.3873,-3.2791,-3.4549,-3.8895,-4.4259,-4.9614,-5.3745,-5.7029,-5.6285,-5.3672,-5.14,-4.7842,-4.4696,-4.4479,-4.416,-4.4307,-4.4674,-4.5134,-4.5446,-4.5485,-4.5686,-4.5723,-4.5741,-4.5138,-4.4735,-4.3728,-4.3929,-4.4184,-4.3161,-4.233,-4.1349,-4.0336,-3.9439,-3.8563,-3.7735,-3.6795,-3.6189,-3.5636,-3.5146,-4.6007,-4.235,-4.3757,-4.3563,-4.2314,-4.2747,-4.3118,-4.3406,-4.3427,-4.367,-4.4327,-4.4033,-4.419,-4.434,-4.3227,-4.2406,-4.3304,-4.4698,-4.5194,-4.5551,-4.6976,-4.7332,-4.7332,-4.8043,-4.8043,-4.751,-4.8909,-4.8731,-4.751,-4.8043,-4.6976,-4.432,-4.3982,-4.3086,-4.1507,-4.1328,-4.1148,-4.1148,-4.1148,-4.1148,-4.1148,-4.1148,-4.1148,-4.1148,-4.1148,-4.1148,-4.1148,-4.1148,-4.1148,-4.1148,-4.0967,-4.0769,-4.0589,-3.9868,-3.931,-3.9252,-3.9077,-3.861,-3.82,-3.816,-3.8102,-3.7448,-3.6815,-3.65,-3.6421,-3.6152,-3.6026,-3.5994,-3.59,-3.5484,-3.4671,-3.4989,-3.5933,-3.7069,-3.5393,-3.2605,-2.9782,-2.8337,-2.9563,-3.4917,-3.9883,-4.5928,-5.083,-5.4419,-5.498,-5.2713,-5.0084,-4.6916,-4.4734,-4.3866,-4.4252,-4.4472,-4.4821,-4.5207,-4.5339,-4.5376,-4.5522,-4.554,-4.4936,-4.4332,-4.3526,-4.2921,-4.3324,-4.3324,-4.2299,-4.1358,-4.0225,-3.9261,-3.8248,-3.7357,-3.6654,-3.63,-3.5718,-3.5265,-3.4759,-4.3216,-4.0333,-4.0688,-4.0972,-4.0925,-4.1467,-4.1666,-4.1576,-4.1745,-4.2002,-4.2478,-4.2721,-4.263,-4.2351,-4.2434,-4.2047,-4.1867,-4.3803,-4.4857,-4.4499,-4.3266,-4.2567,-4.2926,-4.4678,-4.4499,-4.3445,-4.6798,-4.6463,-4.2926,-4.4499,-4.4161,-4.2028,-4.1867,-4.1328,-4.1328,-4.1148,-4.1148,-4.1148,-4.1148,-4.1148,-4.1148,-4.1148,-4.1148,-4.1148,-4.1148,-4.1148,-4.1148,-4.1148,-4.1148,-4.1148,-4.0409,-3.9851,-3.949,-3.8769,-3.8244,-3.8148,-3.804,-3.763,-3.7671,-3.7432,-3.732,-3.6878,-3.6721,-3.6752,-3.6312,-3.6218,-3.6357,-3.6357,-3.6089,-3.4594,-3.2476,-3.3147,-3.4076,-3.2818,-3.1189,-2.8545,-2.5094,-2.1594,-2.4324,-3.0139,-3.4323,-4.0055,-5.0729,-5.2338,-5.2526,-5.1588,-4.9352,-4.6537,-4.4372,-4.394,-4.4289,-4.4674,-4.5079,-4.5229,-4.5121,-4.5119,-4.4717,-4.4534,-4.3728,-4.314,-4.2332,-4.2534,-4.2921,-4.1945,-4.1031,-4.013,-3.9415,-3.8636,-3.7843,-3.657,-3.5848,-3.5518,-3.5092,-3.4813,-3.444,-4.2953,-4.0504,-4.0241,-4.0339,-4.0632,-4.075,-4.1152,-4.1388,-4.1408,-4.1644,-4.2076,-4.1816,-4.1891,-4.1959,-4.1859,-4.1507,-4.1328,-4.2208,-4.2728,-4.2567,-4.1507,-4.1328,-4.1507,-4.2388,-4.2028,-4.1867,-4.3266,-4.3106,-4.1328,-4.2208,-4.2208,-4.1328,-4.1148,-4.1148,-4.1148,-4.1148,-4.1148,-4.1148,-4.1148,-4.1148,-4.1148,-4.1148,-4.1148,-4.1148,-4.1148,-4.1148,-4.1148,-4.1148,-4.1148,-4.0967,-4.0229,-3.8949,-3.7849,-3.6961,-3.6335,-3.5862,-3.5363,-3.5172,-3.54,-3.562,-3.5433,-3.5505,-3.569,-3.5885,-3.5824,-3.6532,-3.6705,-3.6673,-3.6389,-3.5627,-3.4049,-3.3464,-3.1683,-2.9807,-2.8647,-2.7034,-2.394,-2.0365,-2.2016,-2.8399,-3.3178,-3.9695,-4.6698,-4.9729,-4.9708,-4.9352,-4.7085,-4.4468,-4.4218,-4.4068,-4.4399,-4.4766,-4.5028,-4.4994,-4.4864,-4.4534,-4.3929,-4.3123,-4.2332,-4.1726,-4.1321,-4.1726,-4.1726,-4.0731,-4.0016,-3.9105,-3.7671,-3.7327,-3.6917,-3.6105,-3.4998,-3.4799,-3.4759,-3.4282,-3.4269,-4.2477,-4.0102,-3.9648,-3.9705,-3.9954,-3.9974,-4.0295,-4.0564,-4.0564,-4.0718,-4.1065,-4.0892,-4.094,-4.1277,-4.1267,-4.1148,-4.1148,-4.1148,-4.1148,-4.1328,-4.1328,-4.1148,-4.1148,-4.1328,-4.1148,-4.1148,-4.1148,-4.1328,-4.1148,-4.1328,-4.1148,-4.1148,-4.1148,-4.1148,-4.1148,-4.1148,-4.1148,-4.1148,-4.1148,-4.1148,-4.1148,-4.1148,-4.1148,-4.1148,-4.1148,-4.1148,-4.1148,-4.0967,-4.0607,-4.0247,-3.931,-3.7849,-3.604,-3.4969,-3.4396,-3.398,-3.358,-3.3541,-3.383,-3.4149,-3.4545,-3.4486,-3.4621,-3.5074,-3.5529,-3.6008,-3.6562,-3.702,-3.6657,-3.5829,-3.4959,-3.3339,-3.1318,-2.7437,-2.617,-2.4179,-2.071,-1.8599,-2.1202,-2.7436,-3.0806,-3.6008,-4.2954,-4.4222,-4.4583,-4.6119,-4.464,-4.2946,-4.2845,-4.3104,-4.3553,-4.416,-4.4289,-4.4102,-4.3658,-4.3324,-4.2517,-4.1507,-4.0917,-4.0512,-4.031,-4.0512,-4.031,-3.9546,-3.8858,-3.7814,-3.6152,-3.5313,-3.527,-3.4636,-3.4348,-3.4176,-3.4176,-3.415,-3.4097,-4.0809,-3.8969,-3.8704,-3.8818,-3.8837,-3.8818,-3.8704,-3.8874,-3.8892,-3.908,-3.9228,-3.9586,-4.0128,-4.0137,-4.0995,-4.1148,-4.1148,-4.1148,-4.1148,-4.1148,-4.1148,-4.1148,-4.1148,-4.1148,-4.1148,-4.1148,-4.1148,-4.1148,-4.1148,-4.1148,-4.1148,-4.1148,-4.1148,-4.1148,-4.1148,-4.1148,-4.1148,-4.1148,-4.1148,-4.1148,-4.1148,-4.1148,-4.1148,-4.1148,-4.1148,-4.1148,-4.1148,-4.0229,-3.931,-3.8407,-3.7307,-3.5859,-3.4243,-3.3153,-3.257,-3.2704,-3.3207,-3.3526,-3.3626,-3.3929,-3.4101,-3.4015,-3.4019,-3.4342,-3.5238,-3.5514,-3.6055,-3.6925,-3.6563,-3.5424,-3.3595,-3.464,-3.3546,-2.6548,-2.3802,-2.0894,-1.7594,-1.6302,-1.8632,-2.3907,-2.6218,-2.9756,-3.6715,-3.8851,-3.9649,-4.2891,-4.2547,-4.1038,-4.1855,-4.1874,-4.2012,-4.2735,-4.3046,-4.3099,-4.2634,-4.1911,-4.09,-3.9904,-3.9702,-3.9499,-3.9296,-3.8891,-3.8688,-3.8282,-3.7589,-3.6832,-3.5173,-3.4719,-3.4468,-3.4079,-3.4043,-3.3926,-3.3899,-3.3873,-3.3873,-4.0378,-3.8468,-3.8594,-3.8723,-3.8723,-3.8723,-3.8723,-3.8723,-3.8723,-3.8723,-3.887,-3.9568,-3.9935,-4.0064,-4.0799,-4.1148,-4.1148,-4.1148,-4.1148,-4.1148,-4.1148,-4.1148,-4.1148,-4.1148,-4.1148,-4.1148,-4.1148,-4.1148,-4.1148,-4.1148,-4.1148,-4.1148,-4.1148,-4.1148,-4.1148,-4.0409,-4.0589,-4.0967,-4.0409,-4.0589,-4.1148,-4.1148,-4.1148,-4.1148,-4.1148,-4.1148,-4.1148,-3.9688,-3.8588,-3.8046,-3.6056,-3.4424,-3.3713,-3.2243,-3.1289,-3.0842,-3.0978,-3.1155,-3.1454,-3.1753,-3.2026,-3.1644,-3.2269,-3.2838,-3.3132,-3.4575,-3.5302,-3.5966,-3.6484,-3.6821,-3.5487,-3.6172,-3.5297,-3.1033,-2.6826,-2.4287,-2.3471,-2.0419,-2.1295,-2.5234,-2.6726,-3.0938,-3.7927,-3.6585,-3.7544,-4.1211,-4.1229,-4.0464,-4.095,-4.1188,-4.1685,-4.2019,-4.2087,-4.2095,-4.1408,-4.0431,-3.942,-3.9062,-3.8891,-3.8485,-3.8297,-3.747,-3.7048,-3.6642,-3.6061,-3.5507,-3.4787,-3.4336,-3.3951,-3.3499,-3.3451,-3.3636,-3.3609,-3.357,-3.231,-3.913,-3.7933,-3.8484,-3.8723,-3.8723,-3.8723,-3.8723,-3.8723,-3.8723,-3.8723,-3.8833,-3.9421,-3.9788,-3.9954,-4.0486,-4.0707,-4.0707,-4.0707,-4.0707,-4.0707,-4.0707,-4.0707,-4.0725,-4.0854,-4.0927,-4.0945,-4.1074,-4.1148,-4.1148,-4.1148,-4.1148,-4.1148,-4.1148,-4.0967,-4.0589,-4.0031,-3.9851,-4.0049,-3.9508,-3.9688,-4.0589,-4.0589,-4.0409,-4.0229,-3.9868,-3.9508,-3.967,-3.7702,-3.6599,-3.6237,-3.4061,-3.2621,-3.2243,-3.115,-3.0204,-2.9917,-2.9957,-3.0089,-3.0366,-3.0577,-3.0577,-3.0432,-3.105,-3.1574,-3.2111,-3.3468,-3.4624,-3.5111,-3.6576,-3.6894,-3.6188,-3.6212,-3.5145,-3.1526,-2.7523,-2.482,-2.4554,-2.1944,-2.1049,-2.5354,-2.6895,-2.9358,-3.4443,-3.5063,-3.5256,-3.8566,-3.9333,-3.9525,-3.9817,-4.0008,-4.0375,-4.0738,-4.1241,-4.1123,-3.9915,-3.8906,-3.816,-3.8003,-3.7876,-3.747,-3.7266,-3.6642,-3.6032,-3.5625,-3.5436,-3.4649,-3.4064,-3.3585,-3.3585,-3.3148,-3.3201,-3.3346,-3.3306,-3.328,-3.1619,-3.7106,-3.7565,-3.8337,-3.8668,-3.8723,-3.8723,-3.8723,-3.8723,-3.8723,-3.8723,-3.8778,-3.9145,-3.9531,-3.9706,-3.9742,-3.976,-3.9779,-3.964,-3.964,-3.9834,-3.9815,-3.9779,-3.9779,-4.0303,-4.0486,-4.0523,-4.0835,-4.1037,-4.1092,-4.1129,-4.1148,-4.1148,-4.0967,-4.0589,-3.967,-3.949,-3.9129,-3.8605,-3.8407,-3.8786,-3.949,-3.949,-3.8769,-3.8227,-3.7323,-3.6945,-3.6583,-3.4787,-3.3516,-3.2592,-3.1515,-3.0617,-2.9691,-2.9691,-2.9811,-2.9878,-2.9931,-3.0049,-3.0274,-3.0353,-3.0353,-3.0313,-3.0128,-3.0448,-3.1529,-3.2548,-3.3448,-3.4788,-3.558,-3.5734,-3.4943,-3.476,-3.3038,-2.8596,-2.4689,-2.2567,-2.204,-2.0373,-2.0643,-2.4261,-2.6093,-2.8118,-3.081,-3.2009,-3.3938,-3.6278,-3.7431,-3.7623,-3.8247,-3.8296,-3.8536,-3.9103,-3.9097,-3.8562,-3.7546,-3.682,-3.6364,-3.6337,-3.6642,-3.6032,-3.6032,-3.5829,-3.5422,-3.4825,-3.4417,-3.4023,-3.3411,-3.3016,-3.3029,-3.3056,-3.3122,-3.3122,-3.3122,-3.3042,-3.0984,-3.6702,-3.7106,-3.7621,-3.8172,-3.8704,-3.8723,-3.8723,-3.8723,-3.8723,-3.8723,-3.876,-3.9127,-3.9021,-3.8439,-3.8439,-3.86,-3.8658,-3.8168,-3.8168,-3.885,-3.885,-3.9218,-3.976,-4.0045,-3.9925,-4.01,-4.0229,-4.0413,-4.0707,-4.0982,-4.0769,-4.0229,-4.0049,-3.967,-3.8769,-3.7866,-3.7702,-3.8227,-3.7521,-3.7702,-3.8227,-3.6599,-3.5694,-3.6056,-3.5875,-3.5694,-3.5694,-3.3879,-3.2789,-3.241,-3.0786,-2.9874,-2.9509,-2.9509,-2.9548,-2.9627,-2.9641,-2.9667,-2.9746,-2.9957,-2.9983,-2.9799,-2.9904,-3.0089,-3.0365,-3.1157,-3.2278,-3.314,-3.442,-3.4019,-3.1838,-3.1526,-2.9824,-2.5826,-2.1537,-2.0751,-2.3344,-2.2088,-2.2739,-2.7576,-2.9141,-3.0386,-2.9458,-2.9664,-3.1223,-3.453,-3.5315,-3.57,-3.6501,-3.6925,-3.7142,-3.8147,-3.7906,-3.7181,-3.6234,-3.5583,-3.5902,-3.5917,-3.5422,-3.5029,-3.5015,-3.4213,-3.3615,-3.401,-3.3615,-3.3207,-3.2594,-3.2594,-3.2812,-3.3003,-3.2825,-3.2634,-3.2186,-3.0526,-2.8263,-3.5737,-3.642,-3.6673,-3.7235,-3.7774,-3.7973,-3.7857,-3.7688,-3.7857,-3.7857,-3.7554,-3.7767,-3.7531,-3.7189,-3.7189,-3.7294,-3.733,-3.6829,-3.7002,-3.7348,-3.7521,-3.7694,-3.8248,-3.872,-3.8809,-3.8618,-3.9495,-3.9695,-3.9755,-4.0346,-4.0296,-3.9726,-3.9726,-3.9192,-3.8318,-3.7426,-3.7135,-3.7449,-3.6027,-3.5766,-3.637,-3.4687,-3.4044,-3.4405,-3.4,-3.3516,-3.3334,-3.2061,-3.1332,-3.115,-3.0239,-2.9509,-2.9509,-2.9509,-2.9509,-2.9509,-2.9509,-2.9509,-2.9509,-2.968,-2.9654,-2.9364,-2.9614,-2.9654,-2.939,-3.0516,-3.1486,-3.2171,-3.2135,-3.154,-2.9758,-2.8028,-2.6172,-2.3637,-1.9938,-1.8938,-2.2964,-2.2499,-2.3566,-2.8322,-3.0964,-3.1622,-3.103,-3.045,-3.1416,-3.3566,-3.4352,-3.4737,-3.5315,-3.5851,-3.6165,-3.639,-3.5732,-3.5127,-3.4711,-3.4373,-3.4282,-3.4546,-3.4335,-3.4023,-3.3806,-3.3411,-3.3003,-3.3003,-3.3207,-3.2799,-3.1548,-3.0947,-3.0333,-2.8684,-2.8889,-2.9094,-2.9094,-2.7444,-2.4923,-3.442,-3.5361,-3.5432,-3.5855,-3.6508,-3.6879,-3.6699,-3.6039,-3.6769,-3.66,-3.5666,-3.57,-3.5717,-3.5598,-3.5768,-3.5802,-3.5683,-3.5649,-3.5666,-3.5853,-3.5819,-3.5819,-3.6228,-3.7206,-3.7363,-3.6881,-3.839,-3.8899,-3.8622,-3.9182,-3.9724,-3.9935,-3.9586,-3.9079,-3.8168,-3.7309,-3.6582,-3.5994,-3.384,-3.2975,-3.344,-3.299,-3.2619,-3.2619,-3.1108,-3.0353,-3.0312,-2.9794,-2.943,-2.9443,-2.9416,-2.943,-2.9416,-2.9416,-2.943,-2.9416,-2.9416,-2.943,-2.943,-2.9456,-2.9377,-2.9153,-2.9337,-2.9377,-2.9333,-3.009,-3.1053,-3.1442,-2.9559,-2.8451,-2.8583,-2.4754,-2.191,-2.0755,-1.7916,-1.73,-1.9959,-2.1259,-2.3112,-2.7139,-2.9668,-3.1982,-3.2918,-3.2574,-3.2781,-3.3773,-3.3773,-3.3966,-3.4352,-3.496,-3.5167,-3.4174,-3.358,-3.3141,-3.3042,-3.2514,-3.2584,-3.2663,-3.2739,-3.3021,-3.3048,-3.3074,-3.2963,-3.2884,-3.2924,-3.1688,-2.9636,-2.7787,-2.7152,-2.5486,-2.4289,-2.3508,-2.333,-2.2892,-2.136,-3.3963,-3.4226,-3.4502,-3.4709,-3.4898,-3.5295,-3.545,-3.5318,-3.5593,-3.4873,-3.3307,-3.3789,-3.3937,-3.3511,-3.42,-3.4195,-3.3913,-3.3775,-3.4116,-3.4814,-3.4985,-3.5326,-3.6006,-3.6245,-3.6297,-3.6126,-3.6536,-3.7259,-3.804,-3.8248,-3.8756,-3.9549,-3.8518,-3.7292,-3.6239,-3.5344,-3.4849,-3.4384,-3.043,-2.8278,-2.7904,-2.7613,-2.7295,-2.6596,-2.6121,-2.5978,-2.5978,-2.7765,-2.8849,-2.8849,-2.8849,-2.8849,-2.8849,-2.8849,-2.8849,-2.8849,-2.8849,-2.8849,-2.8863,-2.906,-2.9166,-2.91,-2.9153,-2.9166,-2.9126,-2.9545,-3.0212,-3.0744,-2.8698,-2.6185,-2.4039,-2.1043,-1.7759,-1.4685,-1.3488,-1.3759,-1.4518,-1.8593,-2.1936,-2.3094,-2.7664,-3.1111,-3.1534,-3.1681,-3.1816,-3.2022,-3.2036,-3.2408,-3.2988,-3.3359,-3.3181,-3.2408,-3.2602,-3.2532,-3.2036,-3.1777,-3.1922,-3.2172,-3.2291,-3.2357,-3.2396,-3.2541,-3.2445,-3.2256,-3.2458,-3.0625,-2.8565,-2.743,-2.5784,-2.306,-2.2071,-2.2523,-2.2436,-2.0943,-1.8157,-3.1819,-3.2491,-3.2833,-3.3176,-3.3829,-3.4031,-3.3888,-3.3724,-3.3741,-3.2967,-3.2,-3.2307,-3.2482,-3.2323,-3.0972,-3.1,-3.2178,-2.9417,-2.9146,-3.0655,-2.9456,-2.91,-2.96,-2.9969,-2.9898,-2.9742,-3.2117,-3.3599,-3.3791,-3.4294,-3.4973,-3.5326,-3.3248,-3.186,-3.1338,-2.9932,-2.9479,-2.9603,-2.6641,-2.4909,-2.4706,-2.4823,-2.4546,-2.4035,-2.4159,-2.4227,-2.4216,-2.6331,-2.7557,-2.7557,-2.7906,-2.8256,-2.8256,-2.8375,-2.8388,-2.8283,-2.8493,-2.8586,-2.8454,-2.8731,-2.8836,-2.8718,-2.8942,-2.8942,-2.8546,-2.8993,-2.9673,-3.018,-2.6745,-2.3996,-2.2335,-1.8084,-1.4403,-1.205,-1.196,-1.2002,-1.2531,-1.6355,-1.9838,-2.1558,-2.5692,-2.9138,-3.0801,-3.0959,-3.1091,-3.1236,-3.1262,-3.1443,-3.2022,-3.2215,-3.1869,-3.1615,-3.1729,-3.1977,-3.1841,-3.1711,-3.1763,-3.1895,-3.2027,-3.2106,-3.2133,-3.0616,-3.0328,-3.014,-2.8724,-2.6906,-2.3688,-2.3181,-2.1567,-1.9236,-1.8242,-1.8264,-1.8338,-1.7099,-1.5172,-2.9402,-3.0699,-3.0859,-3.153,-3.2611,-3.2773,-3.2463,-3.2048,-3.1375,-3.125,-3.115,-3.0445,-3.0431,-3.0821,-2.6985,-2.681,-2.9289,-2.436,-2.3277,-2.5546,-2.3308,-2.2107,-2.2097,-2.2756,-2.2658,-2.2319,-2.6878,-2.8728,-2.8265,-2.8993,-2.9459,-2.9459,-2.7229,-2.6034,-2.568,-2.4141,-2.2881,-2.2208,-2.2161,-2.2027,-2.2038,-2.2401,-2.251,-2.2532,-2.2568,-2.2848,-2.2976,-2.469,-2.5705,-2.5668,-2.6521,-2.6862,-2.7046,-2.724,-2.7451,-2.7426,-2.7832,-2.819,-2.7992,-2.8203,-2.8269,-2.8137,-2.8559,-2.8343,-2.724,-2.79,-2.859,-2.8727,-2.4021,-2.1101,-2.1484,-1.5968,-1.2114,-1.1849,-1.1918,-1.1944,-1.1849,-1.4884,-1.7736,-1.9975,-2.3366,-2.6625,-2.9277,-2.9987,-3.0359,-3.1131,-3.1223,-3.1262,-3.1456,-3.1262,-3.1368,-3.1539,-3.1032,-3.0798,-3.0368,-3.0653,-2.9673,-3.0311,-3.0081,-2.9945,-2.9809,-2.8046,-2.6864,-2.6664,-2.4872,-2.2069,-1.9071,-1.7863,-1.6842,-1.427,-1.368,-1.349,-1.3523,-1.3077,-1.2418,-2.8761,-2.9096,-2.9898,-3.0249,-3.0471,-3.1114,-3.1321,-3.1192,-2.9572,0.0,0.0,-2.6793,-2.5654,-2.5215,-2.3053,-2.2197,-2.226,-2.1914,-2.2092,-2.2471,-2.2135,-2.18,-2.18,-2.1925,-2.1903,-2.1903,-2.2729,-2.3575,-2.4255,-2.4291,-2.4805,-2.5461,-2.5127,-2.4458,-2.3633,-2.2628,-1.9129,-1.36,-1.6039,-1.7174,-1.6519,-1.7208,-1.7561,-1.757,-1.7604,-1.7888,-1.8415,-2.0891,-2.2296,-2.2097,-2.2249,-2.2577,-2.3254,-2.4108,-2.4775,-2.5379,-2.6122,-2.6595,-2.6779,-2.6845,-2.7056,-2.7478,-2.761,-2.6641,-2.3905,-2.4425,-2.4938,-2.5209,-2.0192,-1.7831,-1.9985,-1.5117,-1.1743,-1.1722,-1.1737,-1.1743,-1.1904,-1.4293,-1.6317,-1.7254,-2.009,-2.3128,-2.6008,-2.6907,-2.8154,-3.0333,-3.1104,-3.1262,-3.1262,-3.1056,-3.0695,-3.0566,-2.8781,-2.7376,-2.7228,-2.5693,-2.3794,-2.4337,-2.407,-2.3854,-2.3796,-2.346,-2.3263,-2.3263,-2.2867,-2.0879,-1.8296,-1.7423,-1.6191,-1.334,-1.2566,-1.2792,-1.2655,-1.1361,-1.0065,-2.7188,-2.749,-2.7964,-2.8452,0.0,-2.9241,-2.9398,-2.9383,-2.8448,-2.7434,-2.6269,-2.4501,-2.3215,-2.2149,-1.9204,-1.8672,-2.003,-1.7372,-1.6923,-1.818,-1.683,-1.6335,-1.6327,-1.6247,-1.6207,-1.6207,-1.8028,-1.9191,-1.9523,-1.9619,-1.9835,-2.0326,-1.8999,-1.7836,-1.6998,-1.7006,-1.4875,-1.071,-1.2906,-1.3772,-1.3441,-1.419,-1.4475,-1.4483,-1.4892,0.0,0.0,0.0,0.0,0.0,0.0,0.0,0.0,-2.1242,0.0,-2.2652,-2.4287,-2.5486,-2.5665,-2.592,-2.6269,-2.6712,-2.671,-2.5401,-2.2602,-2.2008,-2.1672,-2.1504,-1.7716,-1.5983,-1.7448,-1.3854,-1.142,-1.1425,-1.1473,-1.151,-1.1515,-1.2819,-1.4332,-1.5858,-1.7644,-1.986,-2.2841,-2.4763,-2.6671,-2.8475,-2.9988,-3.1091,-3.103,-2.8721,-2.6577,-2.6394,-2.5024,-2.4288,-2.4185,-2.2768,-2.1959,-2.2024,-2.1978,-2.1959,-2.2042,-2.0884,-1.9715,-1.9715,-1.8537,-1.7161,-1.5383,-1.4946,-1.4535,-1.3021,-1.2249,-1.1676,-1.1116,-1.0074,-0.9226,-2.5651,-2.626,-2.6402,-2.6882,-2.7489,-2.7219,-2.7205,-2.7262,-2.7262,-2.5861,-2.3751,-2.2,-2.0522,-1.9245,-1.5387,-1.5327,-1.7778,-1.2873,-1.1945,-1.4042,-1.1879,-1.0694,-1.0673,-1.0609,-1.0578,-1.0743,-1.3559,-1.505,-1.505,-1.5178,-1.5238,-1.5238,-1.308,-1.1568,-1.0877,0.0,0.0,0.0,-1.1163,-1.1527,-1.1527,-1.2069,-1.2333,-1.2652,-1.3175,0.0,-1.3693,-1.5088,-1.5698,-1.5665,-1.6436,0.0,0.0,0.0,0.0,0.0,0.0,0.0,0.0,0.0,0.0,0.0,-2.4881,-2.3485,-2.1508,-1.9621,-1.8262,-1.8015,-1.5599,-1.4489,-1.528,-1.276,-1.107,-1.1091,-1.1176,-1.1255,-1.1303,-1.1388,-1.2384,-1.4848,-1.5285,-1.6508,-1.9719,-2.2262,-2.4147,-2.5289,-2.7521,-2.9184,-2.9203,-2.5186,-2.2107,-2.1913,-2.2302,-2.1978,-2.1554,-2.0645,-1.9591,-2.0202,-2.0194,-1.9982,-1.9828,-1.7864,-1.6466,-1.6466,-1.4315,-1.276,-1.2368,-1.2363,-1.2363,-1.1971,-1.1383,-1.0398,-0.9226,-0.8834,-0.8638,-2.5353,-2.5496,-2.6105,-2.6571,-2.6529,-2.5239,-2.4868,-2.5108,-2.5108,-2.3866,-2.1616,-1.7221,-1.5026,-1.4734,-1.1895,-1.1014,-1.1456,-1.0656,-1.0506,-1.084,-1.0517,-1.0302,-1.0207,-1.0291,-1.0334,-1.0339,-1.0923,-1.1142,-1.13,-1.1317,-1.1328,-1.1164,-1.0836,-1.0624,-1.036,-1.0517,-1.0495,-1.0291,-1.0361,-1.0312,-1.0318,-1.046,-1.077,-1.1567,-1.1706,-1.211,-1.2603,-1.2907,-1.2845,-1.2867,-1.286,-1.3246,-1.3838,-1.5481,-1.7076,0.0,-2.0456,0.0,0.0,0.0,0.0,0.0,0.0,0.0,0.0,-1.6155,-1.4395,-1.4726,-1.2525,-1.1863,-1.4468,-1.23,-1.0747,-1.0837,-1.0864,-1.0959,-1.1155,-1.1192,-1.1426,-1.1899,-1.2104,-1.333,-1.6288,-1.7271,-1.9002,-2.1662,-2.2583,-2.2882,-2.2798,-2.2151,-2.1478,-2.1913,-2.1913,-2.032,-1.8217,-1.5684,-1.4149,-1.4053,-1.4191,-1.3768,-1.4262,-1.3606,-1.3342,-1.3342,-1.295,-1.2167,-1.1378,-1.1182,-1.0986,-1.001,-0.961,-0.9015,-0.8036,-0.7252,-0.628,-2.4696,-2.4696,-2.5141,-2.5293,-2.528,-2.4557,-2.438,-2.4498,-2.4498,-2.3956,-2.2848,-1.9281,-1.6297,-1.3729,-1.1215,-1.0143,-1.0191,-1.0191,-1.0191,-1.0191,-1.0191,-1.0164,-1.0117,-1.0164,-1.0191,-1.0191,-1.0244,-1.027,-1.027,-1.027,-1.027,-1.027,-1.027,-1.018,-1.0005,-0.9995,-1.0032,-1.009,-1.0043,-1.0048,-1.0106,-0.9583,-0.9704,-1.0641,-1.0113,-1.0203,-1.0916,-1.091,-1.0698,-1.0275,-1.0119,-1.0415,-1.0797,-1.2556,-1.4243,0.0,0.0,0.0,0.0,0.0,0.0,0.0,0.0,0.0,0.0,0.0,-1.194,-1.1556,-1.0159,-0.9808,-1.1117,-1.0731,-1.0244,-1.0228,-1.0286,-1.0392,-1.0562,-1.0752,-1.0916,-1.1033,-1.125,-1.1954,-1.3268,-1.5069,-1.6934,-1.8496,-1.7223,-1.6153,-1.6317,-1.6409,-1.6487,-1.6573,-1.6587,-1.601,-1.4862,-1.3384,-1.2505,-1.2606,-1.2596,-1.2574,-1.2627,-1.2197,-1.1775,-1.1775,-1.1187,-1.0599,-1.0207,-1.0207,-1.001,-0.9211,-0.7592,-0.5804,-0.5219,-0.4851,-0.448,-2.4301,-2.4235,-2.3838,-2.3507,-2.3021,-2.3034,-2.2751,-2.24,-2.2856,-2.2708,-2.1968,-2.0816,-1.7793,-1.3486,-1.1467,-1.0609,-1.0413,-1.0413,-1.0301,-1.0069,-1.0069,-1.0058,-1.0032,-1.0058,-1.0074,-1.0074,-1.0101,-1.0111,-1.0111,-1.0085,-1.0069,-1.0064,-1.0113,-0.9984,-0.9833,-1.0006,-0.993,-0.9894,-0.9921,-0.9813,-0.9714,-0.8861,-0.8664,-0.8968,-0.8585,-0.8534,-0.881,-0.8961,-0.8912,-0.8213,-0.8311,-0.8551,-0.8728,-1.0518,0.0,0.0,0.0,0.0,0.0,0.0,0.0,0.0,0.0,-1.463,-1.3898,0.0,-1.0443,0.0,-0.881,-0.8358,-0.8251,-0.9028,0.0,0.0,-0.9887,-1.0137,-1.044,-1.0734,-1.0984,-1.0957,-1.1044,-1.1254,-1.1197,-1.3304,-1.4912,-1.5237,-1.3089,-1.1711,-1.1875,-1.1949,-1.2018,-1.2292,-1.2502,-1.2124,-1.2319,-1.2219,-1.2336,-1.2458,-1.2474,-1.2479,-1.2279,-1.1501,-1.0912,-1.0722,-0.9943,-0.9164,-0.8576,-0.8579,-0.8381,-0.7793,-0.5398,-0.3053,-0.3055,-0.3072,-0.3088,-2.4301,-2.4159,-2.2635,-2.0978,-1.948,-1.9504,-1.8451,-1.7188,-1.9033,-1.8187,-1.5784,-1.7915,-1.6686,-1.2895,-1.2459,0.0,-1.1242,-1.1242,-1.0692,-0.9947,-0.9952,-0.9894,-0.9794,-0.99,-0.9947,-0.9952,-1.0064,-1.0111,-1.0101,-1.0,-0.9947,-0.9937,-1.0123,-1.0381,-1.0469,-1.0592,-1.0258,-0.9772,-0.9878,-0.958,-0.8729,-0.7951,-0.703,-0.6416,-0.7023,-0.7133,-0.6305,-0.7051,-0.731,-0.7364,-0.7778,-0.8147,-0.8593,0.0,0.0,0.0,0.0,0.0,0.0,0.0,0.0,0.0,0.0,0.0,0.0,0.0,0.0,-0.9384,-0.8497,0.0,-0.7339,-0.7881,0.0,0.0,0.0,-1.0563,-1.1412,-1.1734,-1.1629,-1.1098,0.0,0.0,-1.1006,-1.1313,-1.1628,-1.1594,-1.1501,-1.1536,-1.1552,-1.1727,-1.187,-1.187,-1.188,-1.1875,-1.187,-1.1965,-1.2076,-1.2188,-1.2235,-1.1854,-1.1085,-1.0703,-1.0322,-0.9566,-0.9371,-0.8801,-0.6883,-0.6498,-0.5925,-0.4012,-0.3244,-0.3051,-0.2855,-0.2859,-0.267,-2.1729,-2.2291,-2.1745,-2.1141,-2.0678,-2.0692,-1.9626,-1.8027,-1.8828,-1.8069,-1.615,-1.7375,-1.6485,-1.3806,-1.4006,0.0,0.0,0.0,-1.1195,-1.0446,-1.03,-1.0086,-0.9661,-0.9709,-0.9693,-0.9479,-0.9672,-0.9661,-0.9587,-0.9614,-1.0146,-1.109,0.0,-1.1144,-1.096,-1.0853,-1.0387,-0.9555,-0.9285,-0.8738,-0.7785,-0.7629,-0.7172,-0.6867,-0.6213,-0.5874,-0.5992,-0.6253,-0.6295,-0.612,-0.6568,-0.7547,0.0,0.0,0.0,0.0,0.0,0.0,0.0,0.0,0.0,0.0,0.0,-1.1844,-1.1348,0.0,0.0,0.0,-0.7825,-0.7341,-0.6543,-0.7279,0.0,0.0,0.0,0.0,0.0,0.0,0.0,-1.1213,-1.1272,-1.1336,-1.1294,-1.0946,-1.0721,-1.0773,-1.0901,-1.1038,-1.1176,0.0,-1.1377,-1.152,-1.1478,-1.1457,-1.1531,-1.1579,-1.1471,-1.103,-1.0597,-1.0116,-0.9746,-0.9184,-0.8457,-0.7555,-0.6812,-0.5874,-0.4574,-0.3742,-0.2949,-0.1474,-0.129,-0.129,-0.129,-0.1296,-0.1118,-1.8358,0.0,0.0,0.0,0.0,-1.9406,-1.8057,-1.5756,-1.6291,-1.5689,-1.4079,-1.5134,0.0,0.0,0.0,0.0,0.0,0.0,-1.1248,-1.0475,-1.0158,-0.9781,-0.9396,-0.9543,-0.964,-0.9558,-0.967,-0.9889,-0.994,-1.0092,-1.0915,-1.2104,0.0,0.0,0.0,0.0,-0.9945,-0.8926,-0.7976,-0.7172,-0.6257,-0.6388,-0.6378,-0.6223,-0.5102,-0.4608,-0.4572,-0.4958,-0.5267,-0.5064,-0.5869,0.0,0.0,0.0,0.0,0.0,0.0,0.0,0.0,0.0,0.0,0.0,0.0,0.0,0.0,0.0,0.0,0.0,0.0,0.0,-0.6004,-0.6457,-0.7134,0.0,0.0,0.0,0.0,0.0,0.0,0.0,0.0,0.0,-1.1015,-1.0524,-1.0223,0.0,0.0,-1.0496,-1.0176,-1.0401,-1.0481,-1.0464,-1.0246,0.0,-1.0434,-1.0464,-1.0163,-0.9707,-0.9324,-0.8888,-0.8526,-0.7783,-0.6704,-0.565,-0.4772,-0.3674,-0.2556,-0.1605,-0.0878,0.0,0.0,0.0,0.0,0.0,0.0,0.0,0.0,0.0,0.0,-1.3656,0.0,0.0,0.0,-0.996,-0.9571,0.0,-1.0465,0.0,0.0,0.0,0.0,-1.1507,-1.1423,0.0,0.0,-0.9341,-0.9156,-0.9053,-0.961,-0.9882,-0.9876,-1.0438,-1.09,-1.1651,-1.2056,0.0,0.0,0.0,0.0,0.0,0.0,-0.8754,-0.7791,-0.5988,-0.4576,-0.3816,-0.3774,-0.3752,-0.3602,-0.3558,-0.2914,-0.1565,-0.2666,-0.3694,-0.4072,-0.5592,0.0,0.0,0.0,0.0,0.0,0.0,0.0,0.0,0.0,0.0,0.0,0.0,0.0,0.0,0.0,0.0,0.0,0.0,0.0,0.0,-0.5266,0.0,0.0,0.0,0.0,0.0,0.0,0.0,0.0,0.0,-1.096,-1.0271,-0.9936,-0.9555,-0.8831,0.0,0.0,0.0,0.0,-0.9301,-0.8461,-0.8288,-0.8259,-0.8345,-0.8403,-0.8461,-0.8465,0.0,0.0,-0.7226,-0.6315,-0.5427,-0.4582,-0.3625,-0.2411,-0.0491,-0.0163,0.0,0.0,0.0,0.0,0.0,0.0,0.0,0.0,0.0,0.0,0.0,0.0,0.0,0.0,0.0,0.0,-0.8289,-0.5984,-0.7255,0.0,0.0,0.0,0.0,0.0,0.0,0.0,0.0,-0.9277,-0.9368,-0.9483,-1.0008,-1.0608,-1.1145,-1.1239,-1.1748,0.0,0.0,0.0,0.0,0.0,0.0,0.0,0.0,-0.8478,-0.6823,-0.5031,-0.3649,-0.3018,-0.2855,-0.27,-0.1949,-0.2519,-0.2609,-0.1823,-0.2966,-0.3754,0.0,0.0,0.0,0.0,0.0,0.0,0.0,0.0,0.0,0.0,0.0,0.0,0.0,0.0,0.0,0.0,0.0,0.0,0.0,0.0,0.0,0.0,0.0,-0.47,0.0,0.0,0.0,0.0,0.0,0.0,0.0,0.0,0.0,-0.9592,-0.884,-0.8363,-0.8409,-0.8011,-0.7401,-0.706,0.0,0.0,0.0,0.0,0.0,0.0,0.0,-0.7017,-0.7129,-0.7144,-0.6823,-0.5968,-0.5109,-0.3969,-0.2559,0.0,0.0,-0.015,0.0302,0.0612,0.0612,0.0917,0.107,0.0764,0.0618,0.0468,0.0,0.0,0.0,0.0,0.0,0.0,0.0,0.0,0.0,-0.7405,-0.5205,0.0,0.0,0.0,0.0,0.0,0.0,0.0,0.0,0.0,0.0,0.0,-0.943,-1.0311,0.0,0.0,0.0,0.0,0.0,0.0,0.0,0.0,0.0,0.0,0.0,0.0,-0.738,-0.5867,-0.3663,-0.2267,-0.1649,-0.1643,-0.149,-0.1191,-0.1473,-0.1869,-0.2075,0.0,0.0,0.0,0.0,0.0,0.0,0.0,0.0,0.0,0.0,0.0,0.0,0.0,0.0,0.0,0.0,0.0,0.0,0.0,0.0,0.0,0.0,0.0,0.0,0.0,-0.3725,0.0,0.0,0.0,0.0,0.0,0.0,0.0,0.0,0.0,0.0,-0.7881,-0.7444,-0.7698,-0.6794,-0.5932,-0.5607,-0.5099,-0.4702,0.0,0.0,0.0,0.0,0.0,0.0,0.0,0.0,0.0,0.0,0.0,0.0,0.0,0.0,-0.0426,0.0135,0.0816,0.1106,0.125,0.0,0.0,0.0,0.0,0.0,0.0,0.0,0.0,0.0,0.0,0.0,0.0,0.0,0.0,0.0,-0.4794,0.0,0.0,-0.5725,0.0,0.0,0.0,0.0,0.0,0.0,0.0,0.0,0.0,0.0,0.0,0.0,0.0,0.0,0.0,0.0,0.0,0.0,0.0,0.0,0.0,0.0,-0.5611,-0.5034,-0.1742,0.0,0.0,0.0,-0.0442,-0.103,-0.0436,-0.0709,-0.2181,0.0,0.0,0.0,0.0,0.0,0.0,0.0,0.0,0.0,0.0,0.0,0.0,0.0,0.0,0.0,0.0,0.0,0.0,0.0,0.0,0.0,0.0,0.0,0.0,0.0,0.0,-0.2544,-0.2665,-0.3384,0.0,0.0,0.0,0.0,0.0,0.0,0.0,0.0,0.0,-0.6481,-0.612,-0.5342,-0.3953,-0.3737,-0.3476,-0.2532,-0.2531,-0.252,-0.2493,-0.2489,-0.2774,0.0,0.0,0.0,0.0,0.0,0.0,0.0,0.0,0.0,0.0,0.0,0.0,0.0,0.0,0.0,0.0,0.0,0.0,0.0,0.0,0.0,0.0,0.0,0.0,0.0,0.0,0.0,0.0,0.0,0.0,0.0,0.0,0.0,0.0,0.0,0.0,0.0,0.0,0.0,0.0,0.0,0.0,0.0,0.0,0.0,0.0,0.0,0.0,0.0,0.0,0.0,0.0,0.0,0.0,-0.5201,-0.424,-0.144,0.0,0.0,0.0,-0.0446,-0.1177,-0.0858,-0.1382,-0.2786,0.0,0.0,0.0,0.0,0.0,0.0,0.0,0.0,0.0,0.0,0.0,0.0,0.0,0.0,0.0,0.0,0.0,0.0,0.0,0.0,0.0,0.0,0.0,0.0,0.0,0.0,0.0,-0.1499,-0.206,-0.375,0.0,0.0,0.0,0.0,0.0,0.0,0.0,0.0,0.0,0.0,-0.2979,-0.2663,-0.1823,-0.1083,-0.078,-0.0781,-0.0934,-0.1538,-0.1546,-0.184,-0.2501,0.0,0.0,0.0,0.0,0.0,0.0,0.0,0.0,0.0,0.0,0.0,0.0,0.0,0.0,0.0,0.0,0.0,0.0,0.0,0.0,0.0,0.0,0.0,0.0,0.0,0.0,0.0,0.0,0.0,0.0,0.0,0.0,0.0,0.0,0.0,0.0,0.0,0.0,0.0,0.0,0.0,0.0,0.0,0.0,0.0,0.0,0.0,0.0,0.0,0.0,0.0,0.0,0.0,-0.4371,-0.3376,-0.1134,0.0,0.0,0.0,-0.0295,-0.0731,-0.0849,-0.1498,0.0,0.0,0.0,0.0,0.0,0.0,0.0,0.0,0.0,0.0,0.0,0.0,0.0,0.0,0.0,0.0,0.0,0.0,0.0,0.0,0.0,0.0,0.0,0.0,0.0,0.0,0.0,0.0,-0.081,-0.0932,-0.2082,0.0,0.0,0.0,0.0,0.0,0.0,0.0,0.0,0.0,0.0,-0.1763,-0.1705,-0.0731,0.0,0.0,0.0,-0.0151,-0.0599,-0.0752,-0.1043,-0.1709,-0.2204,0.0,0.0,0.0,0.0,0.0,0.0,0.0,0.0,0.0,0.0,0.0,0.0,0.0,0.0,0.0,0.0,0.0,0.0,0.0,0.0,0.0,0.0,0.0,0.0,0.0,0.0,0.0,0.0,0.0,0.0,0.0,0.0,0.0,0.0,0.0,0.0,0.0,0.0,0.0,0.0,0.0,0.0,0.0,0.0,0.0,0.0,0.0,0.0,0.0,0.0,0.0,0.0,-0.3476,-0.2694,-0.0973,0.0,0.0,0.0,0.0,-0.0145,-0.0704,-0.1217,0.0,0.0,0.0,0.0,0.0,0.0,0.0,0.0,0.0,0.0,0.0,0.0,0.0,0.0,0.0,0.0,0.0,0.0,0.0,0.0,0.0,0.0,0.0,0.0,0.0,0.0,0.0,0.0,0.0,0.0,0.0,0.0,0.0,0.0,0.0,0.0,0.0,0.0,0.0,0.0,0.0,-0.1555,-0.1083,-0.0417,0.0,0.0,0.0,0.0,0.0,0.0,-0.0142,-0.0821,0.0,0.0,0.0,0.0,0.0,0.0,0.0,0.0,0.0,0.0,0.0,0.0,0.0,0.0,0.0,0.0,0.0,0.0,0.0,0.0,0.0,0.0,0.0,0.0,0.0,0.0,0.0,0.0,0.0,0.0,0.0,0.0,0.0,0.0,0.0,0.0,0.0,0.0,0.0,0.0,0.0,0.0,0.0,0.0,0.0,0.0,0.0,0.0,0.0,0.0,0.0,0.0,0.0,0.0,-0.2691,-0.0973,0.0,0.0,0.0,-0.0292,-0.0867,-0.0968,0.0,0.0,0.0,0.0,0.0,0.0,0.0,0.0,0.0,0.0,0.0,0.0,0.0,0.0,0.0,0.0,0.0,0.0,0.0,0.0,0.0,0.0,0.0,0.0,0.0,0.0,0.0,-0.0163,0.0,0.0,0.0,0.0,0.0,0.0,0.0,0.0,0.0,0.0,0.0,0.0,0.0,0.0,-0.1,-0.0932,-0.0405,0.0,0.0,0.0,0.0,0.0,0.0,0.0,0.0,0.0,0.0,0.0,0.0,0.0,0.0,0.0,0.0,0.0,0.0,0.0,0.0,0.0,0.0,0.0,0.0,0.0,0.0,0.0,0.0,0.0,0.0,0.0,0.0,0.0,0.0,0.0,0.0,0.0,0.0,0.0,0.0,0.0,0.0,0.0,0.0,0.0,0.0,0.0,0.0,0.0,0.0,0.0,0.0,0.0,0.0,0.0,0.0,0.0,0.0,0.0,0.0,0.0,-0.3304,-0.2245,-0.1083,-0.0283,0.0,0.0,-0.0144,-0.0574,-0.0818,-0.1294,0.0,0.0,0.0,0.0,0.0,0.0,0.0,0.0,0.0,0.0,0.0,0.0,0.0,0.0,0.0,0.0,0.0,0.0,0.0,0.0,0.0,0.0,0.0,0.0,0.0,0.0,0.0,0.0,0.0,0.0,0.0,0.0,0.0,0.0,0.0,0.0,0.0,0.0,0.0,0.0,0.0,0.0,0.1417,0.0905,0.0,0.0,0.0,0.0,0.0,0.0,0.0,0.0,0.0,0.0,0.0,0.0,0.0,0.0,0.0,0.0,0.0,0.0,0.0,0.0,0.0,0.0,0.0,0.0,0.0,0.0,0.0,0.0,0.0,0.0,0.0,0.0,0.0,0.0,0.0,0.0,0.0,0.0,0.0,0.0,0.0,0.0,0.0,0.0,0.0,0.0,0.0,0.0,0.0,0.0,0.0,0.0,0.0,0.0,0.0,0.0,0.0,0.0,0.0,0.0,0.0,0.0,-0.1803,-0.1173,-0.0684,0.0,0.0,0.0,0.0,-0.0539,-0.0899,0.0,0.0,0.0,0.0,0.0,0.0,0.0,0.0,0.0,0.0,0.0,0.0,0.0,0.0,0.0,0.0,0.0,0.0,0.0,0.0,0.0,0.0,0.0,0.0,0.0,0.0,0.0,0.0,0.0,0.0,0.0,0.0,0.0,0.0,0.0,0.0,0.0,0.0,0.0,0.0,0.0,0.1978,0.4562,0.2825,0.1096,0.0,0.0,0.0,0.0373,0.0621,0.0,0.0,0.0,0.0,0.0,0.0,0.0,0.0,0.0,0.0,0.0,0.0,0.0,0.0,0.0,0.0,0.0,0.0,0.0,0.0,0.0,0.0,0.0,0.0,0.0,0.0,0.0,0.0,0.0,0.0,0.0,0.0,0.0,0.0,0.0,0.0,0.0,0.0,0.0,0.0,0.0,0.0,0.0,0.0,0.0,0.0,0.0,0.0,0.0,0.0,0.0,0.0,0.0,0.0,0.0,0.0,-0.1799,-0.1151,-0.0537,0.0,0.0,0.0,0.0,-0.0135,-0.0387,0.0,0.0,0.0,0.0,0.0,0.0,0.0,0.0,0.0,0.0,0.0,0.0,0.0,0.0,0.0,0.0,0.0,0.0,0.0,0.0,0.0,0.0,0.0,0.0,0.0,0.0,0.0,0.0,0.0,0.0,0.0,0.0,0.0,0.0,0.0,0.0,0.0,0.0,0.0,0.0,0.0,0.2581,0.3771,0.2932,0.0,0.0,0.0,0.0,0.2449,0.1984,0.0,0.0,0.0,0.0,0.0,0.0,0.0,0.0,0.0,0.0,0.0,0.0,0.0,0.0,0.0,0.0,0.0,0.0,0.0,0.0,0.0,0.0,0.0,0.0,0.0,0.0,0.0,0.0,0.0,0.0,0.0,0.0,0.0,0.0,0.0,0.0,0.0,0.0,0.0,0.0,0.0,0.0,0.0,0.0,0.0,0.0,0.0,0.0,0.0,0.0,0.0,0.0,0.0,0.0,0.0,0.0,-0.1738,-0.1365,-0.0788,0.0,0.0,0.0,0.0,0.0,-0.0128,0.0,0.0,0.0,0.0,0.0,0.0,0.0,0.0,0.0,0.0,0.0,0.0,0.0,0.0,0.0,0.0,0.0,0.0,0.0,0.0,0.0,0.0,0.0,0.0,0.0,0.0,0.0,0.0,0.0,0.0,0.0,0.0,0.0,0.0,0.0,0.0,0.0,0.0,0.0,0.0,0.2976,0.3736,0.4893,0.0,0.0,0.0,0.0,0.0,0.0,0.3204,0.3077,0.0,0.0,0.0,0.0,0.0,0.0,0.0,0.0,0.0,0.0,0.0,0.0,0.0,0.0,0.0,0.0,0.0,0.0,0.0,0.0,0.0,0.0,0.0,0.0,0.0,0.0,0.0,0.0,0.0,0.0,0.0,0.0,0.0,0.0,0.0,0.0,0.0,0.0,0.0,0.0,0.0,0.0,0.0,0.0,0.0,0.0,0.0,0.0,0.0,0.0,0.0,0.0,0.0,0.0,0.0,-0.178,-0.1795,-0.1405,-0.0406,-0.0272,-0.0273,-0.0138,-0.0133,-0.0126,-0.0117,0.0,0.0,0.0,0.0,0.0,0.0,0.0,0.0,0.0,0.0,0.0,0.0,0.0,0.0,0.0,0.0,0.0,0.0,0.0,0.0,0.0,0.0,0.0,0.0,0.0,0.0,0.0,0.0,0.0,0.0,0.0,0.0,0.0,0.0,0.0,0.0,0.0,0.0,0.0,0.3606,0.4635,0.0,0.0,0.0,0.0,0.0,0.0,0.0,0.0,0.4257,0.0,0.0,0.0,0.0,0.0,0.0,0.0,0.0,0.0,0.0,0.0,0.0,0.0,0.0,0.0,0.0,0.0,0.0,0.0,0.0,0.0,0.0,0.0,0.0,0.0,0.0,0.0,0.0,0.0,0.0,0.0,0.0,0.0,0.0,0.0,0.0,0.0,0.0,0.0,0.0,0.0,0.0,0.0,0.0,0.0,0.0,0.0,0.0,0.0,0.0,0.0,0.0,0.0,0.0,0.0,0.0,-0.2538,-0.2334,-0.1707,-0.1731,-0.1475,-0.0806,-0.0793,-0.075,-0.0791,0.0,0.0,0.0,0.0,0.0,0.0,0.0,0.0,0.0,0.0,0.0,0.0,0.0,0.0,0.0,0.0,0.0,0.0,0.0,0.0,0.0,0.0,0.0,0.0,0.0,0.0,0.0,0.0,0.0,0.0,0.0,0.0,0.0,0.0,0.0,0.0,0.0,0.0,0.0569,0.2579,0.0,0.0,0.0,0.0,0.0,0.0,0.0,0.0,0.5041,0.0,0.0,0.0,0.0,0.0,0.0,0.0,0.0,0.0,0.0,0.0,0.0,0.0,0.0,0.0,0.0,0.0,0.0,0.0,0.0,0.0,0.0,0.0,0.0,0.0,0.0,0.0,0.0,0.0,0.0,0.0,0.0,0.0,0.0,0.0,0.0,0.0,0.0,0.0,0.0,0.0,0.0,0.0,0.0,0.0,0.0,0.0,0.0,0.0,0.0,0.0,0.0,0.0,0.0,0.0,0.0,0.0,0.0,-0.2423,-0.1937,-0.2099,-0.1989,-0.16,-0.1152,-0.0843,0.0,0.0,0.0,0.0,0.0,0.0,0.0,0.0,0.0,0.0,0.0,0.0,0.0,0.0,0.0,0.0,0.0,0.0,0.0,0.0,0.0,0.0,0.0,0.0,0.0,0.0,0.0,0.0,0.0,0.0,0.0,0.0,0.0,0.0,0.0,0.0,0.0,0.0,0.0,0.0,0.0,0.0,0.0,0.0,0.0,0.0,0.0,0.0,0.0,0.0,0.0,0.0,0.0,0.0,0.0,0.0,0.0,0.0,0.0,0.0,0.0,0.0,0.0,0.0,0.0,0.0,0.0,0.0,0.0,0.0,0.0,0.0,0.0,0.0,0.0,0.0,0.0,0.0,0.0,0.0,0.0,0.0,0.0,0.0,0.0,0.0,0.0,0.0,0.0,0.0,0.0,0.0,0.0,0.0,0.0,0.0,0.0,0.0,0.0,0.0,0.0,0.0,0.0,0.0,0.0,0.0,0.0,0.0,-0.2753,-0.2408,-0.233,-0.2233,-0.2118,-0.1356,-0.0689,0.0,0.0,0.0,0.0,0.0,0.0,0.0,0.0,0.0,0.0,0.0,0.0,0.0,0.0,0.0,0.0,0.0,0.0,0.0,0.0,0.0,0.0,0.0,0.0,0.0,0.0,0.0,0.0,0.0,0.0,0.0,0.0,0.0,0.0,0.0,0.0,0.0,0.0,0.0,0.0,0.0,0.0,0.0,0.0,0.0,0.0,0.0,0.0,0.6518,0.0,0.0,0.0,0.0,0.0,0.0,0.0,0.0,0.0,0.0,0.0,0.0,0.0,0.0,0.0,0.0,0.0,0.0,0.0,0.0,0.0,0.0,0.0,0.0,0.0,0.0,0.0,0.0,0.0,0.0,0.0,0.0,0.0,0.0,0.0,0.0,0.0,0.0,0.0,0.0,0.0,0.0,0.0,0.0,0.0,0.0,0.0,0.0,0.0,0.0,0.0,0.0,0.0,0.0,0.0,0.0,0.0,0.0,0.0,-0.3476,-0.3692,-0.3205,-0.2734,-0.2184,-0.1418,-0.0983,0.0,0.0,0.0,0.0,0.0,0.0,0.0,0.0,0.0,0.0,0.0,0.0,0.0,0.0,0.0,0.0,0.0,0.0,0.0,0.0,0.0,0.0,0.0,0.0,0.0,0.0,0.0,0.0,0.0,0.0,0.0,0.0,0.0,0.0,0.0,0.0,0.0,0.0,0.0,0.0,0.0,0.0,0.0,0.0,0.0,0.0,0.0,0.0,0.0,0.0,0.0,0.0,0.0,0.0,0.0,0.0,0.0,0.0,0.0,0.0,0.0,0.0,0.0,0.0,0.0,0.0,0.0,0.0,0.0,0.0,0.0,0.0,0.0,0.0,0.0,0.0,0.0,0.0,0.0,0.0,0.0,0.0,0.0,0.0,0.0,0.0,0.0,0.0,0.0,0.0,0.0,0.0,0.0,0.0,0.0,0.0,0.0,0.0,0.0,0.0,0.0,0.0,0.0,0.0,0.0,0.0,0.0,0.0,-0.2579,-0.2747,-0.2602,-0.2095,-0.1171,-0.0111,0.0519,0.0,0.0,0.0,0.0,0.0,0.0,0.0,0.0,0.0,0.0,0.0,0.0,0.0,0.0,0.0,0.0,0.0,0.0,0.0,0.0,0.0,0.0,0.0,0.0,0.0,0.0,0.0,0.0,0.0,0.0,0.0,0.0,0.0,0.0,0.0,0.0,0.0,0.0,0.0,0.0,0.0,0.0,0.0,0.0,0.0,0.0,0.0,0.0,0.0,0.0,0.0,0.0,0.0,0.0,0.0,0.0,0.0,0.0,0.0,0.0,0.0,0.0,0.0,0.0,0.0,0.0,0.0,0.0,0.0,0.0,0.0,0.0,0.0,0.0,0.0,0.0,0.0,0.0,0.0,0.0,0.0,0.0,0.0,0.0,0.0,0.0,0.0,0.0,0.0,0.0,0.0,0.0,0.0,0.0,0.0,0.0,0.0,0.0,0.0,0.0,0.0,0.0,0.0,0.0,0.0,0.0,0.0,0.0,0.0,-0.1939,-0.1503,-0.0793,0.0107,0.103,0.1464,0.0,0.0,0.0,0.0,0.0,0.0,0.0,0.0,0.0,0.0,0.0,0.0,0.0,0.0,0.0,0.0,0.0,0.0,0.0,0.0,0.0,0.0,0.0,0.0,0.0,0.0,0.0,0.0,0.0,0.0,0.0,0.0,0.0,0.0,0.0,0.0,0.0,0.0,0.0,0.0,0.0,0.0,0.0,0.0,0.0,0.0,0.0,0.0,0.0,0.0,0.0,0.0,0.0,0.0,0.0,0.0,0.0,0.0,0.0,0.0,0.0,0.0,0.0,0.0,0.0,0.0,0.0,0.0,0.0,0.0,0.0,0.0,0.0,0.0,0.0,0.0,0.0,0.0,0.0,0.0,0.0,0.0,0.0,0.0,0.0,0.0,0.0,0.0,0.0,0.0,0.0,0.0,0.0,0.0,0.0,0.0,0.0,0.0,0.0,0.0,0.0,0.0,0.0,0.0,0.0,0.0,0.0,0.0,0.0,-0.1922,0.0102,0.1202,0.1316,0.1345,0.127,0.0,0.0,0.0,0.0,0.0,0.0,0.0,0.0,0.0,0.0,0.0,0.0,0.0,0.0,0.0,0.0,0.0,0.0,0.0,0.0,0.0,0.0,0.0,0.0,0.0,0.0,0.0,0.0,0.0,0.0,0.0,0.0,0.0,0.0,0.0,0.0,0.0,0.0,0.0,0.0,0.0,0.0,0.0,0.0,0.0,0.0,0.0,0.0,0.0,0.0,0.0,0.0,0.0,0.0,0.0,0.0,0.0,0.0,0.0,0.0,0.0,0.0,0.0,0.0,0.0,0.0,0.0,0.0,0.0,0.0,0.0,0.0,0.0,0.0,0.0,0.0,0.0,0.0,0.0,0.0,0.0,0.0,0.0,0.0,0.0,0.0,0.0,0.0,0.0,0.0,0.0,0.0,0.0,0.0,0.0,0.0,0.0,0.0,0.0,0.0,0.0,0.0,0.0,0.0,0.0,0.0,0.0,0.0,0.0,0.0,0.1093,0.1731,0.1723,0.2038,0.2124,0.1992,0.0,0.0,0.0,0.0,0.0,0.0,0.0,0.0,0.0,0.0,0.0,0.0,0.0,0.0,0.0,0.0,0.0,0.0,0.0,0.0,0.0,0.0,0.0,0.0,0.0,0.0,0.0,0.0,0.0,0.0,0.0,0.0,0.0,0.0,0.0,0.0,0.0,0.0,0.0,0.0,0.0,0.0,0.0,0.0,0.0,0.0,0.0,0.0,0.0,0.0,0.0,0.0,0.0,0.0,0.0,0.0,0.0,0.0,0.0,0.0,0.0,0.0,0.0,0.0,0.0,0.0,0.0,0.0,0.0,0.0,0.0,0.0,0.0,0.0,0.0,0.0,0.0,0.0,0.0,0.0,0.0,0.0,0.0,0.0,0.0,0.0,0.0,0.0,0.0,0.0,0.0,0.0,0.0,0.0,0.0,0.0,0.0,0.0,0.0,0.0,0.0,0.0,0.0,0.0,0.0,0.0,0.0,0.0,0.1363,0.1899,0.217,0.2155,0.2467,0.2637,0.0,0.0,0.0,0.0,0.0,0.0,0.0,0.0,0.0,0.0,0.0,0.0,0.0,0.0,0.0,0.0,0.0,0.0,0.0,0.0,0.0,0.0,0.0,0.0,0.0,0.0,0.0,0.0,0.0,0.0,0.0,0.0,0.0,0.0,0.0,0.0,0.0,0.0,0.0,0.0,0.0,0.0,0.0,0.0,0.0,0.0,0.0,0.0,0.0,0.0,0.0,0.0,0.0,0.0,0.0,0.0,0.0,0.0,0.0,0.0,0.0,0.0,0.0,0.0,0.0,0.0,0.0,0.0,0.0,0.0,0.0,0.0,0.0,0.0,0.0,0.0,0.0,0.0,0.0,0.0,0.0,0.0,0.0,0.0,0.0,0.0,0.0,0.0,0.0,0.0,0.0,0.0,0.0,0.0,0.0,0.0,0.0,0.0,0.0,0.0,0.0,0.0,0.0,0.0,0.0,0.0,0.0,0.0,0.1207,0.1751,0.2219,0.2478,0.2528,0.2478,0.2492,0.0,0.0,0.0,0.0,0.0,0.0,0.0,0.0,0.0,0.0,0.0,0.0,0.0,0.0,0.0,0.0,0.0,0.0,0.0,0.0,0.0,0.0,0.0,0.0,0.0,0.0,0.0,0.0,0.0,0.0,0.0,0.0,0.0,0.0,0.0,0.0,0.0,0.0,0.0,0.0,0.0,0.0,0.0,0.0,0.0,0.0,0.0,0.0,0.0,0.0,0.0,0.0,0.0,0.0,0.0,0.0,0.0,0.0,0.0,0.0,0.0,0.0,0.0,0.0,0.0,0.0,0.0,0.0,0.0,0.0,0.0,0.0,0.0,0.0,0.0,0.0,0.0,0.0,0.0,0.0,0.0,0.0,0.0,0.0,0.0,0.0,0.0,0.0,0.0,0.0,0.0,0.0,0.0,0.0,0.0,0.0,0.0,0.0,0.0,0.0,0.0,0.0,0.0,0.0,0.0,0.0,0.0,0.0,0.0,0.1978,0.0,0.2408,0.2424,0.2408,0.2369,0.0,0.0,0.0,0.0,0.0,0.0,0.0,0.0,0.0,0.0,0.0,0.0,0.0,0.0,0.0,0.0,0.0,0.0,0.0,0.0,0.0,0.0,0.0,0.0,0.0,0.0,0.0,0.0,0.0,0.0,0.0,0.0,0.0,0.0,0.0,0.0,0.0,0.0,0.0,0.0,0.0,0.0,0.0,0.0,0.0,0.0,0.0,0.0,0.0,0.0,0.0,0.0,0.0,0.0,0.0,0.0,0.0,0.0,0.0,0.0,0.0,0.0,0.0,0.0,0.0,0.0,0.0,0.0,0.0,0.0,0.0,0.0,0.0,0.0,0.0,0.0,0.0,0.0,0.0,0.0,0.0,0.0,0.0,0.0,0.0,0.0,0.0,0.0,0.0,0.0,0.0,0.0,0.0,0.0,0.0,0.0,0.0,0.0,0.0,0.0,0.0,0.0,0.0,0.0,0.0,0.0,0.0,0.0,0.0,0.2149,0.2205,0.2315,0.2336,0.2247,0.2218,0.0,0.0,0.0,0.0,0.0,0.0,0.0,0.0,0.0,0.0,0.0,0.0,0.0,0.0,0.0,0.0,0.0,0.0,0.0,0.0,0.0,0.0,0.0,0.0,0.0,0.0,0.0,0.0,0.0,0.0,0.0,0.0,0.0,0.0,0.0,0.0,0.0,0.0,0.0,0.0,0.0,0.0,0.0,0.0,0.0,0.0,0.0,0.0,0.0,0.0,0.0,0.0,0.0,0.0,0.0,0.0,0.0,0.0,0.0,0.0,0.0,0.0,0.0,0.0,0.0,0.0,0.0,0.0,0.0,0.0,0.0,0.0,0.0,0.0,0.0,0.0,0.0,0.0,0.0,0.0,0.0,0.0,0.0,0.0,0.0,0.0,0.0,0.0,0.0,0.0,0.0,0.0,0.0,0.0,0.0,0.0,0.0,0.0,0.0,0.0,0.0,0.0,0.0,0.0,0.0,0.0,0.0,0.0,0.0,0.2159,0.2146,0.2202,0.2323,0.2205,0.2108,0.0,0.0,0.0,0.0,0.0,0.0,0.0,0.0,0.0,0.0,0.0,0.0,0.0,0.0,0.0,0.0,0.0,0.0,0.0,0.0,0.0,0.0,0.0,0.0,0.0,0.0,0.0,0.0,0.0,0.0,0.0,0.0,0.0,0.0,0.0,0.0,0.0,0.0,0.0,0.0,0.0,0.0,0.0,0.0,0.0,0.0,0.0,0.0,0.0,0.0,0.0,0.0,0.0,0.0,0.0,0.0,0.0,0.0,0.0,0.0,0.0,0.0,0.0,0.0,0.0,0.0,0.0,0.0,0.0,0.0,0.0,0.0,0.0,0.0,0.0,0.0,0.0,0.0,0.0,0.0,0.0,0.0,0.0,0.0,0.0,0.0,0.0,0.0,0.0,0.0,0.0,0.0,0.0,0.0,0.0,0.0,0.0,0.0,0.0,0.0,0.0,0.0,0.0,0.0,0.0,0.0,0.0,0.0,0.0,0.0,0.2107,0.2123,0.2205,0.2125,0.2115,0.2115,0.0,0.0,0.0,0.0,0.0,0.0,0.0,0.0,0.0,0.0,0.0,0.0,0.0,0.0,0.0,0.0,0.0,0.0,0.0,0.0,0.0,0.0,0.0,0.0,0.0,0.0,0.0,0.0,0.0,0.0,0.0,0.0,0.0,0.0,0.0,0.0,0.0,0.0,0.0,0.0,0.0,0.0,0.0,0.0,0.0,0.0,0.0,0.0,0.0,0.0,0.0,0.0,0.0,0.0,0.0,0.0,0.0,0.0,0.0,0.0,0.0,0.0,0.0,0.0,0.0,0.0,0.0,0.0,0.0,0.0,0.0,0.0,0.0,0.0,0.0,0.0,0.0,0.0,0.0,0.0,0.0,0.0,0.0,0.0,0.0,0.0,0.0,0.0,0.0,0.0,0.0,0.0,0.0,0.0,0.0,0.0,0.0,0.0,0.0,0.0,0.0,0.0,0.0,0.0,0.0,0.0,0.0,0.0,0.0,0.0,0.2483,0.2287,0.2287,0.2287,0.0,0.0,0.0,0.0,0.0,0.0,0.0,0.0,0.0,0.0,0.0,0.0,0.0,0.0,0.0,0.0,0.0,0.0,0.0,0.0,0.0,0.0,0.0,0.0,0.0,0.0,0.0,0.0,0.0,0.0,0.0,0.0,0.0,0.0,0.0,0.0,0.0,0.0,0.0,0.0,0.0,0.0,0.0,0.0,0.0,0.0,0.0,0.0,0.0,0.0,0.0,0.0,0.0,0.0,0.0,0.0,0.0,0.0,0.0,0.0,0.0,0.0,0.0,0.0,0.0,0.0,0.0,0.0,0.0,0.0,0.0,0.0,0.0,0.0,0.0,0.0,0.0,0.0,0.0,0.0,0.0,0.0,0.0,0.0,0.0,0.0,0.0,0.0,0.0,0.0,0.0,0.0,0.0,0.0,0.0,0.0,0.0,0.0,0.0,0.0,0.0,0.0,0.0,0.0,0.0,0.0,0.0,0.0,0.0,0.0,0.0,0.294,0.2548,0.2548,0.0,0.2156,0.0,0.0,0.0,0.0,0.0,0.0,0.0,0.0,0.0,0.0,0.0,0.0,0.0,0.0,0.0,0.0,0.0,0.0,0.0,0.0,0.0,0.0,0.0,0.0,0.0,0.0,0.0,0.0,0.0,0.0,0.0,0.0,0.0,0.0,0.0,0.0,0.0,0.0,0.0,0.0,0.0,0.0,0.0,0.0,0.0,0.0,0.0,0.0,0.0,0.0,0.0,0.0,0.0,0.0,0.0,0.0,0.0,0.0,0.0,0.0,0.0,0.0,0.0,0.0,0.0,0.0,0.0,0.0,0.0,0.0,0.0,0.0,0.0,0.0,0.0,0.0,0.0,0.0,0.0,0.0,0.0,0.0,0.0,0.0,0.0,0.0,0.0,0.0,0.0,0.0,0.0,0.0,0.0,0.0,0.0,0.0,0.0,0.0,0.0,0.0,0.0,0.0,0.0,0.0,0.0,0.0,0.0,0.0,0.0,0.0,0.0,0.0,0.2548,0.2417,0.2156,0.0,0.0,0.0,0.0,0.0,0.0,0.0,0.0,0.0,0.0,0.0,0.0,0.0,0.0,0.0,0.0,0.0,0.0,0.0,0.0,0.0,0.0,0.0,0.0,0.0,0.0,0.0,0.0,0.0,0.0,0.0,0.0,0.0,0.0,0.0,0.0,0.0,0.0,0.0,0.0,0.0,0.0,0.0,0.0,0.0,0.0,0.0,0.0,0.0,0.0,0.0,0.0,0.0,0.0,0.0,0.0,0.0,0.0,0.0,0.0,0.0,0.0,0.0,0.0,0.0,0.0,0.0,0.0,0.0,0.0,0.0,0.0,0.0,0.0,0.0,0.0,0.0,0.0,0.0,0.0,0.0,0.0,0.0,0.0,0.0,0.0,0.0,0.0,0.0,0.0,0.0,0.0,0.0,0.0,0.0,0.0,0.0,0.0,0.0,0.0,0.0,0.0,0.0,0.0,0.0,0.0,0.0,0.0,0.0,0.0,0.3466,0.307,0.2874,0.2613,0.2287,0.0,0.0,0.0,0.0,0.0,0.0,0.0,0.0,0.0,0.0,0.0,0.0,0.0,0.0,0.0,0.0,0.0,0.0,0.0,0.0,0.0,0.0,0.0,0.0,0.0,0.0,0.0,0.0,0.0,0.0,0.0,0.0,0.0,0.0,0.0,0.0,0.0,0.0,0.0,0.0,0.0,0.0,0.0,0.0,0.0,0.0,0.0,0.0,0.0,0.0,0.0,0.0,0.0,0.0,0.0,0.0,0.0,0.0,0.0,0.0,0.0,0.0,0.0,0.0,0.0,0.0,0.0,0.0,0.0,0.0,0.0,0.0,0.0,0.0,0.0,0.0,0.0,0.0,0.0,0.0,0.0,0.0,0.0,0.0,0.0,0.0,0.0,0.0,0.0,0.0,0.0,0.0,0.0,0.0,0.0,0.0,0.0,0.0,0.0,0.0,0.0,0.0,0.0,0.0,0.0,0.0,0.0,0.0,0.0,0.0,0.4077,0.0,0.0,0.0,0.2548,0.0,0.0,0.0,0.0,0.0,0.0,0.0,0.0,0.0,0.0,0.0,0.0,0.0,0.0,0.0,0.0,0.0,0.0,0.0,0.0,0.0,0.0,0.0,0.0,0.0,0.0,0.0,0.0,0.0,0.0,0.0,0.0,0.0,0.0,0.0,0.0,0.0,0.0,0.0,0.0,0.0,0.0,0.0,0.0,0.0,0.0,0.0,0.0,0.0,0.0,0.0,0.0,0.0,0.0,0.0,0.0,0.0,0.0,0.0,0.0,0.0,0.0,0.0,0.0,0.0,0.0,0.0,0.0,0.0,0.0,0.0,0.0,0.0,0.0,0.0,0.0,0.0,0.0,0.0,0.0,0.0,0.0,0.0,0.0,0.0,0.0,0.0,0.0,0.0,0.0,0.0,0.0,0.0,0.0,0.0,0.0,0.0,0.0,0.0,0.0,0.0,0.0,0.0,0.0,0.0,0.0,0.0,0.0,0.0,0.0,0.0,0.0,0.0,0.0,0.0,0.0,0.0,0.0,0.0,0.0,0.0,0.0,0.0,0.0,0.0,0.0,0.0,0.0,0.0,0.0,0.0,0.0,0.0,0.0,0.0,0.0,0.0,0.0,0.0,0.0,0.0,0.0,0.0,0.0,0.0,0.0,0.0,0.0,0.0,0.0,0.0,0.0,0.0,0.0,0.0,0.0,0.0,0.0,0.0,0.0,0.0,0.0,0.0,0.0,0.0,0.0,0.0,0.0,0.0,0.0,0.0,0.0,0.0,0.0,0.0,0.0,0.0,0.0,0.0,0.0,0.0,0.0,0.0,0.0,0.0,0.0,0.0,0.0,0.0,0.0,0.0,0.0,0.0,0.0,0.0,0.0,0.0,0.0,0.0,0.0,0.0,0.0,0.0,0.0,0.0,0.0,0.0,0.0,0.0,0.0,0.0,0.0,0.0,0.0,0.0,0.0,0.0,0.0,0.0,0.0,0.0,0.0,0.0,0.0,0.0,0.0,0.0,0.0,0.0,0.0,0.0,0.0,0.0,0.0,0.0,0.0,0.0,0.0,0.0,0.0,0.0,0.0,0.0,0.0,0.0,0.0,0.0,0.0,0.0,0.0,0.0,0.0,0.0,0.0,0.0,0.0,0.0,0.0,0.0,0.0,0.0,0.0,0.0,0.0,0.0,0.0,0.0,0.0,0.0,0.0,0.0,0.0,0.0,0.0,0.0,0.0,0.0,0.0,0.0,0.0,0.0,0.0,0.0,0.0,0.0,0.0,0.0,0.0,0.0,0.0,0.0,0.0,0.0,0.0,0.0,0.0,0.0,0.0,0.0,0.0,0.0,0.0,0.0,0.0,0.0,0.0,0.0,0.0,0.0,0.0,0.0,0.0,0.0,0.0,0.0,0.0,0.0,0.0,0.0,0.0,0.0,0.0,0.0,0.0,0.0,0.0,0.0,0.0,0.0,0.0,0.0,0.0,0.0,0.0,0.0,0.0,0.0,0.0,0.0,0.0,0.0,0.0,0.0,0.0,0.0,0.0,0.0,0.0,0.0,0.0,0.0,0.0,0.0,0.0,0.0,0.0,0.0,0.0,0.0,0.0,0.0,0.0,0.0,0.0,0.0,0.0,0.0,0.0,0.0,0.0,0.0,0.0,0.0,0.0,0.0,0.0,0.0,0.0,0.0,0.0,0.0,0.0,0.0,0.0,0.0,0.0,0.0,0.0,0.0,0.0,0.0,0.0,0.0,0.0,0.0,0.0,0.0,0.0,0.0,0.0,0.0,0.0,0.0,0.0,0.0,0.0,0.0,0.0,0.0,0.0,0.0,0.0,0.0,0.0,0.0,0.0,0.0,0.0,0.0,0.0,0.0,0.0,0.0,0.0,0.0,0.0,0.0,0.0,0.0,0.0,0.0,0.0,0.0,0.0,0.0,0.0,0.0,0.0,0.0,0.0,0.0,0.0,0.0,0.0,0.0,0.0,0.0,0.0,0.0,0.0,0.0,0.0,0.0,0.0,0.0,0.0,0.0,0.0,0.0,0.0,0.0,0.0,0.0,0.0,0.0,0.0,0.0,0.0,0.0,0.0,0.0,0.0,0.0,0.0,0.0,0.0,0.0,0.0,0.0,0.0,0.0,0.0,0.0,0.0,0.0,0.0,0.0,0.0,0.0,0.0,0.0,0.0,0.0,0.0,0.0,0.0,0.0,0.0,0.0,0.0,0.0,0.0,0.0,0.0,0.0,0.0,0.0,0.0,0.0,0.0,0.0,0.0,0.0,0.0,0.0,0.0,0.0,0.0,0.0,0.0,0.0,0.0,0.0,0.0,0.0,0.0,0.0,0.0,0.0,0.0,0.0,0.0,0.0,0.0,0.0,0.0,0.0,0.0,0.0,0.0,0.0,0.0,0.0,0.0,0.0,0.0,0.0,0.0,0.0,0.0,0.0,0.0,0.0,0.0,0.0,0.0,0.0,0.0,0.0,0.0,0.0,0.0,0.0,0.0,0.0,0.0,0.0,0.0,0.0,0.0,0.0,0.0,0.0,0.0,0.0,0.0,0.0,0.0,0.0,0.0,0.0,0.0,0.0,0.0,0.0,0.0,0.0,0.0,0.0,0.0,0.0,0.0,0.0,0.0,0.0,0.0,0.0,0.0,0.0,0.0,0.0,0.0,0.0,0.0,0.0,0.0,0.0,0.0,0.0,0.0,0.0,0.0,0.0,0.0,0.0,0.0,0.0,0.0,0.0,0.0,0.0,0.0,0.0,0.0,0.0,0.0,0.0,0.0,0.0,0.0,0.0,0.0,0.0,0.0,0.0,0.0,0.0,0.0,0.0,0.0,0.0,0.0,0.0,0.0,0.0,0.0,0.0,0.0,0.0,0.0,0.0,0.0,0.0,0.0,0.0,0.0,0.0,0.0,0.0,0.0,0.0,0.0,0.0,0.0,0.0,0.0,0.0,0.0,0.0,0.0,0.0,0.0,0.0,0.0,0.0,0.0,0.0,0.0,0.0,0.0,0.0,0.0,0.0,0.0,0.0,0.0,0.0,0.0,0.0,0.0,0.0,0.0,0.0,0.0,0.0,0.0,0.0,0.0,0.0,0.0,0.0,0.0,0.0,0.0,0.0,0.0,0.0,0.0,0.0,0.0,0.0,0.0,0.0,0.0,0.0,0.0,0.0,0.0,0.0,0.0,0.0,0.0,0.0,0.0,0.0,0.0,0.0,0.0,0.0,0.0,0.0,0.0,0.0,0.0,0.0,0.0,0.0,0.0,0.0,0.0,0.0,0.0,0.0,0.0,0.0,0.0,0.0,0.0,0.0,0.0,0.0,0.0,0.0,0.0,0.0,0.0,0.0,0.0,0.0,0.0,0.0,0.0,0.0,0.0,0.0,0.0,0.0,0.0,0.0,0.0,0.0,0.0,0.0,0.0,0.0,0.0,0.0,0.0,0.0,0.0,0.0,0.0,0.0,0.0,0.0,0.0,0.0,0.0,0.0,0.0,0.0,0.0,0.0,0.0,0.0,0.0,0.0,0.0,0.0,0.0,0.0,0.0,0.0,0.0,0.0,0.0,0.0,0.0,0.0,0.0,0.0,0.0,0.0,0.0,0.0,0.0,0.0,0.0,0.0,0.0,0.0,0.0,0.0,0.0,0.0,0.0,0.0,0.0,0.0,0.0,0.0,0.0,0.0,0.0,0.0,0.0,0.0,0.0,0.0,0.0,0.0,0.0,0.0,0.0,0.0,0.0,0.0,0.0,0.0,0.0,0.0,0.0,0.0,0.0,0.0,0.0,0.0,0.0,0.0,0.0,0.0,0.0,0.0,0.0,0.0,0.0,0.0,0.0,0.0,0.0,0.0,0.0,0.0,0.0,0.0,0.0,0.0,0.0,0.0,0.0,0.0,0.0,0.0,0.0,0.0,0.0,0.0,0.0,0.0,0.0,0.0,0.0,0.0,0.0,0.0,0.0,0.0,0.0,0.0,0.0,0.0,0.0,0.0,0.0,0.0,0.0,0.0,0.0,0.0,0.0,0.0,0.0,0.0,0.0,0.0,0.0,0.0,0.0,0.0,0.0,0.0,0.0,0.0,0.0,0.0,0.0,0.0,0.0,0.0,0.0,0.0,0.0,0.0,0.0,0.0,0.0,0.0,0.0,0.0,0.0,0.0,0.0,0.0,0.0,0.0,0.0,0.0,0.0,0.0,0.0,0.0,0.0,0.0,0.0,0.0,0.0,0.0,0.0,0.0,0.0,0.0,0.0,0.0,0.0,0.0,0.0,0.0,0.0,0.0,0.0,0.0,0.0,0.0,0.0,0.0,0.0,0.0,0.0,0.0,0.0,0.0,0.0,0.0,0.0,0.0,0.0,0.0,0.0]}],[{"header":{"parameterUnit":"kt","parameterCategory":2,"dx":1,"dy":1,"la1":29.587661999999998,"la2":31.0,"lo1":-88.76705300000003,"lo2":-86.6583820000003,"nx":115,"ny":88,"refTime":"2022-10-28T00:00:00:Z","depth":0,"parameterNumber":2,"parameterNumberName":"V-component_of_WINDS"},"data":[11.5751,11.7761,11.802,11.7984,11.7862,11.8348,11.8566,11.8941,12.0952,12.2794,12.3947,12.4041,12.5521,12.8982,12.935,12.933,12.8859,12.8265,12.7571,12.6695,12.4613,12.3482,12.3364,12.3931,12.4935,12.5593,12.6012,12.6453,12.7395,12.8173,12.8837,12.9758,13.0942,13.0444,12.9804,13.0361,13.0719,13.0183,13.0149,13.0171,13.0366,13.0846,13.1416,13.2081,13.2874,13.3953,13.4961,13.5677,13.6684,13.8106,13.9997,14.2606,14.3879,14.4208,14.3879,14.3748,14.2959,14.2433,14.2433,14.2893,14.3492,14.3689,14.5927,14.7606,14.8549,14.9785,15.0771,15.1596,15.1929,15.2749,15.2586,15.2259,15.168,15.1124,15.0532,15.1183,15.2188,15.2591,15.2524,15.2322,15.2188,15.1384,15.0445,15.0177,15.0311,15.0311,15.0378,15.1003,15.158,15.2259,15.2761,15.4187,15.5627,15.6067,15.6283,15.7631,15.8538,15.9666,16.0718,16.1543,16.2155,16.2636,16.4726,16.7115,16.9634,17.2419,17.5079,17.8167,18.0289,18.1766,18.3495,18.4239,18.4363,18.4462,18.4705,11.7547,11.7886,11.8953,11.8833,11.8166,12.0206,12.1178,12.1664,12.391,12.5727,12.6862,12.6927,12.8734,13.0023,13.0124,13.0365,13.0318,12.9959,12.9203,12.8123,12.6593,12.5897,12.5312,12.4848,12.56,12.614,12.6346,12.7139,12.8485,12.9657,13.0805,13.2578,13.2578,13.193,13.2709,13.3192,13.3318,13.2839,13.2453,13.2378,13.261,13.3,13.3287,13.3984,13.471,13.5334,13.5954,13.6594,13.7405,13.8878,14.0588,14.3263,14.4866,14.5326,14.5195,14.4866,14.4142,14.3616,14.3419,14.4208,14.49,14.5991,14.8556,15.0127,15.0871,15.1973,15.3174,15.3629,15.3629,15.3787,15.3391,15.2991,15.2341,15.1815,15.1223,15.1002,15.2188,15.3328,15.2926,15.2389,15.2054,15.1585,15.0847,15.0244,15.0177,15.0177,15.037,15.0989,15.1914,15.3425,15.4325,15.5478,15.6645,15.714,15.7351,15.812,15.8818,16.0017,16.1289,16.2262,16.3448,16.557,16.7749,17.0182,17.3131,17.619,17.8924,18.0655,18.206,18.3517,18.4313,18.4511,18.456,18.4657,18.4896,11.9565,12.041,12.1693,12.1939,12.1691,12.2682,12.3674,12.4348,12.5416,12.7484,12.9978,13.0466,13.1328,13.2509,13.2412,13.2704,13.319,13.1948,13.0848,13.0008,12.8965,12.8278,12.7939,12.7508,12.7521,12.7153,12.6972,12.7395,12.9248,13.0805,13.2481,13.389,13.471,13.4804,13.527,13.5334,13.5363,13.527,13.4848,13.4619,13.4748,13.4606,13.471,13.4492,13.4961,13.5769,13.632,13.7136,13.785,13.9012,14.0657,14.3402,14.527,14.6035,14.6141,14.5918,14.5589,14.526,14.5458,14.597,14.6755,14.7921,14.99,15.1341,15.2287,15.4418,15.5473,15.5548,15.5548,15.5173,15.4794,15.4816,15.4189,15.3268,15.2529,15.1657,15.2184,15.3103,15.288,15.2566,15.256,15.209,15.159,15.107,15.1564,15.1649,15.2163,15.291,15.4268,15.5701,15.5905,15.6573,15.7489,15.811,15.8256,15.8677,15.9381,16.0444,16.1786,16.3336,16.5455,16.8071,17.0749,17.3018,17.5823,17.9065,18.1015,18.2426,18.3863,18.4162,18.4412,18.4657,18.4753,18.4801,18.513,12.1356,12.2432,12.3878,12.4452,12.436,12.4767,12.5618,12.6783,12.6644,12.8833,13.2,13.2572,13.3058,13.3827,13.3732,13.4303,13.4833,13.3601,13.246,13.1637,13.075,13.0104,13.0187,12.9474,12.9607,12.9268,12.894,12.894,13.0705,13.2965,13.4927,13.5548,13.6073,13.6347,13.6619,13.6775,13.6775,13.68,13.6515,13.6334,13.6334,13.6099,13.5705,13.552,13.5797,13.6684,13.7518,13.8225,13.8748,13.9814,14.1158,14.2879,14.4843,14.6227,14.7035,14.7286,14.6997,14.7101,14.7441,14.7893,14.8786,15.0054,15.1409,15.2463,15.3893,15.6283,15.7491,15.7491,15.7281,15.6856,15.6492,15.6606,15.6415,15.5288,15.4263,15.3206,15.2215,15.2426,15.2566,15.2849,15.3216,15.2933,15.258,15.2645,15.3212,15.3948,15.4533,15.5032,15.6422,15.8169,15.8473,15.8404,15.9081,15.9006,15.8946,15.9374,16.0508,16.1502,16.2773,16.4961,16.7218,16.9777,17.2318,17.5224,17.7733,18.0133,18.2284,18.3625,18.4061,18.4162,18.4363,18.4753,18.4896,18.5083,18.5403,12.2611,12.2763,12.3913,12.4606,12.4641,12.5585,12.6907,12.8197,12.8291,12.9959,13.2195,13.2572,13.3251,13.4113,13.4397,13.4868,13.5299,13.5262,13.4478,13.37,13.2806,13.246,13.2145,13.1091,13.1497,13.1937,13.1734,13.1104,13.2515,13.4394,13.6464,13.7583,13.7583,13.7494,13.7339,13.7405,13.7583,13.7672,13.7583,13.7405,13.7405,13.7226,13.6891,13.68,13.7339,13.8115,13.918,14.0048,14.088,14.2489,14.3973,14.5023,14.582,14.6453,14.7499,14.7851,14.8134,14.8585,14.9317,14.9668,15.0804,15.2382,15.3962,15.4579,15.5254,15.6928,15.7491,15.7561,15.7631,15.7281,15.7279,15.7339,15.7033,15.6186,15.538,15.4709,15.373,15.3418,15.3418,15.3104,15.3679,15.5056,15.4674,15.571,15.6479,15.7109,15.7457,15.7324,15.872,16.094,16.1075,16.0568,16.062,16.0336,15.9923,15.9714,16.0998,16.27,16.4115,16.6164,16.8848,17.1408,17.3956,17.6327,17.8732,18.1106,18.2888,18.3467,18.3958,18.4162,18.4511,18.4849,18.5176,18.5403,18.5624,12.5014,12.4509,12.6379,12.6675,12.5923,12.5413,12.6529,12.8481,12.9425,13.0747,13.2446,13.2961,13.3636,13.4492,13.4961,13.552,13.6411,13.6347,13.6255,13.5604,13.5673,13.5437,13.5069,13.4414,13.3883,13.3414,13.3286,13.3445,13.4582,13.6217,13.7494,13.8334,13.7938,13.785,13.8004,13.8134,13.8157,13.8203,13.829,13.8026,13.785,13.7583,13.725,13.725,13.8421,13.9028,13.971,14.1059,14.2247,14.3823,14.464,14.5793,14.6853,14.8086,14.9319,15.0297,15.0207,15.0635,15.1226,15.1393,15.2476,15.3815,15.4732,15.5701,15.6642,15.714,15.7421,15.7631,15.7631,15.7631,15.7773,15.7842,15.7339,15.6893,15.649,15.6069,15.539,15.4781,15.4205,15.3825,15.4769,15.633,15.7724,15.8816,15.9613,16.006,16.0239,16.0281,16.1715,16.347,16.3317,16.224,16.1809,16.1667,16.0108,15.9545,16.1196,16.2976,16.482,16.7509,17.0411,17.2684,17.4464,17.687,17.9436,18.147,18.336,18.3751,18.401,18.4412,18.4753,18.5037,18.5312,18.5654,18.5668,12.7561,12.6875,12.8973,12.9074,12.7779,12.7528,12.809,12.9418,13.0373,13.1762,13.3058,13.354,13.4397,13.5241,13.5769,13.632,13.68,13.7071,13.7226,13.725,13.712,13.7696,13.7518,13.6851,13.6555,13.5852,13.5391,13.5391,13.6555,13.7518,13.8597,13.9276,13.9646,13.9406,13.9209,13.9035,13.9143,13.9312,13.9607,13.971,13.9626,13.9644,13.9389,13.9304,14.0149,14.0813,14.1385,14.2505,14.411,14.5998,14.7058,14.8111,14.9396,15.1197,15.202,15.3106,15.2637,15.2717,15.3037,15.3196,15.3971,15.5409,15.5848,15.6713,15.721,15.7561,15.7561,15.7631,15.7631,15.7631,15.7702,15.7984,15.7912,15.7823,15.7836,15.7516,15.7453,15.6888,15.6725,15.6525,15.6935,15.8617,16.0777,16.1785,16.2586,16.2895,16.3264,16.362,16.4524,16.5435,16.5348,16.3634,16.3129,16.3491,16.2072,16.066,16.2031,16.3601,16.609,16.8784,17.1477,17.3603,17.5093,17.6955,17.9179,18.1316,18.3326,18.3907,18.4112,18.4511,18.4943,18.5176,18.5521,18.5698,18.5828,12.9922,13.0095,13.1183,13.0961,13.0305,13.2758,13.3139,13.1719,13.1531,13.2462,13.4113,13.4586,13.5527,13.6293,13.6541,13.7035,13.7616,13.7421,13.769,13.7957,13.8004,13.8115,13.829,13.8268,13.8134,13.8246,13.8134,13.7706,13.8334,13.8947,13.9474,14.0263,14.0963,14.1492,14.1516,14.1468,14.1445,14.1266,14.1342,14.148,14.1641,14.2041,14.1641,14.156,14.1801,14.2583,14.3284,14.432,14.6109,14.8709,15.1303,15.2776,15.4451,15.6034,15.5576,15.4825,15.3413,15.404,15.4725,15.4959,15.5848,15.6715,15.7281,15.7421,15.7631,15.7631,15.7631,15.7631,15.7631,15.7631,15.7631,15.8053,15.8405,15.8472,15.8584,15.8689,15.8718,15.8972,15.8808,15.9102,15.9566,16.1227,16.33,16.4801,16.5588,16.5668,16.5669,16.608,16.6424,16.7334,16.6617,16.5037,16.4752,16.518,16.4478,16.3141,16.4005,16.4862,16.7359,16.9917,17.2402,17.467,17.5878,17.7311,17.9131,18.071,18.2344,18.3306,18.4061,18.4657,18.5083,18.5432,18.5654,18.5828,18.5828,13.2021,13.0584,13.3518,13.2485,12.9955,13.5029,13.6508,13.5034,13.3976,13.3893,13.4769,13.5584,13.6708,13.797,13.8658,13.9216,14.0647,13.9926,13.958,13.9603,13.8815,13.8509,13.8531,13.8531,13.9145,13.9868,14.0,14.0,14.0088,14.0,13.9934,14.0131,14.0657,14.2726,14.4506,14.4712,14.4619,14.3687,14.3226,14.3352,14.3293,14.3216,14.2984,14.2984,14.3361,14.3895,14.4569,14.5997,14.7825,15.1317,15.3699,15.5173,15.7486,15.8957,15.9027,15.7762,15.6622,15.7048,15.6707,15.6642,15.6856,15.7631,15.7561,15.7631,15.7631,15.7631,15.7631,15.7631,15.7631,15.7631,15.7631,15.7976,15.826,15.8402,15.8615,15.8878,15.9064,16.0175,16.0296,16.079,16.1447,16.3807,16.5873,16.7011,16.7651,16.7861,16.7925,16.8057,16.8257,16.8324,16.7896,16.6678,16.6179,16.5822,16.5186,16.484,16.5552,16.6408,16.8688,17.1185,17.3609,17.5958,17.681,17.7879,17.941,18.0773,18.1879,18.2961,18.4139,18.4896,18.5341,18.5566,18.5785,18.5828,18.5828,13.3627,13.2191,13.5852,13.4164,13.0235,13.5684,13.7065,13.5413,13.4903,13.4917,13.5539,13.6229,13.7736,13.9281,14.0123,14.0957,14.2146,14.1446,14.0723,14.0526,13.9123,13.8816,13.8882,13.9211,13.9956,14.0768,14.1404,14.1535,14.1978,14.1867,14.1054,14.0922,14.2549,14.4489,14.708,14.8097,14.7696,14.6374,14.5794,14.513,14.4869,14.4796,14.4649,14.4569,14.508,14.5513,14.5873,14.6438,14.8878,15.2442,15.4964,15.707,15.988,16.1921,16.1712,16.0235,15.9039,15.925,15.8123,15.7769,15.7838,15.7976,15.8044,15.7976,15.7838,15.7909,15.77,15.7631,15.7631,15.7631,15.777,15.8046,15.8251,15.8326,15.9173,15.939,16.0158,16.1135,16.2175,16.274,16.3585,16.5797,16.6869,16.758,16.8074,16.8347,16.8552,16.8756,16.8823,16.889,16.8819,16.7749,16.7178,16.6464,16.625,16.6755,16.7397,16.8253,17.0036,17.2662,17.4799,17.7016,17.8088,17.9,18.007,18.1021,18.2156,18.3233,18.4339,18.513,18.5447,18.5785,18.5828,18.5828,18.5828,13.4719,13.5196,13.7921,13.5962,13.1755,13.5369,13.5683,13.3752,13.4504,13.5882,13.7201,13.769,13.9098,14.092,14.1713,14.2546,14.3204,14.1841,14.1183,14.092,14.0,13.9079,13.9408,14.0197,14.1295,14.1714,14.2549,14.3607,14.4465,14.4224,14.3937,14.407,14.5411,14.7477,14.9498,15.0131,14.9715,14.8716,14.8942,14.832,14.7828,14.748,14.7065,14.6927,14.7066,14.7345,14.7623,14.8106,15.041,15.3629,15.5946,15.8476,16.1574,16.3477,16.3548,16.2067,16.087,15.9531,15.7982,15.8183,15.8313,15.8447,15.838,15.838,15.8248,15.8392,15.8326,15.784,15.7912,15.7912,15.784,15.8046,15.8251,15.8879,16.014,16.0928,16.1926,16.2985,16.4176,16.5011,16.6146,16.7073,16.7508,16.7934,16.8561,16.8834,16.9108,16.9176,16.9104,16.9104,16.9033,16.8462,16.8391,16.7749,16.7392,16.8248,16.9104,16.9961,17.1591,17.4278,17.6625,17.8327,17.9566,18.043,18.1194,18.1806,18.274,18.3552,18.4486,18.5432,18.5698,18.5828,18.5828,18.5828,18.5828,13.4241,13.3695,13.6493,13.6683,13.5578,13.7711,13.7477,13.6173,13.7195,13.9198,14.1275,14.2085,14.3438,14.4772,14.5196,14.5418,14.4941,14.3485,14.3156,14.2433,14.1446,14.092,14.1446,14.2193,14.2988,14.3863,14.4726,14.5706,14.6922,14.6855,14.698,14.7865,14.9374,15.0583,15.1948,15.2597,15.3269,15.2652,15.2161,15.1167,14.9902,14.9417,14.8937,14.8025,14.8663,14.9149,14.9697,15.0605,15.2705,15.5162,15.7479,15.9595,16.1995,16.3902,16.4255,16.3406,16.2416,16.1499,16.022,15.956,15.916,15.884,15.8709,15.8576,15.873,15.9306,15.8955,15.8328,15.8756,15.8827,15.7701,15.896,15.9583,15.9509,16.0841,16.2114,16.3189,16.3902,16.5314,16.6721,16.6934,16.722,16.7722,16.8074,16.8629,16.897,16.9108,16.9176,16.9176,16.9176,16.9176,16.9176,16.9176,16.8819,16.8605,16.96,17.0528,17.1523,17.37,17.6244,17.8244,17.9634,18.1,18.1615,18.2156,18.2684,18.3287,18.4089,18.4849,18.561,18.5742,18.5828,18.5828,18.5828,18.5828,13.4309,13.3627,13.5401,13.622,13.6288,13.7244,13.738,13.7228,13.821,14.0012,14.2018,14.3703,14.563,14.7196,14.7572,14.7433,14.7556,14.4966,14.4562,14.3945,14.3025,14.2301,14.3054,14.3826,14.5087,14.6347,14.7693,14.8759,14.9789,15.0188,15.0427,15.1664,15.3144,15.3901,15.4213,15.4881,15.5104,15.4682,15.362,15.2699,15.1572,15.095,15.0253,14.9895,15.0821,15.1368,15.1978,15.2891,15.4856,15.6756,15.8018,15.9721,16.1777,16.3545,16.3817,16.2942,16.2724,16.1995,16.0891,16.0781,16.04,15.9669,15.9166,15.9166,15.9559,16.0061,15.9725,15.924,15.9176,15.9531,15.8756,15.9736,16.0922,16.0848,16.1483,16.2898,16.3684,16.4184,16.5245,16.6797,16.7222,16.7508,16.7863,16.8213,16.8698,16.9037,16.9037,16.9176,16.9176,16.9176,16.9176,16.9176,16.9176,16.889,16.9889,17.0956,17.2019,17.3849,17.5884,17.8145,18.0226,18.1529,18.2099,18.2611,18.3125,18.3499,18.4038,18.4657,18.513,18.561,18.5785,18.5828,18.5828,18.5828,18.5914,13.4855,13.4855,13.4855,13.5063,13.5268,13.4995,13.5883,13.7517,13.7552,13.8944,14.1421,14.3417,14.6704,14.8623,14.883,14.8663,14.9119,14.6383,14.5534,14.4825,14.3994,14.3713,14.4777,14.6323,14.7879,14.8763,15.0095,15.1864,15.3265,15.299,15.482,15.6642,15.5925,15.6428,15.6573,15.6436,15.6438,15.58,15.4812,15.3894,15.3182,15.2547,15.1987,15.3098,15.3583,15.3856,15.411,15.4607,15.5741,15.6946,15.8278,15.9839,16.1103,16.28,16.3604,16.3113,16.3004,16.2761,16.2252,16.2163,16.1796,16.1009,16.0483,16.0372,16.1239,16.1334,16.0411,15.9502,16.0231,16.0235,16.0094,16.0516,16.1499,16.185,16.2834,16.3897,16.4325,16.475,16.5528,16.6871,16.7579,16.7863,16.8213,16.8561,16.8902,16.9037,16.9176,16.9305,16.9305,16.9824,16.9629,16.9635,16.9569,17.0362,17.1506,17.2917,17.4512,17.6394,17.826,18.0333,18.1907,18.2558,18.3125,18.3573,18.3604,18.4289,18.4849,18.4943,18.513,18.561,18.5828,18.5828,18.5828,18.5828,18.5914,13.4855,13.4855,13.4855,13.5685,13.6789,13.5477,13.6574,13.8975,13.9,14.0718,14.3841,14.6724,14.9503,15.1656,15.166,15.0636,14.9317,14.7476,14.6809,14.6515,14.6389,14.6679,14.7585,14.9008,15.0264,15.05,15.2069,15.3174,15.4341,15.5473,15.6498,15.7421,15.7281,15.7491,15.7561,15.7491,15.749,15.7131,15.6501,15.6,15.5492,15.4789,15.4356,15.4482,15.4967,15.5741,15.6271,15.6981,15.7757,15.8532,15.9224,15.9892,16.0903,16.2378,16.3288,16.3783,16.3839,16.3798,16.3767,16.3458,16.3205,16.2791,16.2309,16.2351,16.3477,16.5075,16.4783,16.1391,16.1898,16.1219,16.0728,16.1433,16.2349,16.3196,16.4113,16.4609,16.5033,16.5387,16.6094,16.7155,16.7863,16.8213,16.849,16.8834,16.897,16.9108,16.9238,16.9504,17.0073,17.0872,17.0872,17.0933,17.145,17.2749,17.4038,17.5523,17.7154,17.8812,18.0628,18.2206,18.2631,18.3287,18.3803,18.401,18.4089,18.456,18.4849,18.499,18.5176,18.5566,18.5785,18.5828,18.5828,18.5828,18.5989,13.5073,13.5141,13.5073,13.5694,13.6521,13.6452,13.7826,13.9959,14.0633,14.2847,14.6252,14.8808,15.1015,15.2714,15.3265,15.2505,15.1058,14.962,14.8911,14.9004,14.8998,14.9363,15.0378,15.1445,15.2273,15.2625,15.3639,15.4487,15.5173,15.657,15.7351,15.7351,15.7561,15.7769,15.7907,15.8112,15.8042,15.818,15.8174,15.8085,15.7763,15.7181,15.6747,15.6921,15.733,15.7686,15.8227,15.9146,15.9487,16.0125,16.0187,16.0664,16.1472,16.2324,16.3356,16.4174,16.454,16.4903,16.4954,16.4502,16.4047,16.3681,16.4312,16.4437,16.505,16.6415,16.6614,16.3553,16.3461,16.303,16.2404,16.2418,16.3197,16.4396,16.5667,16.6019,16.609,16.6306,16.6518,16.7296,16.8074,16.8421,16.8834,16.9037,16.9171,16.9504,16.9888,17.0263,17.0933,17.1645,17.1876,17.2192,17.3615,17.4924,17.6363,17.7673,17.9055,18.0714,18.2503,18.2815,18.3413,18.3678,18.401,18.4213,18.4263,18.4462,18.4753,18.4943,18.513,18.5403,18.5742,18.5785,18.5828,18.5903,18.6254,13.5776,13.5776,13.5638,13.5843,13.6601,13.7634,13.9148,14.1216,14.2176,14.4736,14.8203,14.959,15.126,15.3064,15.3609,15.3687,15.3047,15.2027,15.1209,15.1192,15.1277,15.1325,15.171,15.2923,15.3629,15.4256,15.5543,15.6423,15.6567,15.6855,15.721,15.7351,15.7561,15.7561,15.8248,15.838,15.8376,15.8775,15.9173,15.9606,15.9992,15.9048,15.9252,15.9826,16.0024,15.9715,16.0024,16.0218,16.0544,16.1198,16.1256,16.1643,16.2364,16.2452,16.2999,16.3779,16.4502,16.5034,16.5062,16.5312,16.5156,16.5094,16.6338,16.6735,16.7156,16.8087,16.7737,16.4829,16.4212,16.3925,16.3889,16.3172,16.4327,16.574,16.673,16.6514,16.6932,16.6942,16.7296,16.8004,16.8421,16.8766,16.897,16.9171,16.9366,17.0009,17.0638,17.1114,17.1703,17.1974,17.2255,17.3935,17.5466,17.6782,17.8097,17.9375,18.0874,18.2522,18.3233,18.334,18.373,18.4061,18.4263,18.4263,18.4263,18.4412,18.4657,18.4896,18.5083,18.5387,18.5566,18.5698,18.5828,18.6211,18.6594,13.8744,13.8613,13.756,13.8772,14.0789,13.9225,14.0671,14.3708,14.3288,14.5433,14.9239,15.0148,15.1893,15.4191,15.4863,15.5014,15.4888,15.3711,15.3255,15.325,15.305,15.2991,15.3312,15.4169,15.5085,15.5318,15.6277,15.664,15.6927,15.7281,15.7631,15.7838,15.8178,15.8447,15.8647,15.884,15.9224,15.9606,15.9786,16.0279,16.0982,16.1039,16.1322,16.1852,16.1796,16.1571,16.1587,16.1587,16.1812,16.1963,16.22,16.2525,16.3205,16.3408,16.3828,16.4595,16.4898,16.4989,16.5328,16.5918,16.6269,16.6038,16.8184,16.9563,16.9988,16.9082,16.8515,16.5915,16.4861,16.4546,16.5317,16.405,16.5141,16.7192,16.7288,16.6445,16.7226,16.7651,16.8004,16.8352,16.8766,16.897,16.9037,16.9238,16.9824,17.0389,17.1053,17.1645,17.2658,17.2928,17.3453,17.5336,17.6517,17.7786,17.92,18.034,18.246,18.3552,18.373,18.3782,18.3987,18.4263,18.4263,18.4263,18.4263,18.4313,18.4511,18.4753,18.499,18.5176,18.5432,18.5654,18.6063,18.6413,18.7357,13.9284,13.9837,13.9282,14.0485,14.2338,14.2023,14.3374,14.5461,14.5464,14.7201,14.9693,15.11,15.2773,15.4901,15.6006,15.7101,15.7337,15.643,15.5763,15.5506,15.477,15.4325,15.4479,15.5161,15.5687,15.5983,15.6495,15.6927,15.7351,15.7561,15.7769,15.8248,15.8514,15.878,15.9042,15.9678,16.03,16.0592,16.0995,16.1628,16.2452,16.2612,16.2697,16.277,16.2559,16.2345,16.2291,16.2291,16.2506,16.2823,16.2927,16.3458,16.4022,16.4334,16.4548,16.4898,16.4989,16.5034,16.5255,16.5623,16.6434,16.6581,16.7686,16.9012,16.9528,16.997,16.9321,16.7639,16.649,16.5451,16.6737,16.5561,16.6542,16.8717,16.8645,16.8043,16.8203,16.8212,16.8421,16.8766,16.897,16.9037,16.9176,16.9569,17.0136,17.0811,17.1528,17.2549,17.3729,17.3953,17.4077,17.5083,17.5377,17.6995,17.9054,18.1209,18.3789,18.4038,18.4162,18.4162,18.4263,18.4263,18.4263,18.4263,18.4313,18.4313,18.4462,18.4657,18.4896,18.513,18.5387,18.5729,18.618,18.7142,18.8456,13.9649,14.0594,14.0932,14.1962,14.3487,14.4969,14.5938,14.6687,14.7822,14.9413,15.0973,15.2362,15.3981,15.5855,15.7436,15.8613,15.8885,15.776,15.735,15.7634,15.6075,15.5306,15.5236,15.5687,15.6057,15.628,15.6928,15.7491,15.7769,15.7838,15.818,15.8451,15.8911,15.9231,15.9866,16.0664,16.13,16.1756,16.2255,16.2823,16.3631,16.3828,16.3877,16.3828,16.3357,16.3051,16.2948,16.2895,16.3103,16.3779,16.3877,16.4287,16.4733,16.4944,16.4944,16.5034,16.5034,16.5328,16.577,16.5963,16.611,16.6552,16.8043,16.8781,16.8854,16.9149,16.9075,16.8432,16.715,16.6315,16.799,16.6975,16.7947,16.974,17.0061,16.9228,16.9206,16.9157,16.9167,16.9366,16.9171,16.9176,16.9238,16.9498,17.0326,17.1114,17.1631,17.2604,17.383,17.4346,17.4737,17.4785,17.4759,17.6822,17.9032,18.2053,18.4189,18.4116,18.4263,18.4263,18.4263,18.4263,18.4263,18.4263,18.4313,18.4363,18.4462,18.456,18.4849,18.5176,18.5432,18.5684,18.6742,18.7819,18.9247,14.2256,14.2451,14.2501,14.4058,14.6156,14.608,14.7269,14.9194,14.9682,15.0647,15.214,15.3696,15.5522,15.7484,15.9038,15.9099,15.858,15.7232,15.7595,15.8379,15.6462,15.5831,15.5909,15.6204,15.657,15.7697,15.8039,15.8313,15.838,15.8514,15.8647,15.9173,15.9804,16.0228,16.0903,16.17,16.2418,16.2948,16.3307,16.3877,16.4595,16.4687,16.4687,16.4687,16.4455,16.4408,16.4287,16.4408,16.4595,16.4853,16.4853,16.4944,16.4989,16.5034,16.5034,16.5034,16.5181,16.577,16.67,16.8162,16.9624,17.1396,17.1678,17.1811,17.0954,16.9623,16.8545,16.7615,16.7085,16.6597,16.9177,16.8274,16.9124,17.1127,17.0778,16.9918,16.9813,17.0065,17.02,17.02,16.9824,16.9504,16.9438,16.9563,17.0504,17.1338,17.1746,17.2421,17.378,17.4638,17.5227,17.5422,17.5864,17.7411,17.9769,18.2495,18.3821,18.4042,18.4263,18.4263,18.4263,18.4263,18.4263,18.4263,18.4363,18.4462,18.456,18.5026,18.534,18.5296,18.5863,18.6868,18.7719,18.8645,19.0788,14.3064,14.4767,14.463,14.5924,14.8071,14.8758,14.9737,15.084,15.0968,15.193,15.3589,15.5057,15.6855,15.8764,16.0387,16.1032,16.0429,16.0091,15.9883,15.8896,15.7486,15.657,15.6715,15.6999,15.742,15.8174,15.851,15.8576,15.8647,15.8714,15.9101,15.9929,16.029,16.1067,16.1756,16.2559,16.3256,16.3657,16.407,16.4595,16.4944,16.5034,16.5034,16.5034,16.5034,16.5034,16.5034,16.5034,16.5034,16.5034,16.4989,16.5034,16.5034,16.5034,16.5034,16.5255,16.5697,16.6774,16.7646,16.9108,17.057,17.1249,17.0715,17.0536,16.9796,16.8242,16.6836,16.6541,16.6319,16.6425,16.8588,16.8443,16.9988,17.1947,17.2001,17.1674,17.17,17.1803,17.1819,17.1173,17.0307,16.9873,16.9824,17.0017,17.075,17.1514,17.1974,17.2875,17.4078,17.4906,17.5496,17.6085,17.6674,17.8222,18.0579,18.22,18.36,18.4042,18.4189,18.4263,18.4263,18.4263,18.4313,18.4363,18.4462,18.456,18.5222,18.5909,18.6395,18.6572,18.7108,18.8081,18.9077,19.0216,19.2174,14.3542,14.5801,14.6118,14.735,14.9151,15.1041,15.1903,15.2188,15.224,15.3275,15.5077,15.6506,15.8228,16.0157,16.1835,16.2686,16.2584,16.2876,16.2434,16.0078,15.8189,15.7766,15.8633,15.8638,15.903,15.9288,15.9166,15.9166,15.9424,15.9606,15.9795,16.0891,16.1358,16.1684,16.2612,16.3531,16.3926,16.407,16.4641,16.4989,16.5034,16.5034,16.5034,16.5034,16.5034,16.5034,16.5034,16.5034,16.5034,16.5034,16.5034,16.5034,16.5034,16.5034,16.5034,16.5328,16.6479,16.7646,16.8488,16.9875,17.0967,17.1213,17.0336,16.8632,16.8336,16.6855,16.5966,16.5777,16.5777,16.6262,16.7554,16.8823,17.0407,17.1951,17.2632,17.2821,17.3046,17.2705,17.2184,17.1637,17.0847,17.0256,17.0442,17.0263,17.0638,17.1761,17.2549,17.3349,17.42,17.5006,17.5569,17.6011,17.7264,17.9622,18.1537,18.2495,18.36,18.4116,18.4189,18.4263,18.4263,18.4263,18.4363,18.4462,18.4634,18.5344,18.5978,18.6785,18.7786,18.8088,18.8428,18.9663,19.0847,19.1903,19.3408,14.4327,14.3484,14.5946,14.7759,14.9127,15.0969,15.2377,15.3352,15.3425,15.4468,15.6188,15.7723,15.9618,16.2108,16.3412,16.3797,16.3084,16.3205,16.1484,15.9929,15.8643,15.9082,16.104,16.0759,16.1009,16.1286,16.0239,16.0532,16.1112,16.1009,16.1358,16.1963,16.2895,16.3357,16.3681,16.4334,16.4853,16.4779,16.4989,16.4989,16.5034,16.5034,16.5034,16.5034,16.5034,16.5034,16.5034,16.5034,16.5034,16.5034,16.5034,16.5034,16.5034,16.5034,16.5034,16.5373,16.6879,16.8488,16.9831,17.1615,17.2907,17.261,17.1589,17.0375,16.885,16.7326,16.6362,16.6362,16.6217,16.6475,16.6916,16.7489,16.9414,17.1707,17.2218,17.2577,17.2705,17.1704,17.1054,17.1582,17.0277,16.9832,16.9978,17.0017,16.9953,17.1645,17.2255,17.3245,17.4225,17.5448,17.6159,17.6527,17.8516,18.0948,18.1905,18.279,18.36,18.4189,18.4189,18.4363,18.4363,18.4462,18.4511,18.4781,18.5418,18.61,18.6953,18.8043,18.9038,18.963,19.0662,19.17,19.2539,19.3404,19.4343,14.5335,14.6412,14.6188,14.7211,14.9123,15.0826,15.2452,15.3595,15.3863,15.5176,15.7415,15.8536,16.0459,16.3103,16.4212,16.4329,16.3947,16.3524,16.2653,16.1426,16.0616,16.104,16.1907,16.2018,16.2035,16.2182,16.1587,16.17,16.22,16.2035,16.2309,16.3051,16.3458,16.3926,16.4381,16.4898,16.4989,16.5034,16.5034,16.5034,16.5034,16.5034,16.5034,16.5034,16.5034,16.5034,16.5034,16.5034,16.5034,16.5034,16.5034,16.5034,16.5034,16.5049,16.5182,16.5256,16.7837,16.9636,17.0801,17.3118,17.4547,17.445,17.2453,17.1123,17.0083,16.8672,16.7632,16.7632,16.7593,16.7706,16.7593,16.7178,16.8452,17.0567,17.0536,17.0699,17.2254,17.1691,17.1733,17.1891,17.1137,17.0216,17.1108,17.0442,17.0689,17.1528,17.2143,17.3245,17.4396,17.594,17.7117,17.7706,17.9179,18.1021,18.2274,18.3281,18.4092,18.4239,18.4313,18.4462,18.456,18.4801,18.4753,18.4927,18.6026,18.7073,18.8458,18.9765,19.0651,19.1682,19.3008,19.3807,19.4076,19.4642,19.5579,14.7035,14.8919,14.772,14.8252,15.0034,15.1569,15.2884,15.3907,15.398,15.549,15.7829,15.8778,16.0704,16.3339,16.4187,16.4715,16.4481,16.395,16.3657,16.3558,16.3154,16.3051,16.3051,16.2843,16.2843,16.2999,16.2506,16.2559,16.2999,16.2843,16.3154,16.3974,16.4144,16.4381,16.4944,16.4989,16.5034,16.5034,16.5034,16.5034,16.5034,16.5034,16.5034,16.5034,16.5034,16.5034,16.5034,16.5034,16.5034,16.5034,16.5079,16.5049,16.5094,16.5269,16.5325,16.5885,16.8422,17.0632,17.1424,17.3922,17.5489,17.5241,17.3202,17.1717,17.1345,17.0083,16.9489,16.934,16.8894,16.8749,16.8531,16.7302,16.7257,16.8953,16.9234,16.9716,17.1082,17.1635,17.2045,17.2588,17.1898,17.1405,17.16,17.1293,17.1114,17.1746,17.2531,17.3577,17.4544,17.5938,17.7485,17.8369,17.9769,18.1316,18.2692,18.3699,18.4289,18.4363,18.4511,18.4657,18.4849,18.499,18.4896,18.4896,18.599,18.7523,18.9245,19.0843,19.2287,19.3313,19.422,19.4673,19.509,19.5018,19.588,15.0093,14.9871,15.1191,15.1586,15.2071,15.3419,15.4152,15.449,15.4445,15.5398,15.7157,15.8743,16.0497,16.2297,16.408,16.4807,16.4853,16.4192,16.3828,16.3926,16.4334,16.4595,16.4502,16.3877,16.3926,16.4287,16.3205,16.338,16.4502,16.3926,16.4096,16.4733,16.4853,16.4989,16.4989,16.5034,16.5034,16.5034,16.5034,16.5034,16.5034,16.5034,16.5034,16.5034,16.5034,16.5034,16.5034,16.5034,16.5034,16.5034,16.5138,16.5195,16.5282,16.5453,16.5653,16.6064,16.897,17.0617,17.1697,17.4235,17.5579,17.4431,17.3688,17.2905,17.1757,17.1311,17.1048,17.1048,16.9786,16.9089,16.9045,16.7599,16.656,16.689,16.8283,16.9445,17.0451,17.1236,17.1713,17.2022,17.2552,17.2638,17.1947,17.1861,17.1803,17.2087,17.2821,17.3678,17.4714,17.6232,17.7632,17.9179,18.08,18.225,18.3528,18.4388,18.4486,18.4609,18.4801,18.5017,18.5204,18.5157,18.499,18.537,18.604,18.779,18.9493,19.097,19.2445,19.3773,19.4603,19.5203,19.528,19.4945,19.5319,15.1037,15.1162,15.0839,15.1206,15.2306,15.2747,15.3582,15.4462,15.4536,15.5416,15.7029,15.8827,16.0534,16.2242,16.4071,16.4944,16.4989,16.4687,16.4475,16.4595,16.4944,16.4989,16.4944,16.4641,16.4733,16.4853,16.4334,16.4455,16.4989,16.4687,16.4687,16.4989,16.5034,16.5034,16.5034,16.5034,16.5034,16.5034,16.5034,16.5034,16.5034,16.5034,16.5034,16.5034,16.5034,16.5034,16.5034,16.5034,16.5034,16.5079,16.5182,16.541,16.5588,16.5866,16.6471,16.7816,17.0016,17.1916,17.3032,17.5079,17.6124,17.549,17.4445,17.3475,17.3177,17.2797,17.2682,17.2534,17.1197,17.0349,17.0207,16.8233,16.6877,16.6914,16.781,16.8308,16.9006,17.0468,17.1565,17.201,17.2699,17.2799,17.277,17.2713,17.264,17.2821,17.3452,17.4298,17.491,17.6748,17.8074,17.9548,18.1439,18.3011,18.4216,18.4609,18.4753,18.4943,18.5204,18.5341,18.5432,18.5341,18.5341,18.564,18.6262,18.8006,18.9383,19.0921,19.2161,19.3628,19.4757,19.487,19.4646,19.4422,19.4347,15.1881,15.2996,15.1938,15.2158,15.3114,15.3187,15.3731,15.4759,15.4759,15.5347,15.6669,15.8832,16.0466,16.179,16.3986,16.5034,16.5034,16.5034,16.5034,16.4989,16.4989,16.5034,16.5034,16.4989,16.5034,16.5034,16.5034,16.4989,16.5034,16.4989,16.5034,16.5034,16.5034,16.5034,16.5034,16.5034,16.5034,16.5034,16.5034,16.5034,16.5034,16.5034,16.5034,16.5034,16.5034,16.5034,16.5034,16.5079,16.5167,16.5256,16.5325,16.5588,16.5991,16.6297,16.7192,16.8904,17.0764,17.2551,17.4042,17.5682,17.6688,17.639,17.5048,17.4338,17.4633,17.407,17.3877,17.4168,17.246,17.1315,17.0875,16.8567,16.6946,16.732,16.7599,16.8052,16.8667,16.983,17.1131,17.2012,17.36,17.407,17.3895,17.4126,17.3955,17.3633,17.4176,17.4679,17.5095,17.6986,17.883,17.962,18.1855,18.3697,18.4506,18.4896,18.5083,18.5312,18.5521,18.561,18.5654,18.561,18.5654,18.6051,18.6817,18.796,18.9292,19.0532,19.1466,19.2739,19.3562,19.3824,19.3824,19.3674,19.3375,15.2967,15.4855,15.5235,15.4972,15.5045,15.4972,15.5235,15.5193,15.5266,15.5297,15.5886,15.8771,16.0201,16.0982,16.3663,16.5034,16.5034,16.5034,16.5034,16.5034,16.5034,16.5034,16.5034,16.5034,16.5034,16.5034,16.5034,16.5034,16.5034,16.5034,16.5034,16.5034,16.5034,16.5034,16.5034,16.5034,16.5034,16.5034,16.5034,16.5034,16.5034,16.5034,16.5034,16.5034,16.5034,16.5034,16.5034,16.5182,16.5325,16.5537,16.5711,16.603,16.6448,16.6669,16.7557,16.9233,17.0837,17.2477,17.4004,17.557,17.6464,17.6017,17.5011,17.4638,17.5157,17.4559,17.4293,17.4654,17.2945,17.1244,17.0839,16.8382,16.6745,16.7617,16.8029,16.8645,16.9174,16.9303,17.0132,17.2844,17.5427,17.6633,17.5551,17.5247,17.5224,17.4458,17.4699,17.5137,17.5178,17.6969,17.8419,17.973,18.1919,18.3935,18.4667,18.5221,18.5447,18.5742,18.5785,18.5828,18.5871,18.5957,18.5999,18.6083,18.6844,18.7304,18.8627,18.9637,19.0609,19.0834,19.1843,19.2403,19.2253,19.2104,19.2104,15.1353,15.3572,15.4793,15.5309,15.5309,15.5309,15.5309,15.5309,15.5309,15.5309,15.5898,15.8698,16.0171,16.0687,16.3634,16.5034,16.5034,16.5034,16.5034,16.5034,16.5034,16.5034,16.5034,16.5034,16.5034,16.5034,16.5034,16.5034,16.5034,16.5034,16.5034,16.5034,16.5034,16.5034,16.5034,16.5138,16.5094,16.5079,16.5138,16.5094,16.5034,16.5034,16.5034,16.5034,16.5034,16.5034,16.5034,16.5313,16.5495,16.562,16.6065,16.6411,16.6634,16.6847,16.7801,16.9505,17.0252,17.1223,17.2867,17.451,17.4923,17.3912,17.4107,17.4,17.3481,17.3818,17.3517,17.2915,17.1643,17.0483,16.968,16.837,16.7858,16.8466,16.8188,16.8803,17.1065,17.0921,17.1885,17.4037,17.6195,17.6584,17.5604,17.5889,17.5687,17.5019,17.5093,17.5271,17.5626,17.7519,17.9665,18.0211,18.2299,18.4167,18.4868,18.5239,18.5457,18.5766,18.5957,18.6041,18.6157,18.6248,18.6255,18.6335,18.6604,18.7019,18.7695,18.8704,18.8928,18.8777,18.9711,19.0758,19.0608,19.0384,19.0525,14.9954,15.214,15.4351,15.5309,15.5309,15.5309,15.5309,15.5309,15.5309,15.5309,15.5751,15.8108,15.9582,16.0245,16.2381,16.3265,16.3265,16.3265,16.3265,16.3265,16.3265,16.3265,16.3339,16.3855,16.415,16.4223,16.4739,16.5034,16.5034,16.5034,16.5034,16.5034,16.5034,16.5079,16.5094,16.5152,16.5195,16.5226,16.5356,16.5313,16.5094,16.5094,16.5138,16.5182,16.5269,16.5356,16.5239,16.5777,16.5946,16.6026,16.6486,16.6851,16.6847,16.7055,16.8077,16.9671,16.9895,17.0643,17.2213,17.3409,17.3409,17.2587,17.2785,17.2459,17.2205,17.2179,17.2105,17.1619,17.1157,16.9923,16.8445,16.7663,16.8045,16.907,16.8998,16.9877,17.1987,17.2492,17.2986,17.4864,17.6016,17.6623,17.6166,17.6276,17.6237,17.5776,17.5606,17.5563,17.5964,17.7711,17.9341,18.0037,18.2259,18.4542,18.4808,18.5023,18.5488,18.5753,18.6166,18.6248,18.6289,18.6335,18.6454,18.6533,18.6646,18.6948,18.721,18.8068,18.8068,18.7991,18.829,18.9113,18.8888,18.8739,18.8947,14.8825,15.0667,15.3761,15.5087,15.5309,15.5309,15.5309,15.5309,15.5309,15.5309,15.553,15.7003,15.855,15.9994,16.0141,16.0215,16.0288,16.0479,16.0479,16.0509,16.0436,16.0288,16.0288,16.1645,16.2381,16.2529,16.3781,16.4592,16.4813,16.496,16.5034,16.5034,16.5079,16.5094,16.5239,16.5282,16.5368,16.5569,16.5537,16.5527,16.5282,16.5282,16.5453,16.5579,16.5785,16.5792,16.5872,16.6335,16.6596,16.6702,16.6986,16.723,16.732,16.732,16.7993,16.9446,16.9745,17.0418,17.169,17.2138,17.2138,17.1914,17.0867,17.0502,17.1155,17.0423,17.0094,17.0987,17.1057,16.9938,16.7079,16.7117,16.8007,16.9744,17.028,17.1416,17.3246,17.3755,17.4412,17.5402,17.5906,17.6286,17.6992,17.701,17.6651,17.634,17.6099,17.6058,17.6156,17.7311,17.8425,17.9156,18.1022,18.3388,18.3521,18.4055,18.492,18.5854,18.6335,18.6454,18.6454,18.6494,18.6571,18.6761,18.6836,18.6986,18.7096,18.7243,18.7318,18.7468,18.7842,18.7842,18.7842,18.7393,18.7667,14.7204,14.8825,15.0888,15.3098,15.5235,15.5309,15.5309,15.5309,15.5309,15.5309,15.5456,15.6929,15.7973,15.8584,15.8584,15.9248,16.025,16.0523,16.0523,16.0281,16.0281,16.027,16.0215,16.0613,16.0878,16.0834,16.135,16.2087,16.3265,16.4371,16.5049,16.5182,16.5226,16.5239,16.5453,16.5662,16.5777,16.5579,16.5818,16.5777,16.5579,16.5946,16.6143,16.6065,16.6104,16.6143,16.6143,16.6523,16.6741,16.6737,16.7122,16.7288,16.7352,16.7352,16.7577,16.8025,16.81,16.825,16.8698,16.9895,17.0044,16.8998,16.9596,16.9563,16.8974,16.9138,16.9006,16.8529,17.0132,17.0058,16.7698,16.907,17.0227,17.0265,17.0784,17.2105,17.4377,17.5153,17.5682,17.6602,17.6505,17.6834,17.7222,17.7264,17.7074,17.6613,17.6535,17.6458,17.6449,17.7524,17.8565,17.8508,18.0267,18.1736,18.2159,18.3061,18.4701,18.5858,18.6571,18.6723,18.6648,18.6874,18.706,18.6911,18.706,18.7132,18.724,18.724,18.7279,18.7169,18.7354,18.7465,18.7311,18.7435,18.7712,14.6738,14.8135,14.9167,15.1453,15.437,15.5181,15.5444,15.5485,15.5444,15.5444,15.5673,15.6559,15.7084,15.7166,15.7166,15.7609,15.8537,15.8732,15.8692,15.8611,15.857,15.8529,15.8552,15.8985,15.9354,15.9322,15.9889,16.07,16.1702,16.2573,16.3133,16.3116,16.3116,16.3245,16.3531,16.3737,16.4115,16.4666,16.5061,16.4729,16.4053,16.496,16.5481,16.5407,16.6188,16.6596,16.6633,16.6882,16.7021,16.7055,16.7222,16.7352,16.7352,16.7352,16.7352,16.7352,16.7352,16.7352,16.7352,16.8325,16.8175,16.653,16.7951,16.8175,16.6679,16.7712,16.7842,16.6474,16.826,16.9145,16.7694,16.9762,17.1287,17.0889,17.1666,17.2925,17.4428,17.533,17.6033,17.633,17.6734,17.708,17.7108,17.7208,17.7039,17.6799,17.6725,17.665,17.6535,17.7202,17.7758,17.7867,17.862,17.9669,18.0677,18.2133,18.385,18.5268,18.6388,18.6986,18.6948,18.7096,18.7169,18.7169,18.7132,18.7204,18.7265,18.7442,18.7543,18.7725,18.7694,18.7662,18.7662,18.7834,18.7725,14.6897,14.8001,14.8296,15.0068,15.2801,15.4352,15.5097,15.533,15.5393,15.5433,15.526,15.5408,15.5482,15.5743,15.5704,15.5852,15.6113,15.5965,15.6039,15.6074,15.5926,15.5926,15.6143,15.724,15.7905,15.8174,15.9143,15.9723,16.0102,16.0123,16.0067,16.0171,16.0258,16.046,16.0523,16.0803,16.1671,16.3203,16.3585,16.2987,16.1652,16.3062,16.3988,16.3988,16.5827,16.6815,16.6591,16.6839,16.6904,16.6979,16.6829,16.6904,16.6829,16.6829,16.6904,16.6829,16.6829,16.6904,16.6904,16.7053,16.6605,16.5333,16.638,16.6605,16.5302,16.64,16.6532,16.5609,16.6573,16.7767,16.7436,16.9426,17.0736,17.0574,17.227,17.3707,17.3498,17.472,17.5557,17.5056,17.6109,17.6861,17.6535,17.683,17.6869,17.6837,17.6837,17.68,17.6725,17.6761,17.6797,17.6837,17.6873,17.7729,17.9369,18.0931,18.2462,18.4067,18.5673,18.6086,18.6235,18.6385,18.6944,18.6496,18.672,18.6856,18.7116,18.7323,18.7262,18.7267,18.7655,18.8061,18.8312,18.8137,18.7476,14.638,14.6786,14.7969,14.8857,14.967,15.1371,15.2036,15.2223,15.3406,15.3338,15.2598,15.2414,15.3081,15.4341,15.4267,15.5046,15.6196,15.6381,15.6307,15.6231,15.6193,15.6116,15.5961,15.6217,15.6439,15.6479,15.6695,15.7461,15.8446,15.8552,15.9132,16.011,16.044,16.0729,16.097,16.1091,16.1354,16.1764,16.1241,16.1401,16.2391,16.2826,16.311,16.3303,16.3764,16.4017,16.4017,16.3724,16.3614,16.3614,16.3614,16.3614,16.3614,16.3614,16.3614,16.3614,16.3614,16.3614,16.3688,16.481,16.5408,16.5034,16.5333,16.5408,16.5184,16.6498,16.7073,16.6898,16.811,16.8904,16.8379,16.985,17.076,16.9984,17.1378,17.2423,17.2437,17.3267,17.3948,17.3951,17.4667,17.532,17.5476,17.6298,17.7045,17.7085,17.716,17.7015,17.6908,17.6761,17.6872,17.7015,17.6979,17.7687,17.9397,18.0214,18.1037,18.2458,18.3131,18.3504,18.3729,18.4551,18.5185,18.5295,18.526,18.5495,18.5593,18.4919,18.4926,18.6127,18.6476,18.6805,18.7809,18.7447,18.644,14.655,14.6558,14.7337,14.8117,14.8748,14.9636,15.0525,15.134,15.1414,15.104,15.0549,15.1183,15.1999,15.2887,15.3089,15.409,15.5555,15.5869,15.6306,15.6791,15.702,15.701,15.6839,15.5995,15.5623,15.573,15.5257,15.5565,15.6456,15.7123,15.7752,15.8529,15.8977,15.9261,15.9365,15.9558,16.0028,16.07,15.8139,15.7267,15.8222,15.8972,15.9476,15.9631,16.0456,16.0907,16.0832,16.0576,16.037,16.037,16.031,16.0249,16.0249,16.0922,16.0996,16.0398,16.1595,16.2118,16.137,16.2941,16.3539,16.2866,16.4137,16.4137,16.1894,16.2354,16.308,16.3837,16.6509,16.8078,16.823,17.0267,17.1075,16.9659,17.1035,17.1641,17.1147,17.1815,17.2442,17.2464,17.3202,17.4119,17.4681,17.5578,17.6326,17.7148,17.7298,17.7189,17.7085,17.705,17.7344,17.8161,17.7678,17.7942,17.9432,17.984,18.0139,18.0887,18.1635,18.2084,18.2233,18.2956,18.3697,18.3805,18.3954,18.4152,18.4594,18.3816,18.3936,18.4958,18.5211,18.5438,18.6194,18.6083,18.5031,14.6976,14.6788,14.6755,14.7544,14.8631,14.8595,14.9518,15.0772,14.9207,14.8612,14.8944,15.0484,15.1262,15.1492,15.2068,15.3024,15.427,15.4894,15.5752,15.6858,15.7129,15.7302,15.7227,15.5752,15.5076,15.5125,15.44,15.4067,15.4384,15.5485,15.6093,15.6093,15.642,15.6623,15.6605,15.6849,15.7805,15.9282,15.5224,15.3095,15.3171,15.4499,15.5251,15.5401,15.6853,15.758,15.7254,15.6995,15.6755,15.653,15.6388,15.6329,15.6375,15.7497,15.7692,15.654,15.8858,15.9875,15.8753,15.9949,16.0323,15.9576,16.1968,16.1775,15.7497,15.7227,15.8106,15.9856,16.3164,16.5864,16.7422,16.9716,17.0568,16.9444,17.0429,17.0808,16.9444,17.012,17.0533,17.0362,17.1692,17.2985,17.3788,17.4514,17.5529,17.655,17.7074,17.7298,17.7264,17.7298,17.7896,17.8868,17.8263,17.8073,17.9071,17.9562,17.9726,17.9927,18.0967,18.1374,18.1781,18.2215,18.247,18.2499,18.2752,18.3035,18.3372,18.3417,18.3285,18.3884,18.4081,18.4248,18.4702,18.4125,18.3334,14.7103,14.7115,14.6954,14.7037,14.7301,14.7167,14.7356,14.7538,14.6168,0.0,0.0,14.8169,14.9295,15.0678,15.0871,15.192,15.3522,15.3495,15.3546,15.3798,15.3847,15.3895,15.3895,15.357,15.342,15.342,15.3223,15.3172,15.3143,15.3368,15.3362,15.3178,15.3233,15.3341,15.3547,15.3699,15.4403,15.5445,15.422,15.3716,15.394,15.4017,15.413,15.4206,15.4508,15.4016,15.2731,15.2258,15.1445,15.0093,14.9993,14.9945,14.9995,15.0091,15.0059,14.965,15.0061,15.0827,15.1873,15.2247,15.3444,15.5837,15.6584,15.6059,15.4197,15.6421,15.857,16.0295,16.1539,16.281,16.4243,16.6516,16.793,16.7627,16.7854,16.793,16.7614,16.7579,16.7547,16.7682,16.9736,17.1342,17.1466,17.3556,17.5281,17.5379,17.6401,17.7298,17.7298,17.7257,17.7474,17.7882,17.7948,17.7863,17.8193,17.8574,17.922,18.0296,17.9796,17.9671,18.0751,18.1255,18.128,18.128,18.133,18.1494,18.1696,18.0943,18.0523,18.2203,18.2562,18.2927,18.385,18.2489,18.074,14.493,14.4796,14.4705,14.4688,0.0,14.453,14.4498,14.4424,14.3837,14.4498,14.618,14.641,14.7618,14.9318,14.9648,15.071,15.2144,15.2471,15.2979,15.36,15.3677,15.3807,15.3731,15.2976,15.2599,15.2599,15.2318,15.2176,15.2134,15.2887,15.3242,15.3101,15.3348,15.3564,15.3659,15.3734,15.2734,15.0799,15.1313,15.1694,15.1724,15.0817,15.0332,15.0408,14.9528,0.0,0.0,0.0,0.0,0.0,0.0,0.0,0.0,14.5383,0.0,14.2019,14.3212,14.362,14.2817,14.4237,14.618,14.8646,14.9572,14.8799,14.5793,14.9492,15.2993,15.547,15.7017,15.8729,16.0942,16.2435,16.3309,16.3385,16.4066,16.4597,16.4672,16.5185,16.5899,16.6599,16.787,16.9381,17.0614,17.211,17.3285,17.4844,17.5669,17.6326,17.7108,17.7573,17.783,17.7934,17.8055,17.8464,17.9167,17.897,17.8842,17.9369,17.8993,17.8842,17.952,17.9811,18.002,18.002,18.0145,18.0281,18.0365,17.9869,17.9674,18.0551,18.0834,18.1176,18.1744,18.0892,17.9796,14.2742,14.2554,14.2451,14.2438,14.2245,14.1678,14.1604,14.1902,14.1902,14.3013,14.4841,14.504,14.6023,14.7423,14.7951,14.895,15.0207,15.0935,15.1773,15.2813,15.3073,15.2932,15.2629,15.172,15.1265,15.1254,15.118,15.1115,15.1115,15.2399,15.3004,15.3004,15.3356,15.3401,15.3147,0.0,0.0,0.0,14.8025,14.8531,14.8531,14.7192,14.6485,14.6457,14.5115,0.0,14.3847,14.3555,14.3336,14.3034,14.2871,0.0,0.0,0.0,0.0,0.0,0.0,0.0,0.0,0.0,0.0,0.0,14.1105,14.0344,13.7741,14.1856,14.6094,14.9414,15.1594,15.3992,15.6891,15.7725,15.831,15.8613,15.9825,16.0961,16.1643,16.2855,16.4229,16.5549,16.6348,16.7605,16.978,17.0537,17.1814,17.4413,17.4997,17.5574,17.6879,17.7802,17.8441,17.8465,17.8417,17.8993,18.0421,17.9457,17.8887,17.9049,17.8973,17.8844,17.9243,17.9373,17.9202,17.9202,17.9387,17.9656,17.9684,17.9608,17.9608,17.9635,17.9673,17.9656,17.9796,17.9816,17.9826,14.2873,14.277,14.2583,14.2497,14.2273,13.9576,13.9257,14.0602,14.0602,14.1666,14.3562,14.4156,14.4477,14.4736,14.5073,14.6057,14.7622,14.7758,14.7921,14.8049,14.8073,14.7327,14.5963,14.7175,14.7781,14.7857,14.9185,14.993,14.9843,15.007,15.0221,15.0233,15.0257,14.9587,14.816,14.8073,14.777,14.7175,14.5876,14.5194,14.527,14.5032,14.4933,14.4948,14.4708,14.3836,14.227,14.2166,14.1485,14.0035,13.9959,13.916,13.7424,13.4574,13.1931,0.0,12.5606,0.0,0.0,0.0,0.0,0.0,0.0,0.0,0.0,13.7783,14.1412,14.4661,14.6849,14.8656,15.0256,15.2049,15.3689,15.4977,15.5356,15.6719,15.9522,16.0052,16.0873,16.2513,16.5315,16.7049,16.7245,16.9665,17.1772,17.3293,17.4477,17.5281,17.6134,17.7211,17.8135,17.8465,17.8465,17.8348,17.8956,17.9272,17.9781,18.1083,18.0311,17.9963,18.1219,18.0432,17.9538,17.9538,17.9567,17.9621,17.9597,17.9609,17.9621,17.9754,17.9624,17.9503,17.955,17.9583,17.9847,14.0059,14.0059,13.9902,13.9875,13.98,13.8387,13.8264,13.8937,13.8937,13.9417,14.0295,14.1673,14.304,14.4225,14.4518,14.5054,14.5736,14.5736,14.5736,14.5736,14.5736,14.5357,14.4675,14.5357,14.5736,14.5736,14.6493,14.6872,14.6872,14.6872,14.6872,14.6872,14.6872,14.5584,14.3085,14.2933,14.3463,14.4297,14.3615,14.3691,14.4524,14.3799,14.3258,14.3191,14.2392,14.1472,14.0657,14.0582,13.9836,13.8269,13.8205,13.6127,13.1678,12.8929,12.5009,0.0,0.0,0.0,0.0,0.0,0.0,0.0,0.0,0.0,0.0,0.0,13.4782,13.7254,14.0866,14.249,14.1251,14.4403,14.6493,14.6266,14.7099,14.8614,15.1038,15.3765,15.6113,15.778,16.0885,16.3271,16.4007,16.5986,16.8173,17.0605,17.1043,17.1682,17.342,17.4403,17.5235,17.6142,17.6293,17.6346,17.6523,17.7479,17.8837,18.0276,18.0125,17.9822,18.0579,18.0076,17.9648,17.9648,17.9685,17.9721,17.9743,17.9743,17.9754,17.9493,17.8353,17.728,17.7147,17.7841,17.8534,13.7815,13.7441,13.2653,13.1633,13.3106,13.318,13.4153,13.5675,13.5676,13.5701,13.5822,13.7233,13.8652,14.0053,13.9852,14.0681,14.2218,14.2218,14.2835,14.3994,14.3994,14.3842,14.3463,14.3842,14.4069,14.4069,14.4448,14.46,14.46,14.4221,14.3994,14.3918,14.2392,14.0574,13.8454,13.8746,13.9817,14.1494,14.1873,14.2565,14.3409,14.2323,14.1651,14.1556,14.0362,13.9529,13.9055,13.9045,13.8288,13.6734,13.5891,13.268,12.6809,12.332,0.0,0.0,0.0,0.0,0.0,0.0,0.0,0.0,0.0,11.303,11.6335,0.0,12.7365,0.0,13.4414,13.6649,13.4906,13.7747,0.0,0.0,13.9211,14.0563,14.2597,14.661,15.0018,15.1924,15.5495,15.8449,16.0128,16.2252,16.4247,16.5819,16.6307,16.7475,16.9823,17.0884,17.1868,17.3067,17.3356,17.3383,17.3446,17.4747,17.6413,17.8155,17.8383,17.8458,17.8396,17.8448,17.8409,17.8496,17.8541,17.8583,17.8536,17.8612,17.8546,17.8496,17.6685,17.4919,17.4995,17.5982,17.6893,13.7815,13.6144,11.7817,11.3879,11.961,11.976,12.346,12.9466,12.9284,12.9406,12.9721,12.9521,12.8919,12.8056,12.6497,0.0,13.5299,13.5299,13.7781,14.2252,14.2327,14.1494,14.0055,14.157,14.2252,14.2327,14.3918,14.46,14.4448,14.3009,14.2252,14.21,13.6225,13.3768,13.4904,13.6494,13.8042,13.9752,14.1267,14.144,14.0201,14.0019,13.9993,13.9946,13.9841,13.8999,13.7519,13.7407,13.6633,13.4881,13.1891,12.8598,12.4839,0.0,0.0,0.0,0.0,0.0,0.0,0.0,0.0,0.0,0.0,0.0,0.0,0.0,0.0,12.265,12.7509,0.0,13.4426,13.3635,0.0,0.0,0.0,13.4211,13.7342,13.9372,14.1819,14.506,0.0,0.0,15.4965,15.9282,16.1239,15.8348,16.1933,16.4975,16.5203,16.7702,16.9747,16.9747,16.9899,16.9823,16.9747,17.1111,17.2702,17.4292,17.4974,17.5,17.4974,17.4998,17.5021,17.5216,17.5151,17.5256,17.519,17.5129,17.5149,17.5127,17.4916,17.4767,17.4467,17.4694,17.4849,12.3234,11.6027,10.8087,10.6891,11.0228,11.0302,11.4967,12.2448,12.2327,12.367,12.5849,12.4613,12.2129,11.8869,11.7239,0.0,0.0,0.0,12.9588,13.4601,13.6592,13.775,13.8161,13.8843,13.8616,13.7717,13.8313,13.8161,13.7101,13.748,13.4548,12.8377,0.0,12.4256,12.6864,13.0607,13.3844,13.6646,13.9329,14.0353,13.9801,13.9733,13.9757,13.9773,13.8815,13.7994,13.7229,13.6381,13.4099,13.0382,12.8004,12.3386,0.0,0.0,0.0,0.0,0.0,0.0,0.0,0.0,0.0,0.0,0.0,9.9145,10.1571,0.0,0.0,0.0,11.553,11.7921,12.2302,12.5759,0.0,0.0,0.0,0.0,0.0,0.0,0.0,13.6749,14.3219,14.8164,14.9767,15.1772,15.331,15.4068,15.5886,15.7855,15.9825,0.0,16.2703,16.4748,16.4142,16.3839,16.49,16.5581,16.6654,16.8282,17.0212,17.1534,17.1632,17.1663,17.2156,17.3034,17.3369,17.3631,17.4658,17.1488,16.8921,16.8941,16.8942,16.8942,16.8942,16.9777,17.0766,10.4784,0.0,0.0,0.0,0.0,9.7559,10.3063,11.2112,11.1498,11.3424,11.6772,11.4955,0.0,0.0,0.0,0.0,0.0,0.0,12.0968,12.6067,13.0892,13.3585,13.4374,13.4364,13.3671,13.2535,13.2071,13.1141,12.9918,12.8231,12.3209,11.5161,0.0,0.0,0.0,0.0,12.9994,13.3949,13.7812,13.9757,13.9801,13.9339,13.9112,13.9043,13.7493,13.6219,13.5156,13.3623,13.042,12.5412,12.2184,0.0,0.0,0.0,0.0,0.0,0.0,0.0,0.0,0.0,0.0,0.0,0.0,0.0,0.0,0.0,0.0,0.0,0.0,0.0,11.2218,11.8277,12.0976,0.0,0.0,0.0,0.0,0.0,0.0,0.0,0.0,0.0,14.1944,14.3733,14.619,0.0,0.0,15.2489,15.525,15.6072,15.7284,15.9645,15.8974,0.0,15.919,15.9645,16.0425,16.1594,16.4203,16.6128,16.6147,16.5803,16.6002,16.7029,16.8196,16.8375,16.7333,16.3472,16.0896,16.0746,16.0746,16.0746,16.0822,16.2113,16.3556,0.0,0.0,0.0,0.0,7.9474,0.0,0.0,0.0,9.5764,9.7177,0.0,9.8536,0.0,0.0,0.0,0.0,10.0025,10.6452,0.0,0.0,12.5699,12.891,12.7471,12.743,12.7334,12.7258,12.5613,12.4583,12.3828,11.4708,0.0,0.0,0.0,0.0,0.0,0.0,12.7188,13.2119,13.7153,13.979,13.9889,13.8371,13.7536,13.754,13.587,13.3531,13.044,12.86,12.5384,12.0358,11.3836,0.0,0.0,0.0,0.0,0.0,0.0,0.0,0.0,0.0,0.0,0.0,0.0,0.0,0.0,0.0,0.0,0.0,0.0,0.0,0.0,11.2179,0.0,0.0,0.0,0.0,0.0,0.0,0.0,0.0,0.0,13.1894,13.0502,13.5706,14.1061,14.4379,0.0,0.0,0.0,0.0,15.4848,15.4973,15.4906,15.4375,15.285,15.3911,15.4973,15.5049,0.0,0.0,15.762,15.6367,15.5412,15.5516,15.8199,15.7843,15.0039,14.966,15.0496,15.0496,15.0496,15.0496,15.0648,15.1862,15.3077,0.0,0.0,0.0,0.0,0.0,0.0,0.0,0.0,0.0,8.7079,9.1301,8.9686,0.0,0.0,0.0,0.0,0.0,0.0,0.0,0.0,11.3138,11.7396,11.8834,11.8867,11.8282,11.7088,11.5401,11.0617,0.0,0.0,0.0,0.0,0.0,0.0,0.0,0.0,12.3173,12.7534,13.5596,13.9362,13.8314,13.771,13.7485,13.7422,13.5818,13.2854,12.8539,12.358,11.8621,0.0,0.0,0.0,0.0,0.0,0.0,0.0,0.0,0.0,0.0,0.0,0.0,0.0,0.0,0.0,0.0,0.0,0.0,0.0,0.0,0.0,0.0,0.0,10.7644,0.0,0.0,0.0,0.0,0.0,0.0,0.0,0.0,0.0,12.1872,12.6421,13.2008,13.7482,14.1081,14.4231,14.6985,0.0,0.0,0.0,0.0,0.0,0.0,0.0,14.9496,14.8426,14.873,14.8821,14.7794,14.6306,14.5506,14.6601,0.0,0.0,13.7891,13.8346,14.0168,14.0168,14.0166,14.0165,14.0167,14.1535,14.2978,0.0,0.0,0.0,0.0,0.0,0.0,0.0,0.0,0.0,7.5188,7.9406,0.0,0.0,0.0,0.0,0.0,0.0,0.0,0.0,0.0,0.0,0.0,10.779,10.832,0.0,0.0,0.0,0.0,0.0,0.0,0.0,0.0,0.0,0.0,0.0,0.0,12.0657,12.4997,13.4272,13.8556,13.7426,13.6894,13.6592,13.6519,13.4998,13.1803,12.6788,0.0,0.0,0.0,0.0,0.0,0.0,0.0,0.0,0.0,0.0,0.0,0.0,0.0,0.0,0.0,0.0,0.0,0.0,0.0,0.0,0.0,0.0,0.0,0.0,0.0,10.0388,0.0,0.0,0.0,0.0,0.0,0.0,0.0,0.0,0.0,0.0,11.8266,12.3924,13.0527,13.5291,13.9359,14.2717,14.6003,14.8599,0.0,0.0,0.0,0.0,0.0,0.0,0.0,0.0,0.0,0.0,0.0,0.0,0.0,0.0,13.0297,12.3692,12.4676,12.6724,12.7331,0.0,0.0,0.0,0.0,0.0,0.0,0.0,0.0,0.0,0.0,0.0,0.0,0.0,0.0,0.0,6.4516,0.0,0.0,6.2305,0.0,0.0,0.0,0.0,0.0,0.0,0.0,0.0,0.0,0.0,0.0,0.0,0.0,0.0,0.0,0.0,0.0,0.0,0.0,0.0,0.0,0.0,11.9536,12.4653,13.3096,13.7436,13.7284,13.5917,13.5157,13.4926,13.3259,13.0068,12.4964,0.0,0.0,0.0,0.0,0.0,0.0,0.0,0.0,0.0,0.0,0.0,0.0,0.0,0.0,0.0,0.0,0.0,0.0,0.0,0.0,0.0,0.0,0.0,0.0,0.0,0.0,9.7159,10.1789,10.3363,0.0,0.0,0.0,0.0,0.0,0.0,0.0,0.0,0.0,12.3674,13.0382,13.5964,13.9354,14.2702,14.4835,14.5083,14.5007,14.4399,14.2805,14.2577,14.1281,0.0,0.0,0.0,0.0,0.0,0.0,0.0,0.0,0.0,0.0,0.0,0.0,0.0,0.0,0.0,0.0,0.0,0.0,0.0,0.0,0.0,0.0,0.0,0.0,0.0,0.0,0.0,0.0,0.0,0.0,0.0,0.0,0.0,0.0,0.0,0.0,0.0,0.0,0.0,0.0,0.0,0.0,0.0,0.0,0.0,0.0,0.0,0.0,0.0,0.0,0.0,0.0,0.0,0.0,11.621,12.1416,13.1961,13.6828,13.5689,13.6373,13.6144,13.4849,13.1055,12.6646,12.161,0.0,0.0,0.0,0.0,0.0,0.0,0.0,0.0,0.0,0.0,0.0,0.0,0.0,0.0,0.0,0.0,0.0,0.0,0.0,0.0,0.0,0.0,0.0,0.0,0.0,0.0,0.0,9.8168,9.9373,9.8183,0.0,0.0,0.0,0.0,0.0,0.0,0.0,0.0,0.0,0.0,13.0036,13.5587,13.9246,14.1835,14.3052,14.3204,14.2672,14.0996,14.1679,14.0537,13.4831,0.0,0.0,0.0,0.0,0.0,0.0,0.0,0.0,0.0,0.0,0.0,0.0,0.0,0.0,0.0,0.0,0.0,0.0,0.0,0.0,0.0,0.0,0.0,0.0,0.0,0.0,0.0,0.0,0.0,0.0,0.0,0.0,0.0,0.0,0.0,0.0,0.0,0.0,0.0,0.0,0.0,0.0,0.0,0.0,0.0,0.0,0.0,0.0,0.0,0.0,0.0,0.0,0.0,11.4421,11.9012,12.9913,13.5082,13.4095,13.5006,13.5081,13.4017,12.9764,12.4822,0.0,0.0,0.0,0.0,0.0,0.0,0.0,0.0,0.0,0.0,0.0,0.0,0.0,0.0,0.0,0.0,0.0,0.0,0.0,0.0,0.0,0.0,0.0,0.0,0.0,0.0,0.0,0.0,9.286,9.4909,9.5423,0.0,0.0,0.0,0.0,0.0,0.0,0.0,0.0,0.0,0.0,12.4287,13.0211,13.4017,0.0,0.0,13.8726,13.8347,13.7282,13.7965,13.6596,13.0515,12.6254,0.0,0.0,0.0,0.0,0.0,0.0,0.0,0.0,0.0,0.0,0.0,0.0,0.0,0.0,0.0,0.0,0.0,0.0,0.0,0.0,0.0,0.0,0.0,0.0,0.0,0.0,0.0,0.0,0.0,0.0,0.0,0.0,0.0,0.0,0.0,0.0,0.0,0.0,0.0,0.0,0.0,0.0,0.0,0.0,0.0,0.0,0.0,0.0,0.0,0.0,0.0,0.0,11.3768,11.7587,12.7409,13.2652,13.2576,13.2652,13.2652,13.25,12.9081,12.399,0.0,0.0,0.0,0.0,0.0,0.0,0.0,0.0,0.0,0.0,0.0,0.0,0.0,0.0,0.0,0.0,0.0,0.0,0.0,0.0,0.0,0.0,0.0,0.0,0.0,0.0,0.0,0.0,0.0,0.0,0.0,0.0,0.0,0.0,0.0,0.0,0.0,0.0,0.0,0.0,0.0,11.8822,12.4067,12.7564,13.0146,0.0,13.2044,13.2044,13.2044,13.212,13.0526,12.5436,0.0,0.0,0.0,0.0,0.0,0.0,0.0,0.0,0.0,0.0,0.0,0.0,0.0,0.0,0.0,0.0,0.0,0.0,0.0,0.0,0.0,0.0,0.0,0.0,0.0,0.0,0.0,0.0,0.0,0.0,0.0,0.0,0.0,0.0,0.0,0.0,0.0,0.0,0.0,0.0,0.0,0.0,0.0,0.0,0.0,0.0,0.0,0.0,0.0,0.0,0.0,0.0,0.0,0.0,11.7435,12.7409,13.2576,13.2652,13.3715,13.3791,13.2497,12.6801,0.0,0.0,0.0,0.0,0.0,0.0,0.0,0.0,0.0,0.0,0.0,0.0,0.0,0.0,0.0,0.0,0.0,0.0,0.0,0.0,0.0,0.0,0.0,0.0,0.0,0.0,0.0,7.464,0.0,0.0,0.0,0.0,0.0,0.0,0.0,0.0,0.0,0.0,0.0,0.0,0.0,0.0,11.4576,12.2094,12.3843,12.4983,0.0,0.0,12.6881,12.6881,12.7944,12.7033,0.0,0.0,0.0,0.0,0.0,0.0,0.0,0.0,0.0,0.0,0.0,0.0,0.0,0.0,0.0,0.0,0.0,0.0,0.0,0.0,0.0,0.0,0.0,0.0,0.0,0.0,0.0,0.0,0.0,0.0,0.0,0.0,0.0,0.0,0.0,0.0,0.0,0.0,0.0,0.0,0.0,0.0,0.0,0.0,0.0,0.0,0.0,0.0,0.0,0.0,0.0,0.0,0.0,0.0,10.8152,11.433,12.4143,12.9614,13.0374,13.1969,13.2424,13.1512,12.4904,11.8598,0.0,0.0,0.0,0.0,0.0,0.0,0.0,0.0,0.0,0.0,0.0,0.0,0.0,0.0,0.0,0.0,0.0,0.0,0.0,0.0,0.0,0.0,0.0,0.0,0.0,0.0,0.0,0.0,0.0,0.0,0.0,0.0,0.0,0.0,0.0,0.0,0.0,0.0,0.0,0.0,0.0,0.0,11.8065,11.8525,0.0,0.0,0.0,12.0731,12.0731,0.0,0.0,0.0,0.0,0.0,0.0,0.0,0.0,0.0,0.0,0.0,0.0,0.0,0.0,0.0,0.0,0.0,0.0,0.0,0.0,0.0,0.0,0.0,0.0,0.0,0.0,0.0,0.0,0.0,0.0,0.0,0.0,0.0,0.0,0.0,0.0,0.0,0.0,0.0,0.0,0.0,0.0,0.0,0.0,0.0,0.0,0.0,0.0,0.0,0.0,0.0,0.0,0.0,0.0,0.0,0.0,0.0,11.0161,11.951,12.5437,12.7413,12.8931,12.9767,12.9691,12.3539,11.7766,0.0,0.0,0.0,0.0,0.0,0.0,0.0,0.0,0.0,0.0,0.0,0.0,0.0,0.0,0.0,0.0,0.0,0.0,0.0,0.0,0.0,0.0,0.0,0.0,0.0,0.0,0.0,0.0,0.0,0.0,0.0,0.0,0.0,0.0,0.0,0.0,0.0,0.0,0.0,0.0,0.0,10.6665,11.297,11.2571,11.1614,0.0,0.0,11.3897,11.3896,11.3895,0.0,0.0,0.0,0.0,0.0,0.0,0.0,0.0,0.0,0.0,0.0,0.0,0.0,0.0,0.0,0.0,0.0,0.0,0.0,0.0,0.0,0.0,0.0,0.0,0.0,0.0,0.0,0.0,0.0,0.0,0.0,0.0,0.0,0.0,0.0,0.0,0.0,0.0,0.0,0.0,0.0,0.0,0.0,0.0,0.0,0.0,0.0,0.0,0.0,0.0,0.0,0.0,0.0,0.0,0.0,0.0,10.9934,11.7232,12.3083,12.7337,12.7868,12.802,12.7944,12.4072,11.8376,0.0,0.0,0.0,0.0,0.0,0.0,0.0,0.0,0.0,0.0,0.0,0.0,0.0,0.0,0.0,0.0,0.0,0.0,0.0,0.0,0.0,0.0,0.0,0.0,0.0,0.0,0.0,0.0,0.0,0.0,0.0,0.0,0.0,0.0,0.0,0.0,0.0,0.0,0.0,0.0,0.0,10.2854,10.7984,10.7479,0.0,0.0,0.0,0.0,10.6883,10.6969,0.0,0.0,0.0,0.0,0.0,0.0,0.0,0.0,0.0,0.0,0.0,0.0,0.0,0.0,0.0,0.0,0.0,0.0,0.0,0.0,0.0,0.0,0.0,0.0,0.0,0.0,0.0,0.0,0.0,0.0,0.0,0.0,0.0,0.0,0.0,0.0,0.0,0.0,0.0,0.0,0.0,0.0,0.0,0.0,0.0,0.0,0.0,0.0,0.0,0.0,0.0,0.0,0.0,0.0,0.0,0.0,10.6214,11.3737,12.0348,12.6046,12.6274,12.6729,12.7413,12.3464,11.7314,0.0,0.0,0.0,0.0,0.0,0.0,0.0,0.0,0.0,0.0,0.0,0.0,0.0,0.0,0.0,0.0,0.0,0.0,0.0,0.0,0.0,0.0,0.0,0.0,0.0,0.0,0.0,0.0,0.0,0.0,0.0,0.0,0.0,0.0,0.0,0.0,0.0,0.0,0.0,0.0,9.4032,9.7804,10.1858,0.0,0.0,0.0,0.0,0.0,0.0,10.1242,10.0714,0.0,0.0,0.0,0.0,0.0,0.0,0.0,0.0,0.0,0.0,0.0,0.0,0.0,0.0,0.0,0.0,0.0,0.0,0.0,0.0,0.0,0.0,0.0,0.0,0.0,0.0,0.0,0.0,0.0,0.0,0.0,0.0,0.0,0.0,0.0,0.0,0.0,0.0,0.0,0.0,0.0,0.0,0.0,0.0,0.0,0.0,0.0,0.0,0.0,0.0,0.0,0.0,0.0,0.0,0.0,10.196,10.9706,11.7078,12.3919,12.4451,12.521,12.6501,12.2325,11.5795,10.6987,0.0,0.0,0.0,0.0,0.0,0.0,0.0,0.0,0.0,0.0,0.0,0.0,0.0,0.0,0.0,0.0,0.0,0.0,0.0,0.0,0.0,0.0,0.0,0.0,0.0,0.0,0.0,0.0,0.0,0.0,0.0,0.0,0.0,0.0,0.0,0.0,0.0,0.0,0.0,8.9298,9.2292,0.0,0.0,0.0,0.0,0.0,0.0,0.0,0.0,9.5123,0.0,0.0,0.0,0.0,0.0,0.0,0.0,0.0,0.0,0.0,0.0,0.0,0.0,0.0,0.0,0.0,0.0,0.0,0.0,0.0,0.0,0.0,0.0,0.0,0.0,0.0,0.0,0.0,0.0,0.0,0.0,0.0,0.0,0.0,0.0,0.0,0.0,0.0,0.0,0.0,0.0,0.0,0.0,0.0,0.0,0.0,0.0,0.0,0.0,0.0,0.0,0.0,0.0,0.0,0.0,0.0,10.5742,11.2582,12.0339,12.2085,12.2924,12.3158,12.1108,11.4654,10.3643,0.0,0.0,0.0,0.0,0.0,0.0,0.0,0.0,0.0,0.0,0.0,0.0,0.0,0.0,0.0,0.0,0.0,0.0,0.0,0.0,0.0,0.0,0.0,0.0,0.0,0.0,0.0,0.0,0.0,0.0,0.0,0.0,0.0,0.0,0.0,0.0,0.0,0.0,7.4562,8.1509,0.0,0.0,0.0,0.0,0.0,0.0,0.0,0.0,8.8772,0.0,0.0,0.0,0.0,0.0,0.0,0.0,0.0,0.0,0.0,0.0,0.0,0.0,0.0,0.0,0.0,0.0,0.0,0.0,0.0,0.0,0.0,0.0,0.0,0.0,0.0,0.0,0.0,0.0,0.0,0.0,0.0,0.0,0.0,0.0,0.0,0.0,0.0,0.0,0.0,0.0,0.0,0.0,0.0,0.0,0.0,0.0,0.0,0.0,0.0,0.0,0.0,0.0,0.0,0.0,0.0,0.0,0.0,11.1061,11.8361,12.0257,12.155,12.2239,11.7384,11.0401,0.0,0.0,0.0,0.0,0.0,0.0,0.0,0.0,0.0,0.0,0.0,0.0,0.0,0.0,0.0,0.0,0.0,0.0,0.0,0.0,0.0,0.0,0.0,0.0,0.0,0.0,0.0,0.0,0.0,0.0,0.0,0.0,0.0,0.0,0.0,0.0,0.0,0.0,0.0,0.0,0.0,0.0,0.0,0.0,0.0,0.0,0.0,0.0,0.0,0.0,0.0,0.0,0.0,0.0,0.0,0.0,0.0,0.0,0.0,0.0,0.0,0.0,0.0,0.0,0.0,0.0,0.0,0.0,0.0,0.0,0.0,0.0,0.0,0.0,0.0,0.0,0.0,0.0,0.0,0.0,0.0,0.0,0.0,0.0,0.0,0.0,0.0,0.0,0.0,0.0,0.0,0.0,0.0,0.0,0.0,0.0,0.0,0.0,0.0,0.0,0.0,0.0,0.0,0.0,0.0,0.0,0.0,0.0,10.9686,11.615,11.8658,12.0406,12.132,11.2978,10.5238,0.0,0.0,0.0,0.0,0.0,0.0,0.0,0.0,0.0,0.0,0.0,0.0,0.0,0.0,0.0,0.0,0.0,0.0,0.0,0.0,0.0,0.0,0.0,0.0,0.0,0.0,0.0,0.0,0.0,0.0,0.0,0.0,0.0,0.0,0.0,0.0,0.0,0.0,0.0,0.0,0.0,0.0,0.0,0.0,0.0,0.0,0.0,0.0,8.2813,0.0,0.0,0.0,0.0,0.0,0.0,0.0,0.0,0.0,0.0,0.0,0.0,0.0,0.0,0.0,0.0,0.0,0.0,0.0,0.0,0.0,0.0,0.0,0.0,0.0,0.0,0.0,0.0,0.0,0.0,0.0,0.0,0.0,0.0,0.0,0.0,0.0,0.0,0.0,0.0,0.0,0.0,0.0,0.0,0.0,0.0,0.0,0.0,0.0,0.0,0.0,0.0,0.0,0.0,0.0,0.0,0.0,0.0,0.0,10.6171,11.2773,11.7498,11.9333,11.7749,10.8345,10.0148,0.0,0.0,0.0,0.0,0.0,0.0,0.0,0.0,0.0,0.0,0.0,0.0,0.0,0.0,0.0,0.0,0.0,0.0,0.0,0.0,0.0,0.0,0.0,0.0,0.0,0.0,0.0,0.0,0.0,0.0,0.0,0.0,0.0,0.0,0.0,0.0,0.0,0.0,0.0,0.0,0.0,0.0,0.0,0.0,0.0,0.0,0.0,0.0,0.0,0.0,0.0,0.0,0.0,0.0,0.0,0.0,0.0,0.0,0.0,0.0,0.0,0.0,0.0,0.0,0.0,0.0,0.0,0.0,0.0,0.0,0.0,0.0,0.0,0.0,0.0,0.0,0.0,0.0,0.0,0.0,0.0,0.0,0.0,0.0,0.0,0.0,0.0,0.0,0.0,0.0,0.0,0.0,0.0,0.0,0.0,0.0,0.0,0.0,0.0,0.0,0.0,0.0,0.0,0.0,0.0,0.0,0.0,0.0,10.2779,10.9458,11.3563,11.2966,10.736,10.1368,9.5065,0.0,0.0,0.0,0.0,0.0,0.0,0.0,0.0,0.0,0.0,0.0,0.0,0.0,0.0,0.0,0.0,0.0,0.0,0.0,0.0,0.0,0.0,0.0,0.0,0.0,0.0,0.0,0.0,0.0,0.0,0.0,0.0,0.0,0.0,0.0,0.0,0.0,0.0,0.0,0.0,0.0,0.0,0.0,0.0,0.0,0.0,0.0,0.0,0.0,0.0,0.0,0.0,0.0,0.0,0.0,0.0,0.0,0.0,0.0,0.0,0.0,0.0,0.0,0.0,0.0,0.0,0.0,0.0,0.0,0.0,0.0,0.0,0.0,0.0,0.0,0.0,0.0,0.0,0.0,0.0,0.0,0.0,0.0,0.0,0.0,0.0,0.0,0.0,0.0,0.0,0.0,0.0,0.0,0.0,0.0,0.0,0.0,0.0,0.0,0.0,0.0,0.0,0.0,0.0,0.0,0.0,0.0,0.0,0.0,10.4539,10.5989,10.3871,9.8179,9.4377,8.9435,0.0,0.0,0.0,0.0,0.0,0.0,0.0,0.0,0.0,0.0,0.0,0.0,0.0,0.0,0.0,0.0,0.0,0.0,0.0,0.0,0.0,0.0,0.0,0.0,0.0,0.0,0.0,0.0,0.0,0.0,0.0,0.0,0.0,0.0,0.0,0.0,0.0,0.0,0.0,0.0,0.0,0.0,0.0,0.0,0.0,0.0,0.0,0.0,0.0,0.0,0.0,0.0,0.0,0.0,0.0,0.0,0.0,0.0,0.0,0.0,0.0,0.0,0.0,0.0,0.0,0.0,0.0,0.0,0.0,0.0,0.0,0.0,0.0,0.0,0.0,0.0,0.0,0.0,0.0,0.0,0.0,0.0,0.0,0.0,0.0,0.0,0.0,0.0,0.0,0.0,0.0,0.0,0.0,0.0,0.0,0.0,0.0,0.0,0.0,0.0,0.0,0.0,0.0,0.0,0.0,0.0,0.0,0.0,0.0,9.7857,9.3547,9.1793,9.2779,8.807,8.3135,0.0,0.0,0.0,0.0,0.0,0.0,0.0,0.0,0.0,0.0,0.0,0.0,0.0,0.0,0.0,0.0,0.0,0.0,0.0,0.0,0.0,0.0,0.0,0.0,0.0,0.0,0.0,0.0,0.0,0.0,0.0,0.0,0.0,0.0,0.0,0.0,0.0,0.0,0.0,0.0,0.0,0.0,0.0,0.0,0.0,0.0,0.0,0.0,0.0,0.0,0.0,0.0,0.0,0.0,0.0,0.0,0.0,0.0,0.0,0.0,0.0,0.0,0.0,0.0,0.0,0.0,0.0,0.0,0.0,0.0,0.0,0.0,0.0,0.0,0.0,0.0,0.0,0.0,0.0,0.0,0.0,0.0,0.0,0.0,0.0,0.0,0.0,0.0,0.0,0.0,0.0,0.0,0.0,0.0,0.0,0.0,0.0,0.0,0.0,0.0,0.0,0.0,0.0,0.0,0.0,0.0,0.0,0.0,0.0,8.3373,8.3517,8.3506,8.3127,8.1221,7.7876,7.3019,0.0,0.0,0.0,0.0,0.0,0.0,0.0,0.0,0.0,0.0,0.0,0.0,0.0,0.0,0.0,0.0,0.0,0.0,0.0,0.0,0.0,0.0,0.0,0.0,0.0,0.0,0.0,0.0,0.0,0.0,0.0,0.0,0.0,0.0,0.0,0.0,0.0,0.0,0.0,0.0,0.0,0.0,0.0,0.0,0.0,0.0,0.0,0.0,0.0,0.0,0.0,0.0,0.0,0.0,0.0,0.0,0.0,0.0,0.0,0.0,0.0,0.0,0.0,0.0,0.0,0.0,0.0,0.0,0.0,0.0,0.0,0.0,0.0,0.0,0.0,0.0,0.0,0.0,0.0,0.0,0.0,0.0,0.0,0.0,0.0,0.0,0.0,0.0,0.0,0.0,0.0,0.0,0.0,0.0,0.0,0.0,0.0,0.0,0.0,0.0,0.0,0.0,0.0,0.0,0.0,0.0,0.0,0.0,7.3489,7.568,7.6508,7.5977,7.5359,7.3226,0.0,0.0,0.0,0.0,0.0,0.0,0.0,0.0,0.0,0.0,0.0,0.0,0.0,0.0,0.0,0.0,0.0,0.0,0.0,0.0,0.0,0.0,0.0,0.0,0.0,0.0,0.0,0.0,0.0,0.0,0.0,0.0,0.0,0.0,0.0,0.0,0.0,0.0,0.0,0.0,0.0,0.0,0.0,0.0,0.0,0.0,0.0,0.0,0.0,0.0,0.0,0.0,0.0,0.0,0.0,0.0,0.0,0.0,0.0,0.0,0.0,0.0,0.0,0.0,0.0,0.0,0.0,0.0,0.0,0.0,0.0,0.0,0.0,0.0,0.0,0.0,0.0,0.0,0.0,0.0,0.0,0.0,0.0,0.0,0.0,0.0,0.0,0.0,0.0,0.0,0.0,0.0,0.0,0.0,0.0,0.0,0.0,0.0,0.0,0.0,0.0,0.0,0.0,0.0,0.0,0.0,0.0,0.0,6.5062,6.9759,7.0125,7.0952,7.2394,7.0952,6.9204,0.0,0.0,0.0,0.0,0.0,0.0,0.0,0.0,0.0,0.0,0.0,0.0,0.0,0.0,0.0,0.0,0.0,0.0,0.0,0.0,0.0,0.0,0.0,0.0,0.0,0.0,0.0,0.0,0.0,0.0,0.0,0.0,0.0,0.0,0.0,0.0,0.0,0.0,0.0,0.0,0.0,0.0,0.0,0.0,0.0,0.0,0.0,0.0,0.0,0.0,0.0,0.0,0.0,0.0,0.0,0.0,0.0,0.0,0.0,0.0,0.0,0.0,0.0,0.0,0.0,0.0,0.0,0.0,0.0,0.0,0.0,0.0,0.0,0.0,0.0,0.0,0.0,0.0,0.0,0.0,0.0,0.0,0.0,0.0,0.0,0.0,0.0,0.0,0.0,0.0,0.0,0.0,0.0,0.0,0.0,0.0,0.0,0.0,0.0,0.0,0.0,0.0,0.0,0.0,0.0,0.0,0.0,0.0,0.0,6.4739,0.0,6.6852,6.7307,6.6852,6.579,0.0,0.0,0.0,0.0,0.0,0.0,0.0,0.0,0.0,0.0,0.0,0.0,0.0,0.0,0.0,0.0,0.0,0.0,0.0,0.0,0.0,0.0,0.0,0.0,0.0,0.0,0.0,0.0,0.0,0.0,0.0,0.0,0.0,0.0,0.0,0.0,0.0,0.0,0.0,0.0,0.0,0.0,0.0,0.0,0.0,0.0,0.0,0.0,0.0,0.0,0.0,0.0,0.0,0.0,0.0,0.0,0.0,0.0,0.0,0.0,0.0,0.0,0.0,0.0,0.0,0.0,0.0,0.0,0.0,0.0,0.0,0.0,0.0,0.0,0.0,0.0,0.0,0.0,0.0,0.0,0.0,0.0,0.0,0.0,0.0,0.0,0.0,0.0,0.0,0.0,0.0,0.0,0.0,0.0,0.0,0.0,0.0,0.0,0.0,0.0,0.0,0.0,0.0,0.0,0.0,0.0,0.0,0.0,0.0,6.1543,6.3136,6.4272,6.4879,6.435,6.3516,0.0,0.0,0.0,0.0,0.0,0.0,0.0,0.0,0.0,0.0,0.0,0.0,0.0,0.0,0.0,0.0,0.0,0.0,0.0,0.0,0.0,0.0,0.0,0.0,0.0,0.0,0.0,0.0,0.0,0.0,0.0,0.0,0.0,0.0,0.0,0.0,0.0,0.0,0.0,0.0,0.0,0.0,0.0,0.0,0.0,0.0,0.0,0.0,0.0,0.0,0.0,0.0,0.0,0.0,0.0,0.0,0.0,0.0,0.0,0.0,0.0,0.0,0.0,0.0,0.0,0.0,0.0,0.0,0.0,0.0,0.0,0.0,0.0,0.0,0.0,0.0,0.0,0.0,0.0,0.0,0.0,0.0,0.0,0.0,0.0,0.0,0.0,0.0,0.0,0.0,0.0,0.0,0.0,0.0,0.0,0.0,0.0,0.0,0.0,0.0,0.0,0.0,0.0,0.0,0.0,0.0,0.0,0.0,0.0,5.9947,6.1467,6.306,6.45,6.3136,6.2304,0.0,0.0,0.0,0.0,0.0,0.0,0.0,0.0,0.0,0.0,0.0,0.0,0.0,0.0,0.0,0.0,0.0,0.0,0.0,0.0,0.0,0.0,0.0,0.0,0.0,0.0,0.0,0.0,0.0,0.0,0.0,0.0,0.0,0.0,0.0,0.0,0.0,0.0,0.0,0.0,0.0,0.0,0.0,0.0,0.0,0.0,0.0,0.0,0.0,0.0,0.0,0.0,0.0,0.0,0.0,0.0,0.0,0.0,0.0,0.0,0.0,0.0,0.0,0.0,0.0,0.0,0.0,0.0,0.0,0.0,0.0,0.0,0.0,0.0,0.0,0.0,0.0,0.0,0.0,0.0,0.0,0.0,0.0,0.0,0.0,0.0,0.0,0.0,0.0,0.0,0.0,0.0,0.0,0.0,0.0,0.0,0.0,0.0,0.0,0.0,0.0,0.0,0.0,0.0,0.0,0.0,0.0,0.0,0.0,0.0,6.0329,6.0784,6.1237,6.086,6.0556,6.0556,0.0,0.0,0.0,0.0,0.0,0.0,0.0,0.0,0.0,0.0,0.0,0.0,0.0,0.0,0.0,0.0,0.0,0.0,0.0,0.0,0.0,0.0,0.0,0.0,0.0,0.0,0.0,0.0,0.0,0.0,0.0,0.0,0.0,0.0,0.0,0.0,0.0,0.0,0.0,0.0,0.0,0.0,0.0,0.0,0.0,0.0,0.0,0.0,0.0,0.0,0.0,0.0,0.0,0.0,0.0,0.0,0.0,0.0,0.0,0.0,0.0,0.0,0.0,0.0,0.0,0.0,0.0,0.0,0.0,0.0,0.0,0.0,0.0,0.0,0.0,0.0,0.0,0.0,0.0,0.0,0.0,0.0,0.0,0.0,0.0,0.0,0.0,0.0,0.0,0.0,0.0,0.0,0.0,0.0,0.0,0.0,0.0,0.0,0.0,0.0,0.0,0.0,0.0,0.0,0.0,0.0,0.0,0.0,0.0,0.0,5.9858,5.9866,5.9866,5.9866,0.0,0.0,0.0,0.0,0.0,0.0,0.0,0.0,0.0,0.0,0.0,0.0,0.0,0.0,0.0,0.0,0.0,0.0,0.0,0.0,0.0,0.0,0.0,0.0,0.0,0.0,0.0,0.0,0.0,0.0,0.0,0.0,0.0,0.0,0.0,0.0,0.0,0.0,0.0,0.0,0.0,0.0,0.0,0.0,0.0,0.0,0.0,0.0,0.0,0.0,0.0,0.0,0.0,0.0,0.0,0.0,0.0,0.0,0.0,0.0,0.0,0.0,0.0,0.0,0.0,0.0,0.0,0.0,0.0,0.0,0.0,0.0,0.0,0.0,0.0,0.0,0.0,0.0,0.0,0.0,0.0,0.0,0.0,0.0,0.0,0.0,0.0,0.0,0.0,0.0,0.0,0.0,0.0,0.0,0.0,0.0,0.0,0.0,0.0,0.0,0.0,0.0,0.0,0.0,0.0,0.0,0.0,0.0,0.0,0.0,0.0,5.9838,5.9856,5.9856,0.0,5.9871,0.0,0.0,0.0,0.0,0.0,0.0,0.0,0.0,0.0,0.0,0.0,0.0,0.0,0.0,0.0,0.0,0.0,0.0,0.0,0.0,0.0,0.0,0.0,0.0,0.0,0.0,0.0,0.0,0.0,0.0,0.0,0.0,0.0,0.0,0.0,0.0,0.0,0.0,0.0,0.0,0.0,0.0,0.0,0.0,0.0,0.0,0.0,0.0,0.0,0.0,0.0,0.0,0.0,0.0,0.0,0.0,0.0,0.0,0.0,0.0,0.0,0.0,0.0,0.0,0.0,0.0,0.0,0.0,0.0,0.0,0.0,0.0,0.0,0.0,0.0,0.0,0.0,0.0,0.0,0.0,0.0,0.0,0.0,0.0,0.0,0.0,0.0,0.0,0.0,0.0,0.0,0.0,0.0,0.0,0.0,0.0,0.0,0.0,0.0,0.0,0.0,0.0,0.0,0.0,0.0,0.0,0.0,0.0,0.0,0.0,0.0,0.0,5.9856,5.9861,5.9871,0.0,0.0,0.0,0.0,0.0,0.0,0.0,0.0,0.0,0.0,0.0,0.0,0.0,0.0,0.0,0.0,0.0,0.0,0.0,0.0,0.0,0.0,0.0,0.0,0.0,0.0,0.0,0.0,0.0,0.0,0.0,0.0,0.0,0.0,0.0,0.0,0.0,0.0,0.0,0.0,0.0,0.0,0.0,0.0,0.0,0.0,0.0,0.0,0.0,0.0,0.0,0.0,0.0,0.0,0.0,0.0,0.0,0.0,0.0,0.0,0.0,0.0,0.0,0.0,0.0,0.0,0.0,0.0,0.0,0.0,0.0,0.0,0.0,0.0,0.0,0.0,0.0,0.0,0.0,0.0,0.0,0.0,0.0,0.0,0.0,0.0,0.0,0.0,0.0,0.0,0.0,0.0,0.0,0.0,0.0,0.0,0.0,0.0,0.0,0.0,0.0,0.0,0.0,0.0,0.0,0.0,0.0,0.0,0.0,0.0,5.9885,5.9831,5.9841,5.9853,5.9866,0.0,0.0,0.0,0.0,0.0,0.0,0.0,0.0,0.0,0.0,0.0,0.0,0.0,0.0,0.0,0.0,0.0,0.0,0.0,0.0,0.0,0.0,0.0,0.0,0.0,0.0,0.0,0.0,0.0,0.0,0.0,0.0,0.0,0.0,0.0,0.0,0.0,0.0,0.0,0.0,0.0,0.0,0.0,0.0,0.0,0.0,0.0,0.0,0.0,0.0,0.0,0.0,0.0,0.0,0.0,0.0,0.0,0.0,0.0,0.0,0.0,0.0,0.0,0.0,0.0,0.0,0.0,0.0,0.0,0.0,0.0,0.0,0.0,0.0,0.0,0.0,0.0,0.0,0.0,0.0,0.0,0.0,0.0,0.0,0.0,0.0,0.0,0.0,0.0,0.0,0.0,0.0,0.0,0.0,0.0,0.0,0.0,0.0,0.0,0.0,0.0,0.0,0.0,0.0,0.0,0.0,0.0,0.0,0.0,0.0,5.9238,0.0,0.0,0.0,5.9856,0.0,0.0,0.0,0.0,0.0,0.0,0.0,0.0,0.0,0.0,0.0,0.0,0.0,0.0,0.0,0.0,0.0,0.0,0.0,0.0,0.0,0.0,0.0,0.0,0.0,0.0,0.0,0.0,0.0,0.0,0.0,0.0,0.0,0.0,0.0,0.0,0.0,0.0,0.0,0.0,0.0,0.0,0.0,0.0,0.0,0.0,0.0,0.0,0.0,0.0,0.0,0.0,0.0,0.0,0.0,0.0,0.0,0.0,0.0,0.0,0.0,0.0,0.0,0.0,0.0,0.0,0.0,0.0,0.0,0.0,0.0,0.0,0.0,0.0,0.0,0.0,0.0,0.0,0.0,0.0,0.0,0.0,0.0,0.0,0.0,0.0,0.0,0.0,0.0,0.0,0.0,0.0,0.0,0.0,0.0,0.0,0.0,0.0,0.0,0.0,0.0,0.0,0.0,0.0,0.0,0.0,0.0,0.0,0.0,0.0,0.0,0.0,0.0,0.0,0.0,0.0,0.0,0.0,0.0,0.0,0.0,0.0,0.0,0.0,0.0,0.0,0.0,0.0,0.0,0.0,0.0,0.0,0.0,0.0,0.0,0.0,0.0,0.0,0.0,0.0,0.0,0.0,0.0,0.0,0.0,0.0,0.0,0.0,0.0,0.0,0.0,0.0,0.0,0.0,0.0,0.0,0.0,0.0,0.0,0.0,0.0,0.0,0.0,0.0,0.0,0.0,0.0,0.0,0.0,0.0,0.0,0.0,0.0,0.0,0.0,0.0,0.0,0.0,0.0,0.0,0.0,0.0,0.0,0.0,0.0,0.0,0.0,0.0,0.0,0.0,0.0,0.0,0.0,0.0,0.0,0.0,0.0,0.0,0.0,0.0,0.0,0.0,0.0,0.0,0.0,0.0,0.0,0.0,0.0,0.0,0.0,0.0,0.0,0.0,0.0,0.0,0.0,0.0,0.0,0.0,0.0,0.0,0.0,0.0,0.0,0.0,0.0,0.0,0.0,0.0,0.0,0.0,0.0,0.0,0.0,0.0,0.0,0.0,0.0,0.0,0.0,0.0,0.0,0.0,0.0,0.0,0.0,0.0,0.0,0.0,0.0,0.0,0.0,0.0,0.0,0.0,0.0,0.0,0.0,0.0,0.0,0.0,0.0,0.0,0.0,0.0,0.0,0.0,0.0,0.0,0.0,0.0,0.0,0.0,0.0,0.0,0.0,0.0,0.0,0.0,0.0,0.0,0.0,0.0,0.0,0.0,0.0,0.0,0.0,0.0,0.0,0.0,0.0,0.0,0.0,0.0,0.0,0.0,0.0,0.0,0.0,0.0,0.0,0.0,0.0,0.0,0.0,0.0,0.0,0.0,0.0,0.0,0.0,0.0,0.0,0.0,0.0,0.0,0.0,0.0,0.0,0.0,0.0,0.0,0.0,0.0,0.0,0.0,0.0,0.0,0.0,0.0,0.0,0.0,0.0,0.0,0.0,0.0,0.0,0.0,0.0,0.0,0.0,0.0,0.0,0.0,0.0,0.0,0.0,0.0,0.0,0.0,0.0,0.0,0.0,0.0,0.0,0.0,0.0,0.0,0.0,0.0,0.0,0.0,0.0,0.0,0.0,0.0,0.0,0.0,0.0,0.0,0.0,0.0,0.0,0.0,0.0,0.0,0.0,0.0,0.0,0.0,0.0,0.0,0.0,0.0,0.0,0.0,0.0,0.0,0.0,0.0,0.0,0.0,0.0,0.0,0.0,0.0,0.0,0.0,0.0,0.0,0.0,0.0,0.0,0.0,0.0,0.0,0.0,0.0,0.0,0.0,0.0,0.0,0.0,0.0,0.0,0.0,0.0,0.0,0.0,0.0,0.0,0.0,0.0,0.0,0.0,0.0,0.0,0.0,0.0,0.0,0.0,0.0,0.0,0.0,0.0,0.0,0.0,0.0,0.0,0.0,0.0,0.0,0.0,0.0,0.0,0.0,0.0,0.0,0.0,0.0,0.0,0.0,0.0,0.0,0.0,0.0,0.0,0.0,0.0,0.0,0.0,0.0,0.0,0.0,0.0,0.0,0.0,0.0,0.0,0.0,0.0,0.0,0.0,0.0,0.0,0.0,0.0,0.0,0.0,0.0,0.0,0.0,0.0,0.0,0.0,0.0,0.0,0.0,0.0,0.0,0.0,0.0,0.0,0.0,0.0,0.0,0.0,0.0,0.0,0.0,0.0,0.0,0.0,0.0,0.0,0.0,0.0,0.0,0.0,0.0,0.0,0.0,0.0,0.0,0.0,0.0,0.0,0.0,0.0,0.0,0.0,0.0,0.0,0.0,0.0,0.0,0.0,0.0,0.0,0.0,0.0,0.0,0.0,0.0,0.0,0.0,0.0,0.0,0.0,0.0,0.0,0.0,0.0,0.0,0.0,0.0,0.0,0.0,0.0,0.0,0.0,0.0,0.0,0.0,0.0,0.0,0.0,0.0,0.0,0.0,0.0,0.0,0.0,0.0,0.0,0.0,0.0,0.0,0.0,0.0,0.0,0.0,0.0,0.0,0.0,0.0,0.0,0.0,0.0,0.0,0.0,0.0,0.0,0.0,0.0,0.0,0.0,0.0,0.0,0.0,0.0,0.0,0.0,0.0,0.0,0.0,0.0,0.0,0.0,0.0,0.0,0.0,0.0,0.0,0.0,0.0,0.0,0.0,0.0,0.0,0.0,0.0,0.0,0.0,0.0,0.0,0.0,0.0,0.0,0.0,0.0,0.0,0.0,0.0,0.0,0.0,0.0,0.0,0.0,0.0,0.0,0.0,0.0,0.0,0.0,0.0,0.0,0.0,0.0,0.0,0.0,0.0,0.0,0.0,0.0,0.0,0.0,0.0,0.0,0.0,0.0,0.0,0.0,0.0,0.0,0.0,0.0,0.0,0.0,0.0,0.0,0.0,0.0,0.0,0.0,0.0,0.0,0.0,0.0,0.0,0.0,0.0,0.0,0.0,0.0,0.0,0.0,0.0,0.0,0.0,0.0,0.0,0.0,0.0,0.0,0.0,0.0,0.0,0.0,0.0,0.0,0.0,0.0,0.0,0.0,0.0,0.0,0.0,0.0,0.0,0.0,0.0,0.0,0.0,0.0,0.0,0.0,0.0,0.0,0.0,0.0,0.0,0.0,0.0,0.0,0.0,0.0,0.0,0.0,0.0,0.0,0.0,0.0,0.0,0.0,0.0,0.0,0.0,0.0,0.0,0.0,0.0,0.0,0.0,0.0,0.0,0.0,0.0,0.0,0.0,0.0,0.0,0.0,0.0,0.0,0.0,0.0,0.0,0.0,0.0,0.0,0.0,0.0,0.0,0.0,0.0,0.0,0.0,0.0,0.0,0.0,0.0,0.0,0.0,0.0,0.0,0.0,0.0,0.0,0.0,0.0,0.0,0.0,0.0,0.0,0.0,0.0,0.0,0.0,0.0,0.0,0.0,0.0,0.0,0.0,0.0,0.0,0.0,0.0,0.0,0.0,0.0,0.0,0.0,0.0,0.0,0.0,0.0,0.0,0.0,0.0,0.0,0.0,0.0,0.0,0.0,0.0,0.0,0.0,0.0,0.0,0.0,0.0,0.0,0.0,0.0,0.0,0.0,0.0,0.0,0.0,0.0,0.0,0.0,0.0,0.0,0.0,0.0,0.0,0.0,0.0,0.0,0.0,0.0,0.0,0.0,0.0,0.0,0.0,0.0,0.0,0.0,0.0,0.0,0.0,0.0,0.0,0.0,0.0,0.0,0.0,0.0,0.0,0.0,0.0,0.0,0.0,0.0,0.0,0.0,0.0,0.0,0.0,0.0,0.0,0.0,0.0,0.0,0.0,0.0,0.0,0.0,0.0,0.0,0.0,0.0,0.0,0.0,0.0,0.0,0.0,0.0,0.0,0.0,0.0,0.0,0.0,0.0,0.0,0.0,0.0,0.0,0.0,0.0,0.0,0.0,0.0,0.0,0.0,0.0,0.0,0.0,0.0,0.0,0.0,0.0,0.0,0.0,0.0,0.0,0.0,0.0,0.0,0.0,0.0,0.0,0.0,0.0,0.0,0.0,0.0,0.0,0.0,0.0,0.0,0.0,0.0,0.0,0.0,0.0,0.0,0.0,0.0,0.0,0.0,0.0,0.0,0.0,0.0,0.0,0.0,0.0,0.0,0.0,0.0,0.0,0.0,0.0,0.0,0.0,0.0,0.0,0.0,0.0,0.0,0.0,0.0,0.0,0.0,0.0,0.0,0.0,0.0,0.0,0.0,0.0,0.0,0.0,0.0,0.0,0.0,0.0,0.0,0.0,0.0,0.0,0.0,0.0,0.0,0.0,0.0,0.0,0.0,0.0,0.0,0.0]}]]]